<?xml version="1.0" encoding="UTF-8" standalone="no" ?>
<gpx xmlns="http://www.topografix.com/GPX/1/1" xmlns:xsi="http://www.w3.org/2001/XMLSchema-instance" xsi:schemaLocation="http://www.topografix.com/GPX/1/1 http://www.topografix.com/GPX/1/1/gpx.xsd" version="1.1" creator="VisuGPX - https://www.visugpx.com">
  <metadata>
    <name>2010-83-CD-Brenon-Plan d\'Anelle</name>
    <desc><![CDATA[Brenon-Plan d\'Anelle]]></desc>
  </metadata>
  <trk>
    <name><![CDATA[Brenon-Plan Anelle-SEP-26-10 13-03-22-F]]></name>
    <trkseg>
      <trkpt lat="43.76563" lon="6.54406">
        <ele>929</ele>
        <time>2010-09-26T07:41:15Z</time>
      </trkpt>
      <trkpt lat="43.76562" lon="6.54404">
        <ele>927</ele>
        <time>2010-09-26T07:43:29Z</time>
      </trkpt>
      <trkpt lat="43.76565" lon="6.54401">
        <ele>927</ele>
        <time>2010-09-26T07:46:15Z</time>
      </trkpt>
      <trkpt lat="43.76567" lon="6.54395">
        <ele>926</ele>
        <time>2010-09-26T07:46:40Z</time>
      </trkpt>
      <trkpt lat="43.76568" lon="6.54393">
        <ele>926</ele>
        <time>2010-09-26T07:46:42Z</time>
      </trkpt>
      <trkpt lat="43.76575" lon="6.54384">
        <ele>926</ele>
        <time>2010-09-26T07:46:56Z</time>
      </trkpt>
      <trkpt lat="43.76575" lon="6.54384">
        <ele>926</ele>
        <time>2010-09-26T07:47:59Z</time>
      </trkpt>
      <trkpt lat="43.76575" lon="6.54383">
        <ele>926</ele>
        <time>2010-09-26T07:48:22Z</time>
      </trkpt>
      <trkpt lat="43.76575" lon="6.54383">
        <ele>926</ele>
        <time>2010-09-26T07:48:55Z</time>
      </trkpt>
      <trkpt lat="43.76575" lon="6.54384">
        <ele>926</ele>
        <time>2010-09-26T07:51:17Z</time>
      </trkpt>
      <trkpt lat="43.76582" lon="6.54379">
        <ele>925</ele>
        <time>2010-09-26T07:54:32Z</time>
      </trkpt>
      <trkpt lat="43.76584" lon="6.54379">
        <ele>924</ele>
        <time>2010-09-26T07:54:46Z</time>
      </trkpt>
      <trkpt lat="43.76598" lon="6.54373">
        <ele>924</ele>
        <time>2010-09-26T07:55:04Z</time>
      </trkpt>
      <trkpt lat="43.76604" lon="6.54361">
        <ele>924</ele>
        <time>2010-09-26T07:55:14Z</time>
      </trkpt>
      <trkpt lat="43.76602" lon="6.54353">
        <ele>923</ele>
        <time>2010-09-26T07:55:21Z</time>
      </trkpt>
      <trkpt lat="43.76597" lon="6.5435">
        <ele>922</ele>
        <time>2010-09-26T07:55:25Z</time>
      </trkpt>
      <trkpt lat="43.76582" lon="6.54336">
        <ele>921</ele>
        <time>2010-09-26T07:55:41Z</time>
      </trkpt>
      <trkpt lat="43.76575" lon="6.5433">
        <ele>921</ele>
        <time>2010-09-26T07:55:48Z</time>
      </trkpt>
      <trkpt lat="43.7656" lon="6.54322">
        <ele>921</ele>
        <time>2010-09-26T07:56:02Z</time>
      </trkpt>
      <trkpt lat="43.76559" lon="6.54322">
        <ele>921</ele>
        <time>2010-09-26T07:56:03Z</time>
      </trkpt>
      <trkpt lat="43.76545" lon="6.54315">
        <ele>921</ele>
        <time>2010-09-26T07:56:16Z</time>
      </trkpt>
      <trkpt lat="43.76531" lon="6.54302">
        <ele>919</ele>
        <time>2010-09-26T07:56:31Z</time>
      </trkpt>
      <trkpt lat="43.76516" lon="6.54293">
        <ele>920</ele>
        <time>2010-09-26T07:56:45Z</time>
      </trkpt>
      <trkpt lat="43.76514" lon="6.54291">
        <ele>919</ele>
        <time>2010-09-26T07:56:47Z</time>
      </trkpt>
      <trkpt lat="43.765" lon="6.54273">
        <ele>919</ele>
        <time>2010-09-26T07:57:03Z</time>
      </trkpt>
      <trkpt lat="43.76487" lon="6.54257">
        <ele>918</ele>
        <time>2010-09-26T07:57:17Z</time>
      </trkpt>
      <trkpt lat="43.7648" lon="6.54247">
        <ele>919</ele>
        <time>2010-09-26T07:57:25Z</time>
      </trkpt>
      <trkpt lat="43.76476" lon="6.54243">
        <ele>918</ele>
        <time>2010-09-26T07:57:29Z</time>
      </trkpt>
      <trkpt lat="43.76463" lon="6.54228">
        <ele>918</ele>
        <time>2010-09-26T07:57:43Z</time>
      </trkpt>
      <trkpt lat="43.76453" lon="6.54216">
        <ele>918</ele>
        <time>2010-09-26T07:57:54Z</time>
      </trkpt>
      <trkpt lat="43.76447" lon="6.54205">
        <ele>916</ele>
        <time>2010-09-26T07:58:01Z</time>
      </trkpt>
      <trkpt lat="43.76437" lon="6.54185">
        <ele>916</ele>
        <time>2010-09-26T07:58:17Z</time>
      </trkpt>
      <trkpt lat="43.76424" lon="6.54168">
        <ele>917</ele>
        <time>2010-09-26T07:58:31Z</time>
      </trkpt>
      <trkpt lat="43.76409" lon="6.54161">
        <ele>915</ele>
        <time>2010-09-26T07:58:43Z</time>
      </trkpt>
      <trkpt lat="43.76402" lon="6.54161">
        <ele>916</ele>
        <time>2010-09-26T07:58:51Z</time>
      </trkpt>
      <trkpt lat="43.76392" lon="6.54153">
        <ele>915</ele>
        <time>2010-09-26T07:58:59Z</time>
      </trkpt>
      <trkpt lat="43.7639" lon="6.54141">
        <ele>915</ele>
        <time>2010-09-26T07:59:05Z</time>
      </trkpt>
      <trkpt lat="43.76395" lon="6.54123">
        <ele>915</ele>
        <time>2010-09-26T07:59:17Z</time>
      </trkpt>
      <trkpt lat="43.76396" lon="6.54122">
        <ele>914</ele>
        <time>2010-09-26T07:59:18Z</time>
      </trkpt>
      <trkpt lat="43.76404" lon="6.5411">
        <ele>913</ele>
        <time>2010-09-26T07:59:28Z</time>
      </trkpt>
      <trkpt lat="43.76414" lon="6.54094">
        <ele>912</ele>
        <time>2010-09-26T07:59:39Z</time>
      </trkpt>
      <trkpt lat="43.76417" lon="6.54075">
        <ele>911</ele>
        <time>2010-09-26T07:59:55Z</time>
      </trkpt>
      <trkpt lat="43.7642" lon="6.54059">
        <ele>910</ele>
        <time>2010-09-26T08:00:05Z</time>
      </trkpt>
      <trkpt lat="43.76424" lon="6.54052">
        <ele>909</ele>
        <time>2010-09-26T08:00:10Z</time>
      </trkpt>
      <trkpt lat="43.76426" lon="6.54035">
        <ele>909</ele>
        <time>2010-09-26T08:00:18Z</time>
      </trkpt>
      <trkpt lat="43.76424" lon="6.54025">
        <ele>908</ele>
        <time>2010-09-26T08:00:23Z</time>
      </trkpt>
      <trkpt lat="43.76415" lon="6.54005">
        <ele>908</ele>
        <time>2010-09-26T08:00:38Z</time>
      </trkpt>
      <trkpt lat="43.76412" lon="6.53998">
        <ele>907</ele>
        <time>2010-09-26T08:00:42Z</time>
      </trkpt>
      <trkpt lat="43.76417" lon="6.53977">
        <ele>907</ele>
        <time>2010-09-26T08:00:55Z</time>
      </trkpt>
      <trkpt lat="43.76418" lon="6.53973">
        <ele>906</ele>
        <time>2010-09-26T08:00:57Z</time>
      </trkpt>
      <trkpt lat="43.76428" lon="6.53962">
        <ele>905</ele>
        <time>2010-09-26T08:01:08Z</time>
      </trkpt>
      <trkpt lat="43.76439" lon="6.53948">
        <ele>905</ele>
        <time>2010-09-26T08:01:19Z</time>
      </trkpt>
      <trkpt lat="43.76452" lon="6.53942">
        <ele>904</ele>
        <time>2010-09-26T08:01:29Z</time>
      </trkpt>
      <trkpt lat="43.76461" lon="6.53946">
        <ele>904</ele>
        <time>2010-09-26T08:01:37Z</time>
      </trkpt>
      <trkpt lat="43.76473" lon="6.53947">
        <ele>903</ele>
        <time>2010-09-26T08:01:48Z</time>
      </trkpt>
      <trkpt lat="43.76488" lon="6.53944">
        <ele>902</ele>
        <time>2010-09-26T08:02:00Z</time>
      </trkpt>
      <trkpt lat="43.76498" lon="6.53937">
        <ele>901</ele>
        <time>2010-09-26T08:02:11Z</time>
      </trkpt>
      <trkpt lat="43.76514" lon="6.53926">
        <ele>900</ele>
        <time>2010-09-26T08:02:22Z</time>
      </trkpt>
      <trkpt lat="43.76521" lon="6.53928">
        <ele>899</ele>
        <time>2010-09-26T08:02:29Z</time>
      </trkpt>
      <trkpt lat="43.76535" lon="6.53918">
        <ele>898</ele>
        <time>2010-09-26T08:02:41Z</time>
      </trkpt>
      <trkpt lat="43.7654" lon="6.53903">
        <ele>897</ele>
        <time>2010-09-26T08:02:51Z</time>
      </trkpt>
      <trkpt lat="43.76548" lon="6.53883">
        <ele>897</ele>
        <time>2010-09-26T08:03:04Z</time>
      </trkpt>
      <trkpt lat="43.76563" lon="6.53869">
        <ele>896</ele>
        <time>2010-09-26T08:03:25Z</time>
      </trkpt>
      <trkpt lat="43.76573" lon="6.53864">
        <ele>895</ele>
        <time>2010-09-26T08:03:36Z</time>
      </trkpt>
      <trkpt lat="43.7658" lon="6.53861">
        <ele>894</ele>
        <time>2010-09-26T08:03:42Z</time>
      </trkpt>
      <trkpt lat="43.76583" lon="6.53859">
        <ele>894</ele>
        <time>2010-09-26T08:03:46Z</time>
      </trkpt>
      <trkpt lat="43.76595" lon="6.53855">
        <ele>894</ele>
        <time>2010-09-26T08:03:56Z</time>
      </trkpt>
      <trkpt lat="43.76607" lon="6.53853">
        <ele>894</ele>
        <time>2010-09-26T08:04:07Z</time>
      </trkpt>
      <trkpt lat="43.76621" lon="6.53847">
        <ele>893</ele>
        <time>2010-09-26T08:04:17Z</time>
      </trkpt>
      <trkpt lat="43.76635" lon="6.5384">
        <ele>892</ele>
        <time>2010-09-26T08:04:28Z</time>
      </trkpt>
      <trkpt lat="43.7665" lon="6.53833">
        <ele>891</ele>
        <time>2010-09-26T08:04:42Z</time>
      </trkpt>
      <trkpt lat="43.76659" lon="6.53829">
        <ele>890</ele>
        <time>2010-09-26T08:04:50Z</time>
      </trkpt>
      <trkpt lat="43.76665" lon="6.53826">
        <ele>890</ele>
        <time>2010-09-26T08:04:55Z</time>
      </trkpt>
      <trkpt lat="43.76668" lon="6.53825">
        <ele>889</ele>
        <time>2010-09-26T08:04:57Z</time>
      </trkpt>
      <trkpt lat="43.76675" lon="6.53821">
        <ele>889</ele>
        <time>2010-09-26T08:05:04Z</time>
      </trkpt>
      <trkpt lat="43.76678" lon="6.53821">
        <ele>889</ele>
        <time>2010-09-26T08:05:06Z</time>
      </trkpt>
      <trkpt lat="43.7668" lon="6.53821">
        <ele>888</ele>
        <time>2010-09-26T08:05:08Z</time>
      </trkpt>
      <trkpt lat="43.76687" lon="6.53819">
        <ele>889</ele>
        <time>2010-09-26T08:05:13Z</time>
      </trkpt>
      <trkpt lat="43.76696" lon="6.5382">
        <ele>888</ele>
        <time>2010-09-26T08:05:20Z</time>
      </trkpt>
      <trkpt lat="43.76714" lon="6.53825">
        <ele>887</ele>
        <time>2010-09-26T08:05:34Z</time>
      </trkpt>
      <trkpt lat="43.76716" lon="6.53827">
        <ele>887</ele>
        <time>2010-09-26T08:05:36Z</time>
      </trkpt>
      <trkpt lat="43.76718" lon="6.53829">
        <ele>887</ele>
        <time>2010-09-26T08:05:39Z</time>
      </trkpt>
      <trkpt lat="43.76723" lon="6.53829">
        <ele>886</ele>
        <time>2010-09-26T08:05:42Z</time>
      </trkpt>
      <trkpt lat="43.76731" lon="6.53832">
        <ele>886</ele>
        <time>2010-09-26T08:05:49Z</time>
      </trkpt>
      <trkpt lat="43.76733" lon="6.53834">
        <ele>886</ele>
        <time>2010-09-26T08:05:51Z</time>
      </trkpt>
      <trkpt lat="43.76738" lon="6.53839">
        <ele>886</ele>
        <time>2010-09-26T08:05:56Z</time>
      </trkpt>
      <trkpt lat="43.76747" lon="6.53843">
        <ele>885</ele>
        <time>2010-09-26T08:06:04Z</time>
      </trkpt>
      <trkpt lat="43.76767" lon="6.53849">
        <ele>883</ele>
        <time>2010-09-26T08:06:21Z</time>
      </trkpt>
      <trkpt lat="43.76773" lon="6.53853">
        <ele>883</ele>
        <time>2010-09-26T08:06:27Z</time>
      </trkpt>
      <trkpt lat="43.76781" lon="6.53853">
        <ele>883</ele>
        <time>2010-09-26T08:06:33Z</time>
      </trkpt>
      <trkpt lat="43.76794" lon="6.53857">
        <ele>882</ele>
        <time>2010-09-26T08:06:45Z</time>
      </trkpt>
      <trkpt lat="43.76806" lon="6.53844">
        <ele>880</ele>
        <time>2010-09-26T08:06:58Z</time>
      </trkpt>
      <trkpt lat="43.76814" lon="6.53827">
        <ele>880</ele>
        <time>2010-09-26T08:07:09Z</time>
      </trkpt>
      <trkpt lat="43.76822" lon="6.53807">
        <ele>878</ele>
        <time>2010-09-26T08:07:22Z</time>
      </trkpt>
      <trkpt lat="43.76822" lon="6.53803">
        <ele>878</ele>
        <time>2010-09-26T08:07:25Z</time>
      </trkpt>
      <trkpt lat="43.76828" lon="6.53788">
        <ele>877</ele>
        <time>2010-09-26T08:07:42Z</time>
      </trkpt>
      <trkpt lat="43.76828" lon="6.53784">
        <ele>877</ele>
        <time>2010-09-26T08:07:50Z</time>
      </trkpt>
      <trkpt lat="43.76834" lon="6.53762">
        <ele>876</ele>
        <time>2010-09-26T08:08:06Z</time>
      </trkpt>
      <trkpt lat="43.76839" lon="6.53739">
        <ele>876</ele>
        <time>2010-09-26T08:08:22Z</time>
      </trkpt>
      <trkpt lat="43.76839" lon="6.53738">
        <ele>875</ele>
        <time>2010-09-26T08:08:48Z</time>
      </trkpt>
      <trkpt lat="43.76839" lon="6.53736">
        <ele>875</ele>
        <time>2010-09-26T08:10:00Z</time>
      </trkpt>
      <trkpt lat="43.76839" lon="6.53738">
        <ele>875</ele>
        <time>2010-09-26T08:12:05Z</time>
      </trkpt>
      <trkpt lat="43.76839" lon="6.5374">
        <ele>875</ele>
        <time>2010-09-26T08:13:18Z</time>
      </trkpt>
      <trkpt lat="43.76837" lon="6.53747">
        <ele>875</ele>
        <time>2010-09-26T08:13:47Z</time>
      </trkpt>
      <trkpt lat="43.76836" lon="6.53757">
        <ele>876</ele>
        <time>2010-09-26T08:14:04Z</time>
      </trkpt>
      <trkpt lat="43.76832" lon="6.53772">
        <ele>877</ele>
        <time>2010-09-26T08:14:49Z</time>
      </trkpt>
      <trkpt lat="43.76829" lon="6.53786">
        <ele>877</ele>
        <time>2010-09-26T08:14:59Z</time>
      </trkpt>
      <trkpt lat="43.76828" lon="6.53788">
        <ele>876</ele>
        <time>2010-09-26T08:15:01Z</time>
      </trkpt>
      <trkpt lat="43.76826" lon="6.53798">
        <ele>879</ele>
        <time>2010-09-26T08:15:07Z</time>
      </trkpt>
      <trkpt lat="43.76815" lon="6.53827">
        <ele>879</ele>
        <time>2010-09-26T08:15:27Z</time>
      </trkpt>
      <trkpt lat="43.76806" lon="6.53847">
        <ele>879</ele>
        <time>2010-09-26T08:15:42Z</time>
      </trkpt>
      <trkpt lat="43.76804" lon="6.5385">
        <ele>880</ele>
        <time>2010-09-26T08:15:45Z</time>
      </trkpt>
      <trkpt lat="43.7679" lon="6.53861">
        <ele>883</ele>
        <time>2010-09-26T08:15:59Z</time>
      </trkpt>
      <trkpt lat="43.76782" lon="6.53858">
        <ele>882</ele>
        <time>2010-09-26T08:16:06Z</time>
      </trkpt>
      <trkpt lat="43.76776" lon="6.53853">
        <ele>883</ele>
        <time>2010-09-26T08:16:12Z</time>
      </trkpt>
      <trkpt lat="43.76775" lon="6.53853">
        <ele>884</ele>
        <time>2010-09-26T08:16:13Z</time>
      </trkpt>
      <trkpt lat="43.76764" lon="6.53848">
        <ele>882</ele>
        <time>2010-09-26T08:16:24Z</time>
      </trkpt>
      <trkpt lat="43.76763" lon="6.53847">
        <ele>883</ele>
        <time>2010-09-26T08:16:25Z</time>
      </trkpt>
      <trkpt lat="43.7676" lon="6.53844">
        <ele>884</ele>
        <time>2010-09-26T08:16:27Z</time>
      </trkpt>
      <trkpt lat="43.76746" lon="6.53836">
        <ele>885</ele>
        <time>2010-09-26T08:16:41Z</time>
      </trkpt>
      <trkpt lat="43.76741" lon="6.53834">
        <ele>885</ele>
        <time>2010-09-26T08:16:46Z</time>
      </trkpt>
      <trkpt lat="43.76727" lon="6.53824">
        <ele>885</ele>
        <time>2010-09-26T08:16:59Z</time>
      </trkpt>
      <trkpt lat="43.76717" lon="6.53823">
        <ele>886</ele>
        <time>2010-09-26T08:17:08Z</time>
      </trkpt>
      <trkpt lat="43.76706" lon="6.53819">
        <ele>887</ele>
        <time>2010-09-26T08:17:19Z</time>
      </trkpt>
      <trkpt lat="43.76694" lon="6.53818">
        <ele>888</ele>
        <time>2010-09-26T08:17:30Z</time>
      </trkpt>
      <trkpt lat="43.76679" lon="6.53819">
        <ele>889</ele>
        <time>2010-09-26T08:17:43Z</time>
      </trkpt>
      <trkpt lat="43.76667" lon="6.53824">
        <ele>889</ele>
        <time>2010-09-26T08:17:54Z</time>
      </trkpt>
      <trkpt lat="43.76654" lon="6.53829">
        <ele>890</ele>
        <time>2010-09-26T08:18:05Z</time>
      </trkpt>
      <trkpt lat="43.76641" lon="6.53844">
        <ele>891</ele>
        <time>2010-09-26T08:18:16Z</time>
      </trkpt>
      <trkpt lat="43.76628" lon="6.5385">
        <ele>892</ele>
        <time>2010-09-26T08:18:25Z</time>
      </trkpt>
      <trkpt lat="43.76612" lon="6.53856">
        <ele>892</ele>
        <time>2010-09-26T08:18:38Z</time>
      </trkpt>
      <trkpt lat="43.76607" lon="6.53856">
        <ele>892</ele>
        <time>2010-09-26T08:18:42Z</time>
      </trkpt>
      <trkpt lat="43.76589" lon="6.53863">
        <ele>893</ele>
        <time>2010-09-26T08:18:56Z</time>
      </trkpt>
      <trkpt lat="43.76588" lon="6.53864">
        <ele>893</ele>
        <time>2010-09-26T08:18:57Z</time>
      </trkpt>
      <trkpt lat="43.76573" lon="6.53871">
        <ele>893</ele>
        <time>2010-09-26T08:19:11Z</time>
      </trkpt>
      <trkpt lat="43.76565" lon="6.53876">
        <ele>895</ele>
        <time>2010-09-26T08:19:19Z</time>
      </trkpt>
      <trkpt lat="43.76552" lon="6.53891">
        <ele>895</ele>
        <time>2010-09-26T08:19:33Z</time>
      </trkpt>
      <trkpt lat="43.76545" lon="6.53902">
        <ele>895</ele>
        <time>2010-09-26T08:19:45Z</time>
      </trkpt>
      <trkpt lat="43.76536" lon="6.53922">
        <ele>897</ele>
        <time>2010-09-26T08:20:00Z</time>
      </trkpt>
      <trkpt lat="43.76534" lon="6.53924">
        <ele>896</ele>
        <time>2010-09-26T08:20:03Z</time>
      </trkpt>
      <trkpt lat="43.76525" lon="6.5393">
        <ele>898</ele>
        <time>2010-09-26T08:20:14Z</time>
      </trkpt>
      <trkpt lat="43.76525" lon="6.5393">
        <ele>897</ele>
        <time>2010-09-26T08:20:15Z</time>
      </trkpt>
      <trkpt lat="43.76509" lon="6.53939">
        <ele>899</ele>
        <time>2010-09-26T08:20:28Z</time>
      </trkpt>
      <trkpt lat="43.76493" lon="6.53948">
        <ele>899</ele>
        <time>2010-09-26T08:20:42Z</time>
      </trkpt>
      <trkpt lat="43.76483" lon="6.53952">
        <ele>900</ele>
        <time>2010-09-26T08:20:53Z</time>
      </trkpt>
      <trkpt lat="43.7647" lon="6.53954">
        <ele>902</ele>
        <time>2010-09-26T08:21:04Z</time>
      </trkpt>
      <trkpt lat="43.76469" lon="6.53954">
        <ele>901</ele>
        <time>2010-09-26T08:21:05Z</time>
      </trkpt>
      <trkpt lat="43.76454" lon="6.5395">
        <ele>901</ele>
        <time>2010-09-26T08:21:21Z</time>
      </trkpt>
      <trkpt lat="43.76443" lon="6.53955">
        <ele>902</ele>
        <time>2010-09-26T08:21:32Z</time>
      </trkpt>
      <trkpt lat="43.76431" lon="6.53965">
        <ele>903</ele>
        <time>2010-09-26T08:21:41Z</time>
      </trkpt>
      <trkpt lat="43.7643" lon="6.53966">
        <ele>904</ele>
        <time>2010-09-26T08:21:43Z</time>
      </trkpt>
      <trkpt lat="43.76423" lon="6.53976">
        <ele>903</ele>
        <time>2010-09-26T08:21:51Z</time>
      </trkpt>
      <trkpt lat="43.76414" lon="6.53993">
        <ele>905</ele>
        <time>2010-09-26T08:22:03Z</time>
      </trkpt>
      <trkpt lat="43.76412" lon="6.53999">
        <ele>905</ele>
        <time>2010-09-26T08:22:07Z</time>
      </trkpt>
      <trkpt lat="43.76415" lon="6.54008">
        <ele>905</ele>
        <time>2010-09-26T08:22:13Z</time>
      </trkpt>
      <trkpt lat="43.76428" lon="6.54031">
        <ele>906</ele>
        <time>2010-09-26T08:22:29Z</time>
      </trkpt>
      <trkpt lat="43.7643" lon="6.54042">
        <ele>906</ele>
        <time>2010-09-26T08:22:36Z</time>
      </trkpt>
      <trkpt lat="43.76431" lon="6.54046">
        <ele>906</ele>
        <time>2010-09-26T08:22:38Z</time>
      </trkpt>
      <trkpt lat="43.76428" lon="6.54064">
        <ele>907</ele>
        <time>2010-09-26T08:22:50Z</time>
      </trkpt>
      <trkpt lat="43.76424" lon="6.54075">
        <ele>908</ele>
        <time>2010-09-26T08:23:00Z</time>
      </trkpt>
      <trkpt lat="43.76423" lon="6.54079">
        <ele>910</ele>
        <time>2010-09-26T08:23:03Z</time>
      </trkpt>
      <trkpt lat="43.76414" lon="6.54095">
        <ele>909</ele>
        <time>2010-09-26T08:23:16Z</time>
      </trkpt>
      <trkpt lat="43.76406" lon="6.54112">
        <ele>910</ele>
        <time>2010-09-26T08:23:26Z</time>
      </trkpt>
      <trkpt lat="43.76397" lon="6.54125">
        <ele>912</ele>
        <time>2010-09-26T08:23:35Z</time>
      </trkpt>
      <trkpt lat="43.76392" lon="6.54138">
        <ele>913</ele>
        <time>2010-09-26T08:23:45Z</time>
      </trkpt>
      <trkpt lat="43.7639" lon="6.54151">
        <ele>912</ele>
        <time>2010-09-26T08:23:52Z</time>
      </trkpt>
      <trkpt lat="43.76395" lon="6.5416">
        <ele>912</ele>
        <time>2010-09-26T08:24:00Z</time>
      </trkpt>
      <trkpt lat="43.76417" lon="6.54165">
        <ele>913</ele>
        <time>2010-09-26T08:24:14Z</time>
      </trkpt>
      <trkpt lat="43.76423" lon="6.54166">
        <ele>913</ele>
        <time>2010-09-26T08:24:19Z</time>
      </trkpt>
      <trkpt lat="43.76431" lon="6.54173">
        <ele>914</ele>
        <time>2010-09-26T08:24:27Z</time>
      </trkpt>
      <trkpt lat="43.76436" lon="6.54179">
        <ele>914</ele>
        <time>2010-09-26T08:24:33Z</time>
      </trkpt>
      <trkpt lat="43.76439" lon="6.54183">
        <ele>913</ele>
        <time>2010-09-26T08:24:37Z</time>
      </trkpt>
      <trkpt lat="43.76442" lon="6.54192">
        <ele>914</ele>
        <time>2010-09-26T08:24:43Z</time>
      </trkpt>
      <trkpt lat="43.76446" lon="6.54198">
        <ele>914</ele>
        <time>2010-09-26T08:24:49Z</time>
      </trkpt>
      <trkpt lat="43.76454" lon="6.54217">
        <ele>914</ele>
        <time>2010-09-26T08:25:01Z</time>
      </trkpt>
      <trkpt lat="43.76462" lon="6.54232">
        <ele>915</ele>
        <time>2010-09-26T08:25:12Z</time>
      </trkpt>
      <trkpt lat="43.76472" lon="6.54247">
        <ele>915</ele>
        <time>2010-09-26T08:25:25Z</time>
      </trkpt>
      <trkpt lat="43.76484" lon="6.54264">
        <ele>916</ele>
        <time>2010-09-26T08:25:40Z</time>
      </trkpt>
      <trkpt lat="43.76485" lon="6.54275">
        <ele>916</ele>
        <time>2010-09-26T08:25:48Z</time>
      </trkpt>
      <trkpt lat="43.76493" lon="6.54277">
        <ele>916</ele>
        <time>2010-09-26T08:25:53Z</time>
      </trkpt>
      <trkpt lat="43.76508" lon="6.54289">
        <ele>916</ele>
        <time>2010-09-26T08:26:06Z</time>
      </trkpt>
      <trkpt lat="43.7651" lon="6.54292">
        <ele>916</ele>
        <time>2010-09-26T08:26:09Z</time>
      </trkpt>
      <trkpt lat="43.76518" lon="6.54301">
        <ele>916</ele>
        <time>2010-09-26T08:26:20Z</time>
      </trkpt>
      <trkpt lat="43.76521" lon="6.54303">
        <ele>916</ele>
        <time>2010-09-26T08:26:22Z</time>
      </trkpt>
      <trkpt lat="43.76531" lon="6.54312">
        <ele>917</ele>
        <time>2010-09-26T08:26:31Z</time>
      </trkpt>
      <trkpt lat="43.76534" lon="6.54316">
        <ele>917</ele>
        <time>2010-09-26T08:26:36Z</time>
      </trkpt>
      <trkpt lat="43.76543" lon="6.54323">
        <ele>917</ele>
        <time>2010-09-26T08:26:48Z</time>
      </trkpt>
      <trkpt lat="43.76551" lon="6.54331">
        <ele>917</ele>
        <time>2010-09-26T08:27:00Z</time>
      </trkpt>
      <trkpt lat="43.76564" lon="6.54335">
        <ele>918</ele>
        <time>2010-09-26T08:27:06Z</time>
      </trkpt>
      <trkpt lat="43.76581" lon="6.54346">
        <ele>919</ele>
        <time>2010-09-26T08:27:18Z</time>
      </trkpt>
      <trkpt lat="43.76582" lon="6.54347">
        <ele>919</ele>
        <time>2010-09-26T08:27:19Z</time>
      </trkpt>
      <trkpt lat="43.76595" lon="6.54356">
        <ele>918</ele>
        <time>2010-09-26T08:27:28Z</time>
      </trkpt>
      <trkpt lat="43.766" lon="6.54366">
        <ele>918</ele>
        <time>2010-09-26T08:27:35Z</time>
      </trkpt>
      <trkpt lat="43.76598" lon="6.54374">
        <ele>921</ele>
        <time>2010-09-26T08:27:43Z</time>
      </trkpt>
      <trkpt lat="43.76587" lon="6.54384">
        <ele>921</ele>
        <time>2010-09-26T08:27:56Z</time>
      </trkpt>
      <trkpt lat="43.76582" lon="6.54388">
        <ele>921</ele>
        <time>2010-09-26T08:28:07Z</time>
      </trkpt>
      <trkpt lat="43.76578" lon="6.54387">
        <ele>922</ele>
        <time>2010-09-26T08:28:24Z</time>
      </trkpt>
      <trkpt lat="43.76577" lon="6.54387">
        <ele>922</ele>
        <time>2010-09-26T08:28:25Z</time>
      </trkpt>
      <trkpt lat="43.76573" lon="6.54388">
        <ele>922</ele>
        <time>2010-09-26T08:28:30Z</time>
      </trkpt>
      <trkpt lat="43.76562" lon="6.54394">
        <ele>923</ele>
        <time>2010-09-26T08:28:43Z</time>
      </trkpt>
      <trkpt lat="43.76563" lon="6.54395">
        <ele>923</ele>
        <time>2010-09-26T08:29:23Z</time>
      </trkpt>
      <trkpt lat="43.76563" lon="6.54395">
        <ele>922</ele>
        <time>2010-09-26T08:29:39Z</time>
      </trkpt>
      <trkpt lat="43.76563" lon="6.54395">
        <ele>926</ele>
        <time>2010-09-26T08:29:48Z</time>
      </trkpt>
      <trkpt lat="43.76563" lon="6.54395">
        <ele>923</ele>
        <time>2010-09-26T08:29:49Z</time>
      </trkpt>
      <trkpt lat="43.76564" lon="6.54395">
        <ele>922</ele>
        <time>2010-09-26T08:30:22Z</time>
      </trkpt>
      <trkpt lat="43.76564" lon="6.54395">
        <ele>925</ele>
        <time>2010-09-26T08:31:36Z</time>
      </trkpt>
      <trkpt lat="43.76564" lon="6.54395">
        <ele>923</ele>
        <time>2010-09-26T08:31:37Z</time>
      </trkpt>
      <trkpt lat="43.76564" lon="6.54396">
        <ele>922</ele>
        <time>2010-09-26T08:32:18Z</time>
      </trkpt>
      <trkpt lat="43.76564" lon="6.54397">
        <ele>916</ele>
        <time>2010-09-26T08:32:21Z</time>
      </trkpt>
      <trkpt lat="43.76564" lon="6.54397">
        <ele>923</ele>
        <time>2010-09-26T08:32:22Z</time>
      </trkpt>
      <trkpt lat="43.76564" lon="6.54397">
        <ele>923</ele>
        <time>2010-09-26T08:32:23Z</time>
      </trkpt>
      <trkpt lat="43.76562" lon="6.54395">
        <ele>922</ele>
        <time>2010-09-26T08:33:13Z</time>
      </trkpt>
      <trkpt lat="43.76563" lon="6.54401">
        <ele>922</ele>
        <time>2010-09-26T08:34:57Z</time>
      </trkpt>
      <trkpt lat="43.76551" lon="6.54397">
        <ele>923</ele>
        <time>2010-09-26T08:35:10Z</time>
      </trkpt>
      <trkpt lat="43.76542" lon="6.54407">
        <ele>923</ele>
        <time>2010-09-26T08:35:28Z</time>
      </trkpt>
      <trkpt lat="43.76535" lon="6.54412">
        <ele>924</ele>
        <time>2010-09-26T08:35:33Z</time>
      </trkpt>
      <trkpt lat="43.76522" lon="6.54413">
        <ele>926</ele>
        <time>2010-09-26T08:35:43Z</time>
      </trkpt>
      <trkpt lat="43.76519" lon="6.54415">
        <ele>923</ele>
        <time>2010-09-26T08:35:46Z</time>
      </trkpt>
      <trkpt lat="43.76513" lon="6.54415">
        <ele>925</ele>
        <time>2010-09-26T08:35:50Z</time>
      </trkpt>
      <trkpt lat="43.76503" lon="6.54411">
        <ele>926</ele>
        <time>2010-09-26T08:36:01Z</time>
      </trkpt>
      <trkpt lat="43.76472" lon="6.544">
        <ele>926</ele>
        <time>2010-09-26T08:36:21Z</time>
      </trkpt>
      <trkpt lat="43.76457" lon="6.54397">
        <ele>929</ele>
        <time>2010-09-26T08:36:34Z</time>
      </trkpt>
      <trkpt lat="43.76441" lon="6.5441">
        <ele>928</ele>
        <time>2010-09-26T08:36:50Z</time>
      </trkpt>
      <trkpt lat="43.76437" lon="6.54417">
        <ele>930</ele>
        <time>2010-09-26T08:36:53Z</time>
      </trkpt>
      <trkpt lat="43.76435" lon="6.54425">
        <ele>928</ele>
        <time>2010-09-26T08:36:57Z</time>
      </trkpt>
      <trkpt lat="43.7643" lon="6.54438">
        <ele>932</ele>
        <time>2010-09-26T08:37:07Z</time>
      </trkpt>
      <trkpt lat="43.76422" lon="6.5445">
        <ele>931</ele>
        <time>2010-09-26T08:37:20Z</time>
      </trkpt>
      <trkpt lat="43.7641" lon="6.5446">
        <ele>932</ele>
        <time>2010-09-26T08:37:30Z</time>
      </trkpt>
      <trkpt lat="43.76403" lon="6.54461">
        <ele>934</ele>
        <time>2010-09-26T08:37:36Z</time>
      </trkpt>
      <trkpt lat="43.76398" lon="6.54464">
        <ele>933</ele>
        <time>2010-09-26T08:37:41Z</time>
      </trkpt>
      <trkpt lat="43.76396" lon="6.54469">
        <ele>935</ele>
        <time>2010-09-26T08:37:47Z</time>
      </trkpt>
      <trkpt lat="43.76394" lon="6.54474">
        <ele>933</ele>
        <time>2010-09-26T08:37:52Z</time>
      </trkpt>
      <trkpt lat="43.76389" lon="6.54479">
        <ele>936</ele>
        <time>2010-09-26T08:37:58Z</time>
      </trkpt>
      <trkpt lat="43.7638" lon="6.54484">
        <ele>935</ele>
        <time>2010-09-26T08:38:04Z</time>
      </trkpt>
      <trkpt lat="43.76365" lon="6.54497">
        <ele>938</ele>
        <time>2010-09-26T08:38:18Z</time>
      </trkpt>
      <trkpt lat="43.76351" lon="6.54505">
        <ele>939</ele>
        <time>2010-09-26T08:38:32Z</time>
      </trkpt>
      <trkpt lat="43.76343" lon="6.54506">
        <ele>938</ele>
        <time>2010-09-26T08:38:40Z</time>
      </trkpt>
      <trkpt lat="43.76332" lon="6.54503">
        <ele>940</ele>
        <time>2010-09-26T08:38:52Z</time>
      </trkpt>
      <trkpt lat="43.76316" lon="6.54521">
        <ele>942</ele>
        <time>2010-09-26T08:39:09Z</time>
      </trkpt>
      <trkpt lat="43.76315" lon="6.54521">
        <ele>941</ele>
        <time>2010-09-26T08:39:12Z</time>
      </trkpt>
      <trkpt lat="43.76311" lon="6.54523">
        <ele>943</ele>
        <time>2010-09-26T08:39:17Z</time>
      </trkpt>
      <trkpt lat="43.76297" lon="6.54533">
        <ele>943</ele>
        <time>2010-09-26T08:39:28Z</time>
      </trkpt>
      <trkpt lat="43.76295" lon="6.54535">
        <ele>944</ele>
        <time>2010-09-26T08:39:32Z</time>
      </trkpt>
      <trkpt lat="43.76287" lon="6.5454">
        <ele>944</ele>
        <time>2010-09-26T08:39:39Z</time>
      </trkpt>
      <trkpt lat="43.76284" lon="6.5454">
        <ele>945</ele>
        <time>2010-09-26T08:39:43Z</time>
      </trkpt>
      <trkpt lat="43.76273" lon="6.54559">
        <ele>947</ele>
        <time>2010-09-26T08:40:01Z</time>
      </trkpt>
      <trkpt lat="43.76272" lon="6.54562">
        <ele>947</ele>
        <time>2010-09-26T08:40:04Z</time>
      </trkpt>
      <trkpt lat="43.7627" lon="6.54573">
        <ele>948</ele>
        <time>2010-09-26T08:40:14Z</time>
      </trkpt>
      <trkpt lat="43.76258" lon="6.54579">
        <ele>949</ele>
        <time>2010-09-26T08:40:28Z</time>
      </trkpt>
      <trkpt lat="43.76238" lon="6.54593">
        <ele>951</ele>
        <time>2010-09-26T08:40:42Z</time>
      </trkpt>
      <trkpt lat="43.76232" lon="6.54593">
        <ele>951</ele>
        <time>2010-09-26T08:40:45Z</time>
      </trkpt>
      <trkpt lat="43.76201" lon="6.54604">
        <ele>952</ele>
        <time>2010-09-26T08:41:02Z</time>
      </trkpt>
      <trkpt lat="43.76183" lon="6.54613">
        <ele>953</ele>
        <time>2010-09-26T08:41:14Z</time>
      </trkpt>
      <trkpt lat="43.76182" lon="6.54614">
        <ele>953</ele>
        <time>2010-09-26T08:41:15Z</time>
      </trkpt>
      <trkpt lat="43.76162" lon="6.54622">
        <ele>956</ele>
        <time>2010-09-26T08:41:32Z</time>
      </trkpt>
      <trkpt lat="43.76147" lon="6.5463">
        <ele>955</ele>
        <time>2010-09-26T08:41:45Z</time>
      </trkpt>
      <trkpt lat="43.76143" lon="6.54635">
        <ele>958</ele>
        <time>2010-09-26T08:41:48Z</time>
      </trkpt>
      <trkpt lat="43.76139" lon="6.54636">
        <ele>955</ele>
        <time>2010-09-26T08:41:51Z</time>
      </trkpt>
      <trkpt lat="43.76134" lon="6.54639">
        <ele>958</ele>
        <time>2010-09-26T08:41:55Z</time>
      </trkpt>
      <trkpt lat="43.76127" lon="6.54644">
        <ele>957</ele>
        <time>2010-09-26T08:42:00Z</time>
      </trkpt>
      <trkpt lat="43.76123" lon="6.54646">
        <ele>959</ele>
        <time>2010-09-26T08:42:07Z</time>
      </trkpt>
      <trkpt lat="43.76123" lon="6.54647">
        <ele>957</ele>
        <time>2010-09-26T08:42:09Z</time>
      </trkpt>
      <trkpt lat="43.76123" lon="6.54648">
        <ele>958</ele>
        <time>2010-09-26T08:42:10Z</time>
      </trkpt>
      <trkpt lat="43.76117" lon="6.54657">
        <ele>961</ele>
        <time>2010-09-26T08:42:24Z</time>
      </trkpt>
      <trkpt lat="43.76123" lon="6.54662">
        <ele>958</ele>
        <time>2010-09-26T08:42:30Z</time>
      </trkpt>
      <trkpt lat="43.76128" lon="6.54661">
        <ele>961</ele>
        <time>2010-09-26T08:42:33Z</time>
      </trkpt>
      <trkpt lat="43.76138" lon="6.54661">
        <ele>960</ele>
        <time>2010-09-26T08:42:42Z</time>
      </trkpt>
      <trkpt lat="43.76152" lon="6.54662">
        <ele>961</ele>
        <time>2010-09-26T08:42:54Z</time>
      </trkpt>
      <trkpt lat="43.76161" lon="6.54658">
        <ele>960</ele>
        <time>2010-09-26T08:43:04Z</time>
      </trkpt>
      <trkpt lat="43.76164" lon="6.54657">
        <ele>961</ele>
        <time>2010-09-26T08:43:07Z</time>
      </trkpt>
      <trkpt lat="43.76172" lon="6.54653">
        <ele>963</ele>
        <time>2010-09-26T08:43:16Z</time>
      </trkpt>
      <trkpt lat="43.76187" lon="6.5465">
        <ele>963</ele>
        <time>2010-09-26T08:43:27Z</time>
      </trkpt>
      <trkpt lat="43.76207" lon="6.54653">
        <ele>964</ele>
        <time>2010-09-26T08:43:45Z</time>
      </trkpt>
      <trkpt lat="43.76221" lon="6.54651">
        <ele>965</ele>
        <time>2010-09-26T08:43:58Z</time>
      </trkpt>
      <trkpt lat="43.7623" lon="6.54662">
        <ele>966</ele>
        <time>2010-09-26T08:44:06Z</time>
      </trkpt>
      <trkpt lat="43.7624" lon="6.5467">
        <ele>968</ele>
        <time>2010-09-26T08:44:16Z</time>
      </trkpt>
      <trkpt lat="43.76259" lon="6.54662">
        <ele>968</ele>
        <time>2010-09-26T08:44:33Z</time>
      </trkpt>
      <trkpt lat="43.76277" lon="6.5466">
        <ele>969</ele>
        <time>2010-09-26T08:44:48Z</time>
      </trkpt>
      <trkpt lat="43.76284" lon="6.54663">
        <ele>970</ele>
        <time>2010-09-26T08:45:20Z</time>
      </trkpt>
      <trkpt lat="43.76289" lon="6.5466">
        <ele>973</ele>
        <time>2010-09-26T08:46:35Z</time>
      </trkpt>
      <trkpt lat="43.76304" lon="6.5466">
        <ele>973</ele>
        <time>2010-09-26T08:46:51Z</time>
      </trkpt>
      <trkpt lat="43.76316" lon="6.54661">
        <ele>974</ele>
        <time>2010-09-26T08:47:03Z</time>
      </trkpt>
      <trkpt lat="43.76328" lon="6.54668">
        <ele>977</ele>
        <time>2010-09-26T08:47:21Z</time>
      </trkpt>
      <trkpt lat="43.76344" lon="6.5468">
        <ele>980</ele>
        <time>2010-09-26T08:47:41Z</time>
      </trkpt>
      <trkpt lat="43.76348" lon="6.54682">
        <ele>982</ele>
        <time>2010-09-26T08:47:57Z</time>
      </trkpt>
      <trkpt lat="43.76364" lon="6.54691">
        <ele>985</ele>
        <time>2010-09-26T08:48:17Z</time>
      </trkpt>
      <trkpt lat="43.76377" lon="6.54688">
        <ele>988</ele>
        <time>2010-09-26T08:48:37Z</time>
      </trkpt>
      <trkpt lat="43.76385" lon="6.54694">
        <ele>990</ele>
        <time>2010-09-26T08:48:50Z</time>
      </trkpt>
      <trkpt lat="43.76382" lon="6.54699">
        <ele>992</ele>
        <time>2010-09-26T08:49:09Z</time>
      </trkpt>
      <trkpt lat="43.76376" lon="6.54704">
        <ele>995</ele>
        <time>2010-09-26T08:49:23Z</time>
      </trkpt>
      <trkpt lat="43.76372" lon="6.54715">
        <ele>998</ele>
        <time>2010-09-26T08:49:39Z</time>
      </trkpt>
      <trkpt lat="43.76372" lon="6.54715">
        <ele>998</ele>
        <time>2010-09-26T08:49:40Z</time>
      </trkpt>
      <trkpt lat="43.76365" lon="6.5472">
        <ele>1000</ele>
        <time>2010-09-26T08:49:56Z</time>
      </trkpt>
      <trkpt lat="43.76362" lon="6.54724">
        <ele>1002</ele>
        <time>2010-09-26T08:50:08Z</time>
      </trkpt>
      <trkpt lat="43.76356" lon="6.54732">
        <ele>1005</ele>
        <time>2010-09-26T08:50:29Z</time>
      </trkpt>
      <trkpt lat="43.76351" lon="6.54737">
        <ele>1008</ele>
        <time>2010-09-26T08:50:41Z</time>
      </trkpt>
      <trkpt lat="43.76344" lon="6.54743">
        <ele>1010</ele>
        <time>2010-09-26T08:50:52Z</time>
      </trkpt>
      <trkpt lat="43.76334" lon="6.54746">
        <ele>1011</ele>
        <time>2010-09-26T08:51:07Z</time>
      </trkpt>
      <trkpt lat="43.76328" lon="6.54748">
        <ele>1012</ele>
        <time>2010-09-26T08:51:14Z</time>
      </trkpt>
      <trkpt lat="43.76323" lon="6.54751">
        <ele>1012</ele>
        <time>2010-09-26T08:51:20Z</time>
      </trkpt>
      <trkpt lat="43.76317" lon="6.54761">
        <ele>1014</ele>
        <time>2010-09-26T08:51:33Z</time>
      </trkpt>
      <trkpt lat="43.76312" lon="6.54767">
        <ele>1015</ele>
        <time>2010-09-26T08:51:42Z</time>
      </trkpt>
      <trkpt lat="43.76307" lon="6.54777">
        <ele>1017</ele>
        <time>2010-09-26T08:51:55Z</time>
      </trkpt>
      <trkpt lat="43.76301" lon="6.54784">
        <ele>1020</ele>
        <time>2010-09-26T08:52:07Z</time>
      </trkpt>
      <trkpt lat="43.76298" lon="6.54786">
        <ele>1019</ele>
        <time>2010-09-26T08:52:14Z</time>
      </trkpt>
      <trkpt lat="43.76295" lon="6.54792">
        <ele>1021</ele>
        <time>2010-09-26T08:52:24Z</time>
      </trkpt>
      <trkpt lat="43.76291" lon="6.54798">
        <ele>1022</ele>
        <time>2010-09-26T08:52:35Z</time>
      </trkpt>
      <trkpt lat="43.76284" lon="6.54799">
        <ele>1023</ele>
        <time>2010-09-26T08:52:44Z</time>
      </trkpt>
      <trkpt lat="43.76275" lon="6.54804">
        <ele>1024</ele>
        <time>2010-09-26T08:52:56Z</time>
      </trkpt>
      <trkpt lat="43.76266" lon="6.54809">
        <ele>1025</ele>
        <time>2010-09-26T08:53:08Z</time>
      </trkpt>
      <trkpt lat="43.76258" lon="6.54813">
        <ele>1027</ele>
        <time>2010-09-26T08:53:19Z</time>
      </trkpt>
      <trkpt lat="43.76253" lon="6.54815">
        <ele>1028</ele>
        <time>2010-09-26T08:53:29Z</time>
      </trkpt>
      <trkpt lat="43.76249" lon="6.5482">
        <ele>1031</ele>
        <time>2010-09-26T08:53:39Z</time>
      </trkpt>
      <trkpt lat="43.76243" lon="6.54826">
        <ele>1033</ele>
        <time>2010-09-26T08:53:53Z</time>
      </trkpt>
      <trkpt lat="43.76233" lon="6.54831">
        <ele>1035</ele>
        <time>2010-09-26T08:54:05Z</time>
      </trkpt>
      <trkpt lat="43.76224" lon="6.54837">
        <ele>1035</ele>
        <time>2010-09-26T08:54:18Z</time>
      </trkpt>
      <trkpt lat="43.76223" lon="6.54838">
        <ele>1036</ele>
        <time>2010-09-26T08:54:22Z</time>
      </trkpt>
      <trkpt lat="43.76218" lon="6.54842">
        <ele>1038</ele>
        <time>2010-09-26T08:54:31Z</time>
      </trkpt>
      <trkpt lat="43.76207" lon="6.54845">
        <ele>1041</ele>
        <time>2010-09-26T08:54:50Z</time>
      </trkpt>
      <trkpt lat="43.76198" lon="6.5485">
        <ele>1042</ele>
        <time>2010-09-26T08:55:04Z</time>
      </trkpt>
      <trkpt lat="43.7619" lon="6.54853">
        <ele>1044</ele>
        <time>2010-09-26T08:55:15Z</time>
      </trkpt>
      <trkpt lat="43.76189" lon="6.54855">
        <ele>1043</ele>
        <time>2010-09-26T08:55:18Z</time>
      </trkpt>
      <trkpt lat="43.76187" lon="6.54861">
        <ele>1046</ele>
        <time>2010-09-26T08:55:25Z</time>
      </trkpt>
      <trkpt lat="43.76184" lon="6.5487">
        <ele>1047</ele>
        <time>2010-09-26T08:55:38Z</time>
      </trkpt>
      <trkpt lat="43.76184" lon="6.54884">
        <ele>1049</ele>
        <time>2010-09-26T08:55:52Z</time>
      </trkpt>
      <trkpt lat="43.76182" lon="6.54893">
        <ele>1050</ele>
        <time>2010-09-26T08:56:01Z</time>
      </trkpt>
      <trkpt lat="43.76179" lon="6.549">
        <ele>1050</ele>
        <time>2010-09-26T08:56:18Z</time>
      </trkpt>
      <trkpt lat="43.76179" lon="6.54899">
        <ele>1047</ele>
        <time>2010-09-26T08:56:49Z</time>
      </trkpt>
      <trkpt lat="43.76179" lon="6.54899">
        <ele>1050</ele>
        <time>2010-09-26T08:56:51Z</time>
      </trkpt>
      <trkpt lat="43.76179" lon="6.549">
        <ele>1049</ele>
        <time>2010-09-26T09:01:09Z</time>
      </trkpt>
      <trkpt lat="43.76179" lon="6.54906">
        <ele>1050</ele>
        <time>2010-09-26T09:01:12Z</time>
      </trkpt>
      <trkpt lat="43.76176" lon="6.54922">
        <ele>1050</ele>
        <time>2010-09-26T09:01:25Z</time>
      </trkpt>
      <trkpt lat="43.76174" lon="6.54932">
        <ele>1052</ele>
        <time>2010-09-26T09:01:36Z</time>
      </trkpt>
      <trkpt lat="43.76165" lon="6.5494">
        <ele>1053</ele>
        <time>2010-09-26T09:01:46Z</time>
      </trkpt>
      <trkpt lat="43.76161" lon="6.5494">
        <ele>1054</ele>
        <time>2010-09-26T09:01:49Z</time>
      </trkpt>
      <trkpt lat="43.76154" lon="6.54943">
        <ele>1054</ele>
        <time>2010-09-26T09:02:01Z</time>
      </trkpt>
      <trkpt lat="43.76145" lon="6.54941">
        <ele>1056</ele>
        <time>2010-09-26T09:02:10Z</time>
      </trkpt>
      <trkpt lat="43.76143" lon="6.54942">
        <ele>1055</ele>
        <time>2010-09-26T09:02:13Z</time>
      </trkpt>
      <trkpt lat="43.76137" lon="6.54942">
        <ele>1058</ele>
        <time>2010-09-26T09:02:25Z</time>
      </trkpt>
      <trkpt lat="43.76136" lon="6.54942">
        <ele>1058</ele>
        <time>2010-09-26T09:02:26Z</time>
      </trkpt>
      <trkpt lat="43.76129" lon="6.54945">
        <ele>1059</ele>
        <time>2010-09-26T09:02:37Z</time>
      </trkpt>
      <trkpt lat="43.76121" lon="6.54948">
        <ele>1061</ele>
        <time>2010-09-26T09:02:50Z</time>
      </trkpt>
      <trkpt lat="43.76113" lon="6.54948">
        <ele>1062</ele>
        <time>2010-09-26T09:02:59Z</time>
      </trkpt>
      <trkpt lat="43.76102" lon="6.54949">
        <ele>1064</ele>
        <time>2010-09-26T09:03:12Z</time>
      </trkpt>
      <trkpt lat="43.76092" lon="6.54951">
        <ele>1065</ele>
        <time>2010-09-26T09:03:22Z</time>
      </trkpt>
      <trkpt lat="43.76082" lon="6.54956">
        <ele>1066</ele>
        <time>2010-09-26T09:03:35Z</time>
      </trkpt>
      <trkpt lat="43.76076" lon="6.54961">
        <ele>1068</ele>
        <time>2010-09-26T09:03:46Z</time>
      </trkpt>
      <trkpt lat="43.76064" lon="6.54965">
        <ele>1068</ele>
        <time>2010-09-26T09:03:58Z</time>
      </trkpt>
      <trkpt lat="43.76055" lon="6.5497">
        <ele>1068</ele>
        <time>2010-09-26T09:04:09Z</time>
      </trkpt>
      <trkpt lat="43.76046" lon="6.54973">
        <ele>1069</ele>
        <time>2010-09-26T09:04:20Z</time>
      </trkpt>
      <trkpt lat="43.76042" lon="6.54974">
        <ele>1069</ele>
        <time>2010-09-26T09:04:23Z</time>
      </trkpt>
      <trkpt lat="43.76028" lon="6.54978">
        <ele>1069</ele>
        <time>2010-09-26T09:04:38Z</time>
      </trkpt>
      <trkpt lat="43.76021" lon="6.54982">
        <ele>1069</ele>
        <time>2010-09-26T09:04:48Z</time>
      </trkpt>
      <trkpt lat="43.76011" lon="6.54989">
        <ele>1070</ele>
        <time>2010-09-26T09:05:00Z</time>
      </trkpt>
      <trkpt lat="43.75997" lon="6.54989">
        <ele>1071</ele>
        <time>2010-09-26T09:05:16Z</time>
      </trkpt>
      <trkpt lat="43.75984" lon="6.54996">
        <ele>1072</ele>
        <time>2010-09-26T09:05:28Z</time>
      </trkpt>
      <trkpt lat="43.75968" lon="6.55006">
        <ele>1073</ele>
        <time>2010-09-26T09:05:46Z</time>
      </trkpt>
      <trkpt lat="43.75956" lon="6.55015">
        <ele>1073</ele>
        <time>2010-09-26T09:05:58Z</time>
      </trkpt>
      <trkpt lat="43.75948" lon="6.55014">
        <ele>1071</ele>
        <time>2010-09-26T09:06:09Z</time>
      </trkpt>
      <trkpt lat="43.75937" lon="6.55013">
        <ele>1069</ele>
        <time>2010-09-26T09:06:21Z</time>
      </trkpt>
      <trkpt lat="43.75928" lon="6.55012">
        <ele>1067</ele>
        <time>2010-09-26T09:06:31Z</time>
      </trkpt>
      <trkpt lat="43.75927" lon="6.55011">
        <ele>1066</ele>
        <time>2010-09-26T09:06:33Z</time>
      </trkpt>
      <trkpt lat="43.75919" lon="6.55011">
        <ele>1064</ele>
        <time>2010-09-26T09:06:43Z</time>
      </trkpt>
      <trkpt lat="43.75917" lon="6.55011">
        <ele>1064</ele>
        <time>2010-09-26T09:06:45Z</time>
      </trkpt>
      <trkpt lat="43.75911" lon="6.5501">
        <ele>1062</ele>
        <time>2010-09-26T09:06:57Z</time>
      </trkpt>
      <trkpt lat="43.75901" lon="6.55011">
        <ele>1060</ele>
        <time>2010-09-26T09:07:09Z</time>
      </trkpt>
      <trkpt lat="43.759" lon="6.5501">
        <ele>1060</ele>
        <time>2010-09-26T09:07:11Z</time>
      </trkpt>
      <trkpt lat="43.75886" lon="6.55005">
        <ele>1058</ele>
        <time>2010-09-26T09:07:23Z</time>
      </trkpt>
      <trkpt lat="43.75873" lon="6.54998">
        <ele>1056</ele>
        <time>2010-09-26T09:07:36Z</time>
      </trkpt>
      <trkpt lat="43.75863" lon="6.54994">
        <ele>1056</ele>
        <time>2010-09-26T09:07:47Z</time>
      </trkpt>
      <trkpt lat="43.75849" lon="6.5499">
        <ele>1056</ele>
        <time>2010-09-26T09:08:01Z</time>
      </trkpt>
      <trkpt lat="43.7584" lon="6.54994">
        <ele>1056</ele>
        <time>2010-09-26T09:08:11Z</time>
      </trkpt>
      <trkpt lat="43.75832" lon="6.5499">
        <ele>1056</ele>
        <time>2010-09-26T09:08:23Z</time>
      </trkpt>
      <trkpt lat="43.7583" lon="6.54989">
        <ele>1056</ele>
        <time>2010-09-26T09:08:25Z</time>
      </trkpt>
      <trkpt lat="43.7582" lon="6.54987">
        <ele>1056</ele>
        <time>2010-09-26T09:08:38Z</time>
      </trkpt>
      <trkpt lat="43.75815" lon="6.54987">
        <ele>1056</ele>
        <time>2010-09-26T09:08:50Z</time>
      </trkpt>
      <trkpt lat="43.75816" lon="6.54986">
        <ele>1056</ele>
        <time>2010-09-26T09:09:04Z</time>
      </trkpt>
      <trkpt lat="43.75816" lon="6.54986">
        <ele>1056</ele>
        <time>2010-09-26T09:09:12Z</time>
      </trkpt>
      <trkpt lat="43.75817" lon="6.54989">
        <ele>1056</ele>
        <time>2010-09-26T09:09:26Z</time>
      </trkpt>
      <trkpt lat="43.75817" lon="6.54989">
        <ele>1052</ele>
        <time>2010-09-26T09:09:31Z</time>
      </trkpt>
      <trkpt lat="43.75817" lon="6.54989">
        <ele>1056</ele>
        <time>2010-09-26T09:09:32Z</time>
      </trkpt>
      <trkpt lat="43.75817" lon="6.5499">
        <ele>1056</ele>
        <time>2010-09-26T09:10:18Z</time>
      </trkpt>
      <trkpt lat="43.75821" lon="6.54999">
        <ele>1054</ele>
        <time>2010-09-26T09:10:30Z</time>
      </trkpt>
      <trkpt lat="43.75823" lon="6.55009">
        <ele>1052</ele>
        <time>2010-09-26T09:10:45Z</time>
      </trkpt>
      <trkpt lat="43.75823" lon="6.55011">
        <ele>1052</ele>
        <time>2010-09-26T09:10:46Z</time>
      </trkpt>
      <trkpt lat="43.75825" lon="6.55015">
        <ele>1051</ele>
        <time>2010-09-26T09:10:49Z</time>
      </trkpt>
      <trkpt lat="43.7583" lon="6.55025">
        <ele>1049</ele>
        <time>2010-09-26T09:10:58Z</time>
      </trkpt>
      <trkpt lat="43.75836" lon="6.5503">
        <ele>1048</ele>
        <time>2010-09-26T09:11:06Z</time>
      </trkpt>
      <trkpt lat="43.75846" lon="6.55031">
        <ele>1047</ele>
        <time>2010-09-26T09:11:14Z</time>
      </trkpt>
      <trkpt lat="43.75856" lon="6.55047">
        <ele>1046</ele>
        <time>2010-09-26T09:11:29Z</time>
      </trkpt>
      <trkpt lat="43.75865" lon="6.55055">
        <ele>1045</ele>
        <time>2010-09-26T09:11:40Z</time>
      </trkpt>
      <trkpt lat="43.75875" lon="6.55063">
        <ele>1043</ele>
        <time>2010-09-26T09:11:53Z</time>
      </trkpt>
      <trkpt lat="43.75879" lon="6.55063">
        <ele>1043</ele>
        <time>2010-09-26T09:11:56Z</time>
      </trkpt>
      <trkpt lat="43.75885" lon="6.55069">
        <ele>1042</ele>
        <time>2010-09-26T09:12:10Z</time>
      </trkpt>
      <trkpt lat="43.75884" lon="6.5507">
        <ele>1042</ele>
        <time>2010-09-26T09:12:12Z</time>
      </trkpt>
      <trkpt lat="43.75885" lon="6.55085">
        <ele>1042</ele>
        <time>2010-09-26T09:12:25Z</time>
      </trkpt>
      <trkpt lat="43.75888" lon="6.55099">
        <ele>1039</ele>
        <time>2010-09-26T09:12:35Z</time>
      </trkpt>
      <trkpt lat="43.7589" lon="6.55105">
        <ele>1039</ele>
        <time>2010-09-26T09:12:40Z</time>
      </trkpt>
      <trkpt lat="43.75893" lon="6.55114">
        <ele>1037</ele>
        <time>2010-09-26T09:12:47Z</time>
      </trkpt>
      <trkpt lat="43.75899" lon="6.55123">
        <ele>1035</ele>
        <time>2010-09-26T09:12:54Z</time>
      </trkpt>
      <trkpt lat="43.75902" lon="6.55133">
        <ele>1034</ele>
        <time>2010-09-26T09:13:02Z</time>
      </trkpt>
      <trkpt lat="43.75903" lon="6.55143">
        <ele>1032</ele>
        <time>2010-09-26T09:13:08Z</time>
      </trkpt>
      <trkpt lat="43.75904" lon="6.55147">
        <ele>1032</ele>
        <time>2010-09-26T09:13:11Z</time>
      </trkpt>
      <trkpt lat="43.75902" lon="6.55161">
        <ele>1029</ele>
        <time>2010-09-26T09:13:21Z</time>
      </trkpt>
      <trkpt lat="43.75903" lon="6.55188">
        <ele>1028</ele>
        <time>2010-09-26T09:13:36Z</time>
      </trkpt>
      <trkpt lat="43.75904" lon="6.55207">
        <ele>1025</ele>
        <time>2010-09-26T09:13:48Z</time>
      </trkpt>
      <trkpt lat="43.75906" lon="6.55221">
        <ele>1023</ele>
        <time>2010-09-26T09:13:59Z</time>
      </trkpt>
      <trkpt lat="43.75906" lon="6.55238">
        <ele>1021</ele>
        <time>2010-09-26T09:14:11Z</time>
      </trkpt>
      <trkpt lat="43.75906" lon="6.55238">
        <ele>1020</ele>
        <time>2010-09-26T09:14:13Z</time>
      </trkpt>
      <trkpt lat="43.75907" lon="6.55256">
        <ele>1020</ele>
        <time>2010-09-26T09:14:21Z</time>
      </trkpt>
      <trkpt lat="43.75903" lon="6.55268">
        <ele>1018</ele>
        <time>2010-09-26T09:14:28Z</time>
      </trkpt>
      <trkpt lat="43.75905" lon="6.55288">
        <ele>1018</ele>
        <time>2010-09-26T09:14:42Z</time>
      </trkpt>
      <trkpt lat="43.75901" lon="6.55297">
        <ele>1017</ele>
        <time>2010-09-26T09:14:52Z</time>
      </trkpt>
      <trkpt lat="43.759" lon="6.55303">
        <ele>1017</ele>
        <time>2010-09-26T09:14:57Z</time>
      </trkpt>
      <trkpt lat="43.75897" lon="6.55315">
        <ele>1016</ele>
        <time>2010-09-26T09:15:06Z</time>
      </trkpt>
      <trkpt lat="43.75898" lon="6.5534">
        <ele>1017</ele>
        <time>2010-09-26T09:15:21Z</time>
      </trkpt>
      <trkpt lat="43.75895" lon="6.55367">
        <ele>1014</ele>
        <time>2010-09-26T09:15:37Z</time>
      </trkpt>
      <trkpt lat="43.75892" lon="6.55396">
        <ele>1013</ele>
        <time>2010-09-26T09:15:52Z</time>
      </trkpt>
      <trkpt lat="43.75891" lon="6.55408">
        <ele>1012</ele>
        <time>2010-09-26T09:16:00Z</time>
      </trkpt>
      <trkpt lat="43.75887" lon="6.55432">
        <ele>1011</ele>
        <time>2010-09-26T09:16:14Z</time>
      </trkpt>
      <trkpt lat="43.75886" lon="6.55438">
        <ele>1010</ele>
        <time>2010-09-26T09:16:18Z</time>
      </trkpt>
      <trkpt lat="43.7589" lon="6.55458">
        <ele>1010</ele>
        <time>2010-09-26T09:16:32Z</time>
      </trkpt>
      <trkpt lat="43.75891" lon="6.55475">
        <ele>1007</ele>
        <time>2010-09-26T09:16:45Z</time>
      </trkpt>
      <trkpt lat="43.75882" lon="6.55486">
        <ele>1006</ele>
        <time>2010-09-26T09:16:57Z</time>
      </trkpt>
      <trkpt lat="43.75884" lon="6.55496">
        <ele>1005</ele>
        <time>2010-09-26T09:17:08Z</time>
      </trkpt>
      <trkpt lat="43.75885" lon="6.55497">
        <ele>1005</ele>
        <time>2010-09-26T09:17:38Z</time>
      </trkpt>
      <trkpt lat="43.75885" lon="6.55498">
        <ele>1004</ele>
        <time>2010-09-26T09:17:47Z</time>
      </trkpt>
      <trkpt lat="43.75884" lon="6.55499">
        <ele>1005</ele>
        <time>2010-09-26T09:18:01Z</time>
      </trkpt>
      <trkpt lat="43.75883" lon="6.55499">
        <ele>1005</ele>
        <time>2010-09-26T09:18:25Z</time>
      </trkpt>
      <trkpt lat="43.75886" lon="6.55501">
        <ele>1004</ele>
        <time>2010-09-26T09:18:33Z</time>
      </trkpt>
      <trkpt lat="43.75889" lon="6.55507">
        <ele>1003</ele>
        <time>2010-09-26T09:18:38Z</time>
      </trkpt>
      <trkpt lat="43.75891" lon="6.55516">
        <ele>1002</ele>
        <time>2010-09-26T09:18:45Z</time>
      </trkpt>
      <trkpt lat="43.75898" lon="6.55533">
        <ele>998</ele>
        <time>2010-09-26T09:18:58Z</time>
      </trkpt>
      <trkpt lat="43.75902" lon="6.55549">
        <ele>996</ele>
        <time>2010-09-26T09:19:09Z</time>
      </trkpt>
      <trkpt lat="43.75908" lon="6.55563">
        <ele>993</ele>
        <time>2010-09-26T09:19:20Z</time>
      </trkpt>
      <trkpt lat="43.75908" lon="6.55564">
        <ele>993</ele>
        <time>2010-09-26T09:19:21Z</time>
      </trkpt>
      <trkpt lat="43.75914" lon="6.55579">
        <ele>992</ele>
        <time>2010-09-26T09:19:32Z</time>
      </trkpt>
      <trkpt lat="43.75919" lon="6.55592">
        <ele>989</ele>
        <time>2010-09-26T09:19:44Z</time>
      </trkpt>
      <trkpt lat="43.75922" lon="6.55608">
        <ele>987</ele>
        <time>2010-09-26T09:19:57Z</time>
      </trkpt>
      <trkpt lat="43.75923" lon="6.55621">
        <ele>985</ele>
        <time>2010-09-26T09:20:05Z</time>
      </trkpt>
      <trkpt lat="43.75925" lon="6.5563">
        <ele>982</ele>
        <time>2010-09-26T09:20:12Z</time>
      </trkpt>
      <trkpt lat="43.7593" lon="6.55646">
        <ele>979</ele>
        <time>2010-09-26T09:20:24Z</time>
      </trkpt>
      <trkpt lat="43.75933" lon="6.55651">
        <ele>982</ele>
        <time>2010-09-26T09:20:28Z</time>
      </trkpt>
      <trkpt lat="43.75934" lon="6.55663">
        <ele>979</ele>
        <time>2010-09-26T09:20:36Z</time>
      </trkpt>
      <trkpt lat="43.75934" lon="6.55666">
        <ele>978</ele>
        <time>2010-09-26T09:20:38Z</time>
      </trkpt>
      <trkpt lat="43.75938" lon="6.55682">
        <ele>976</ele>
        <time>2010-09-26T09:20:51Z</time>
      </trkpt>
      <trkpt lat="43.7594" lon="6.55687">
        <ele>975</ele>
        <time>2010-09-26T09:20:56Z</time>
      </trkpt>
      <trkpt lat="43.75941" lon="6.55693">
        <ele>974</ele>
        <time>2010-09-26T09:21:01Z</time>
      </trkpt>
      <trkpt lat="43.7594" lon="6.55704">
        <ele>974</ele>
        <time>2010-09-26T09:21:09Z</time>
      </trkpt>
      <trkpt lat="43.75939" lon="6.5572">
        <ele>971</ele>
        <time>2010-09-26T09:21:24Z</time>
      </trkpt>
      <trkpt lat="43.75937" lon="6.55734">
        <ele>970</ele>
        <time>2010-09-26T09:21:36Z</time>
      </trkpt>
      <trkpt lat="43.75938" lon="6.55756">
        <ele>966</ele>
        <time>2010-09-26T09:21:53Z</time>
      </trkpt>
      <trkpt lat="43.75943" lon="6.55768">
        <ele>966</ele>
        <time>2010-09-26T09:22:03Z</time>
      </trkpt>
      <trkpt lat="43.75944" lon="6.55776">
        <ele>965</ele>
        <time>2010-09-26T09:22:09Z</time>
      </trkpt>
      <trkpt lat="43.7595" lon="6.55787">
        <ele>963</ele>
        <time>2010-09-26T09:22:17Z</time>
      </trkpt>
      <trkpt lat="43.75951" lon="6.55788">
        <ele>963</ele>
        <time>2010-09-26T09:22:18Z</time>
      </trkpt>
      <trkpt lat="43.75958" lon="6.558">
        <ele>961</ele>
        <time>2010-09-26T09:22:30Z</time>
      </trkpt>
      <trkpt lat="43.75965" lon="6.55816">
        <ele>960</ele>
        <time>2010-09-26T09:22:43Z</time>
      </trkpt>
      <trkpt lat="43.75966" lon="6.55824">
        <ele>958</ele>
        <time>2010-09-26T09:22:57Z</time>
      </trkpt>
      <trkpt lat="43.75966" lon="6.55824">
        <ele>961</ele>
        <time>2010-09-26T09:23:06Z</time>
      </trkpt>
      <trkpt lat="43.75968" lon="6.55836">
        <ele>957</ele>
        <time>2010-09-26T09:23:13Z</time>
      </trkpt>
      <trkpt lat="43.75974" lon="6.55834">
        <ele>956</ele>
        <time>2010-09-26T09:23:21Z</time>
      </trkpt>
      <trkpt lat="43.75977" lon="6.55822">
        <ele>952</ele>
        <time>2010-09-26T09:23:31Z</time>
      </trkpt>
      <trkpt lat="43.75984" lon="6.55816">
        <ele>953</ele>
        <time>2010-09-26T09:23:45Z</time>
      </trkpt>
      <trkpt lat="43.75984" lon="6.55816">
        <ele>952</ele>
        <time>2010-09-26T09:23:47Z</time>
      </trkpt>
      <trkpt lat="43.75988" lon="6.5581">
        <ele>955</ele>
        <time>2010-09-26T09:23:51Z</time>
      </trkpt>
      <trkpt lat="43.75994" lon="6.55797">
        <ele>950</ele>
        <time>2010-09-26T09:24:00Z</time>
      </trkpt>
      <trkpt lat="43.75995" lon="6.55796">
        <ele>951</ele>
        <time>2010-09-26T09:24:01Z</time>
      </trkpt>
      <trkpt lat="43.75997" lon="6.55792">
        <ele>956</ele>
        <time>2010-09-26T09:24:05Z</time>
      </trkpt>
      <trkpt lat="43.75998" lon="6.5579">
        <ele>951</ele>
        <time>2010-09-26T09:24:06Z</time>
      </trkpt>
      <trkpt lat="43.76" lon="6.55787">
        <ele>953</ele>
        <time>2010-09-26T09:24:09Z</time>
      </trkpt>
      <trkpt lat="43.76004" lon="6.55776">
        <ele>957</ele>
        <time>2010-09-26T09:24:17Z</time>
      </trkpt>
      <trkpt lat="43.76004" lon="6.55775">
        <ele>957</ele>
        <time>2010-09-26T09:24:18Z</time>
      </trkpt>
      <trkpt lat="43.76006" lon="6.55772">
        <ele>953</ele>
        <time>2010-09-26T09:24:20Z</time>
      </trkpt>
      <trkpt lat="43.76007" lon="6.55771">
        <ele>955</ele>
        <time>2010-09-26T09:24:21Z</time>
      </trkpt>
      <trkpt lat="43.76011" lon="6.55768">
        <ele>954</ele>
        <time>2010-09-26T09:24:27Z</time>
      </trkpt>
      <trkpt lat="43.76012" lon="6.55769">
        <ele>953</ele>
        <time>2010-09-26T09:24:29Z</time>
      </trkpt>
      <trkpt lat="43.76022" lon="6.55779">
        <ele>952</ele>
        <time>2010-09-26T09:24:38Z</time>
      </trkpt>
      <trkpt lat="43.76027" lon="6.55783">
        <ele>953</ele>
        <time>2010-09-26T09:24:43Z</time>
      </trkpt>
      <trkpt lat="43.76031" lon="6.55786">
        <ele>952</ele>
        <time>2010-09-26T09:24:58Z</time>
      </trkpt>
      <trkpt lat="43.7604" lon="6.55795">
        <ele>951</ele>
        <time>2010-09-26T09:25:10Z</time>
      </trkpt>
      <trkpt lat="43.76044" lon="6.55799">
        <ele>952</ele>
        <time>2010-09-26T09:25:16Z</time>
      </trkpt>
      <trkpt lat="43.76049" lon="6.55804">
        <ele>950</ele>
        <time>2010-09-26T09:25:20Z</time>
      </trkpt>
      <trkpt lat="43.76054" lon="6.5581">
        <ele>952</ele>
        <time>2010-09-26T09:25:25Z</time>
      </trkpt>
      <trkpt lat="43.76063" lon="6.55818">
        <ele>949</ele>
        <time>2010-09-26T09:25:32Z</time>
      </trkpt>
      <trkpt lat="43.76068" lon="6.55825">
        <ele>950</ele>
        <time>2010-09-26T09:25:36Z</time>
      </trkpt>
      <trkpt lat="43.76075" lon="6.55833">
        <ele>948</ele>
        <time>2010-09-26T09:25:42Z</time>
      </trkpt>
      <trkpt lat="43.76085" lon="6.55849">
        <ele>947</ele>
        <time>2010-09-26T09:25:56Z</time>
      </trkpt>
      <trkpt lat="43.76091" lon="6.55856">
        <ele>947</ele>
        <time>2010-09-26T09:26:04Z</time>
      </trkpt>
      <trkpt lat="43.76101" lon="6.55867">
        <ele>945</ele>
        <time>2010-09-26T09:26:18Z</time>
      </trkpt>
      <trkpt lat="43.7611" lon="6.55876">
        <ele>948</ele>
        <time>2010-09-26T09:26:27Z</time>
      </trkpt>
      <trkpt lat="43.76111" lon="6.55877">
        <ele>948</ele>
        <time>2010-09-26T09:26:28Z</time>
      </trkpt>
      <trkpt lat="43.76121" lon="6.55883">
        <ele>948</ele>
        <time>2010-09-26T09:26:38Z</time>
      </trkpt>
      <trkpt lat="43.76123" lon="6.55886">
        <ele>949</ele>
        <time>2010-09-26T09:26:40Z</time>
      </trkpt>
      <trkpt lat="43.76133" lon="6.55898">
        <ele>945</ele>
        <time>2010-09-26T09:26:50Z</time>
      </trkpt>
      <trkpt lat="43.76134" lon="6.55899">
        <ele>948</ele>
        <time>2010-09-26T09:26:51Z</time>
      </trkpt>
      <trkpt lat="43.7613" lon="6.55902">
        <ele>943</ele>
        <time>2010-09-26T09:26:54Z</time>
      </trkpt>
      <trkpt lat="43.76128" lon="6.55901">
        <ele>947</ele>
        <time>2010-09-26T09:26:55Z</time>
      </trkpt>
      <trkpt lat="43.76125" lon="6.55903">
        <ele>949</ele>
        <time>2010-09-26T09:26:58Z</time>
      </trkpt>
      <trkpt lat="43.76123" lon="6.55905">
        <ele>944</ele>
        <time>2010-09-26T09:27:00Z</time>
      </trkpt>
      <trkpt lat="43.76122" lon="6.55906">
        <ele>948</ele>
        <time>2010-09-26T09:27:01Z</time>
      </trkpt>
      <trkpt lat="43.7612" lon="6.55906">
        <ele>948</ele>
        <time>2010-09-26T09:27:03Z</time>
      </trkpt>
      <trkpt lat="43.76115" lon="6.55911">
        <ele>951</ele>
        <time>2010-09-26T09:27:08Z</time>
      </trkpt>
      <trkpt lat="43.76115" lon="6.55913">
        <ele>947</ele>
        <time>2010-09-26T09:27:09Z</time>
      </trkpt>
      <trkpt lat="43.76115" lon="6.55914">
        <ele>951</ele>
        <time>2010-09-26T09:27:10Z</time>
      </trkpt>
      <trkpt lat="43.76116" lon="6.55919">
        <ele>949</ele>
        <time>2010-09-26T09:27:14Z</time>
      </trkpt>
      <trkpt lat="43.76115" lon="6.55922">
        <ele>945</ele>
        <time>2010-09-26T09:27:32Z</time>
      </trkpt>
      <trkpt lat="43.76115" lon="6.55922">
        <ele>950</ele>
        <time>2010-09-26T09:27:33Z</time>
      </trkpt>
      <trkpt lat="43.76115" lon="6.55922">
        <ele>949</ele>
        <time>2010-09-26T09:27:34Z</time>
      </trkpt>
      <trkpt lat="43.76115" lon="6.55922">
        <ele>951</ele>
        <time>2010-09-26T09:27:41Z</time>
      </trkpt>
      <trkpt lat="43.76115" lon="6.55922">
        <ele>947</ele>
        <time>2010-09-26T09:27:44Z</time>
      </trkpt>
      <trkpt lat="43.76115" lon="6.55922">
        <ele>953</ele>
        <time>2010-09-26T09:27:45Z</time>
      </trkpt>
      <trkpt lat="43.76115" lon="6.55922">
        <ele>948</ele>
        <time>2010-09-26T09:27:46Z</time>
      </trkpt>
      <trkpt lat="43.76115" lon="6.55922">
        <ele>951</ele>
        <time>2010-09-26T09:27:54Z</time>
      </trkpt>
      <trkpt lat="43.76115" lon="6.55922">
        <ele>948</ele>
        <time>2010-09-26T09:27:57Z</time>
      </trkpt>
      <trkpt lat="43.76116" lon="6.55922">
        <ele>952</ele>
        <time>2010-09-26T09:28:08Z</time>
      </trkpt>
      <trkpt lat="43.76116" lon="6.55922">
        <ele>948</ele>
        <time>2010-09-26T09:28:09Z</time>
      </trkpt>
      <trkpt lat="43.76116" lon="6.55922">
        <ele>950</ele>
        <time>2010-09-26T09:28:10Z</time>
      </trkpt>
      <trkpt lat="43.76112" lon="6.55926">
        <ele>949</ele>
        <time>2010-09-26T09:28:45Z</time>
      </trkpt>
      <trkpt lat="43.76115" lon="6.55934">
        <ele>949</ele>
        <time>2010-09-26T09:29:28Z</time>
      </trkpt>
      <trkpt lat="43.76114" lon="6.55941">
        <ele>948</ele>
        <time>2010-09-26T09:29:35Z</time>
      </trkpt>
      <trkpt lat="43.76112" lon="6.55949">
        <ele>948</ele>
        <time>2010-09-26T09:29:41Z</time>
      </trkpt>
      <trkpt lat="43.76115" lon="6.55964">
        <ele>948</ele>
        <time>2010-09-26T09:29:57Z</time>
      </trkpt>
      <trkpt lat="43.76117" lon="6.55969">
        <ele>947</ele>
        <time>2010-09-26T09:30:02Z</time>
      </trkpt>
      <trkpt lat="43.76114" lon="6.55981">
        <ele>946</ele>
        <time>2010-09-26T09:30:13Z</time>
      </trkpt>
      <trkpt lat="43.76114" lon="6.55982">
        <ele>944</ele>
        <time>2010-09-26T09:30:14Z</time>
      </trkpt>
      <trkpt lat="43.76115" lon="6.55993">
        <ele>945</ele>
        <time>2010-09-26T09:30:20Z</time>
      </trkpt>
      <trkpt lat="43.7611" lon="6.55998">
        <ele>944</ele>
        <time>2010-09-26T09:30:28Z</time>
      </trkpt>
      <trkpt lat="43.76108" lon="6.56005">
        <ele>943</ele>
        <time>2010-09-26T09:30:37Z</time>
      </trkpt>
      <trkpt lat="43.76108" lon="6.56008">
        <ele>943</ele>
        <time>2010-09-26T09:30:39Z</time>
      </trkpt>
      <trkpt lat="43.76108" lon="6.56013">
        <ele>942</ele>
        <time>2010-09-26T09:30:51Z</time>
      </trkpt>
      <trkpt lat="43.76109" lon="6.56025">
        <ele>943</ele>
        <time>2010-09-26T09:31:00Z</time>
      </trkpt>
      <trkpt lat="43.7611" lon="6.56041">
        <ele>940</ele>
        <time>2010-09-26T09:31:12Z</time>
      </trkpt>
      <trkpt lat="43.76113" lon="6.56052">
        <ele>938</ele>
        <time>2010-09-26T09:31:20Z</time>
      </trkpt>
      <trkpt lat="43.76113" lon="6.56056">
        <ele>940</ele>
        <time>2010-09-26T09:31:23Z</time>
      </trkpt>
      <trkpt lat="43.76109" lon="6.56059">
        <ele>946</ele>
        <time>2010-09-26T09:31:28Z</time>
      </trkpt>
      <trkpt lat="43.76109" lon="6.56059">
        <ele>940</ele>
        <time>2010-09-26T09:31:29Z</time>
      </trkpt>
      <trkpt lat="43.76109" lon="6.56059">
        <ele>938</ele>
        <time>2010-09-26T09:31:36Z</time>
      </trkpt>
      <trkpt lat="43.76109" lon="6.56059">
        <ele>939</ele>
        <time>2010-09-26T09:31:38Z</time>
      </trkpt>
      <trkpt lat="43.76109" lon="6.56059">
        <ele>935</ele>
        <time>2010-09-26T09:31:39Z</time>
      </trkpt>
      <trkpt lat="43.76109" lon="6.56059">
        <ele>936</ele>
        <time>2010-09-26T09:31:40Z</time>
      </trkpt>
      <trkpt lat="43.76109" lon="6.56059">
        <ele>938</ele>
        <time>2010-09-26T09:31:42Z</time>
      </trkpt>
      <trkpt lat="43.7611" lon="6.56064">
        <ele>938</ele>
        <time>2010-09-26T09:32:02Z</time>
      </trkpt>
      <trkpt lat="43.76113" lon="6.56063">
        <ele>938</ele>
        <time>2010-09-26T09:32:18Z</time>
      </trkpt>
      <trkpt lat="43.76114" lon="6.56063">
        <ele>937</ele>
        <time>2010-09-26T09:32:26Z</time>
      </trkpt>
      <trkpt lat="43.76117" lon="6.56068">
        <ele>937</ele>
        <time>2010-09-26T09:32:30Z</time>
      </trkpt>
      <trkpt lat="43.76118" lon="6.56075">
        <ele>937</ele>
        <time>2010-09-26T09:32:50Z</time>
      </trkpt>
      <trkpt lat="43.76128" lon="6.5607">
        <ele>937</ele>
        <time>2010-09-26T09:33:22Z</time>
      </trkpt>
      <trkpt lat="43.76131" lon="6.56065">
        <ele>936</ele>
        <time>2010-09-26T09:34:05Z</time>
      </trkpt>
      <trkpt lat="43.76126" lon="6.56067">
        <ele>938</ele>
        <time>2010-09-26T09:35:55Z</time>
      </trkpt>
      <trkpt lat="43.76123" lon="6.56063">
        <ele>939</ele>
        <time>2010-09-26T09:38:09Z</time>
      </trkpt>
      <trkpt lat="43.76118" lon="6.56057">
        <ele>937</ele>
        <time>2010-09-26T09:38:16Z</time>
      </trkpt>
      <trkpt lat="43.76115" lon="6.56051">
        <ele>940</ele>
        <time>2010-09-26T09:38:21Z</time>
      </trkpt>
      <trkpt lat="43.76113" lon="6.56046">
        <ele>941</ele>
        <time>2010-09-26T09:38:31Z</time>
      </trkpt>
      <trkpt lat="43.76113" lon="6.56045">
        <ele>937</ele>
        <time>2010-09-26T09:38:33Z</time>
      </trkpt>
      <trkpt lat="43.76114" lon="6.56044">
        <ele>941</ele>
        <time>2010-09-26T09:38:34Z</time>
      </trkpt>
      <trkpt lat="43.76114" lon="6.56036">
        <ele>943</ele>
        <time>2010-09-26T09:38:41Z</time>
      </trkpt>
      <trkpt lat="43.76114" lon="6.56035">
        <ele>940</ele>
        <time>2010-09-26T09:38:42Z</time>
      </trkpt>
      <trkpt lat="43.76114" lon="6.56035">
        <ele>941</ele>
        <time>2010-09-26T09:38:43Z</time>
      </trkpt>
      <trkpt lat="43.76114" lon="6.56031">
        <ele>939</ele>
        <time>2010-09-26T09:38:45Z</time>
      </trkpt>
      <trkpt lat="43.76114" lon="6.56028">
        <ele>944</ele>
        <time>2010-09-26T09:38:47Z</time>
      </trkpt>
      <trkpt lat="43.76114" lon="6.56027">
        <ele>940</ele>
        <time>2010-09-26T09:38:49Z</time>
      </trkpt>
      <trkpt lat="43.76114" lon="6.56027">
        <ele>944</ele>
        <time>2010-09-26T09:38:50Z</time>
      </trkpt>
      <trkpt lat="43.76113" lon="6.56019">
        <ele>944</ele>
        <time>2010-09-26T09:38:54Z</time>
      </trkpt>
      <trkpt lat="43.76112" lon="6.56013">
        <ele>943</ele>
        <time>2010-09-26T09:38:59Z</time>
      </trkpt>
      <trkpt lat="43.76113" lon="6.56004">
        <ele>947</ele>
        <time>2010-09-26T09:39:06Z</time>
      </trkpt>
      <trkpt lat="43.76114" lon="6.56001">
        <ele>944</ele>
        <time>2010-09-26T09:39:08Z</time>
      </trkpt>
      <trkpt lat="43.76115" lon="6.55999">
        <ele>946</ele>
        <time>2010-09-26T09:39:12Z</time>
      </trkpt>
      <trkpt lat="43.76119" lon="6.55988">
        <ele>947</ele>
        <time>2010-09-26T09:39:22Z</time>
      </trkpt>
      <trkpt lat="43.76121" lon="6.55974">
        <ele>945</ele>
        <time>2010-09-26T09:39:33Z</time>
      </trkpt>
      <trkpt lat="43.76121" lon="6.55973">
        <ele>948</ele>
        <time>2010-09-26T09:39:35Z</time>
      </trkpt>
      <trkpt lat="43.76121" lon="6.55961">
        <ele>948</ele>
        <time>2010-09-26T09:39:46Z</time>
      </trkpt>
      <trkpt lat="43.76122" lon="6.55947">
        <ele>947</ele>
        <time>2010-09-26T09:39:57Z</time>
      </trkpt>
      <trkpt lat="43.76122" lon="6.55944">
        <ele>951</ele>
        <time>2010-09-26T09:39:59Z</time>
      </trkpt>
      <trkpt lat="43.76122" lon="6.55942">
        <ele>950</ele>
        <time>2010-09-26T09:40:00Z</time>
      </trkpt>
      <trkpt lat="43.76122" lon="6.55939">
        <ele>949</ele>
        <time>2010-09-26T09:40:02Z</time>
      </trkpt>
      <trkpt lat="43.76123" lon="6.55935">
        <ele>951</ele>
        <time>2010-09-26T09:40:04Z</time>
      </trkpt>
      <trkpt lat="43.76123" lon="6.55932">
        <ele>948</ele>
        <time>2010-09-26T09:40:06Z</time>
      </trkpt>
      <trkpt lat="43.76123" lon="6.55921">
        <ele>951</ele>
        <time>2010-09-26T09:40:14Z</time>
      </trkpt>
      <trkpt lat="43.76124" lon="6.55917">
        <ele>948</ele>
        <time>2010-09-26T09:40:18Z</time>
      </trkpt>
      <trkpt lat="43.76126" lon="6.55907">
        <ele>948</ele>
        <time>2010-09-26T09:40:26Z</time>
      </trkpt>
      <trkpt lat="43.76128" lon="6.55901">
        <ele>947</ele>
        <time>2010-09-26T09:40:32Z</time>
      </trkpt>
      <trkpt lat="43.76131" lon="6.55895">
        <ele>946</ele>
        <time>2010-09-26T09:40:38Z</time>
      </trkpt>
      <trkpt lat="43.76125" lon="6.55883">
        <ele>947</ele>
        <time>2010-09-26T09:40:51Z</time>
      </trkpt>
      <trkpt lat="43.76118" lon="6.55874">
        <ele>945</ele>
        <time>2010-09-26T09:40:57Z</time>
      </trkpt>
      <trkpt lat="43.76113" lon="6.55868">
        <ele>947</ele>
        <time>2010-09-26T09:41:03Z</time>
      </trkpt>
      <trkpt lat="43.76104" lon="6.55858">
        <ele>946</ele>
        <time>2010-09-26T09:41:13Z</time>
      </trkpt>
      <trkpt lat="43.76102" lon="6.55854">
        <ele>948</ele>
        <time>2010-09-26T09:41:16Z</time>
      </trkpt>
      <trkpt lat="43.761" lon="6.55852">
        <ele>946</ele>
        <time>2010-09-26T09:41:18Z</time>
      </trkpt>
      <trkpt lat="43.76097" lon="6.5585">
        <ele>948</ele>
        <time>2010-09-26T09:41:21Z</time>
      </trkpt>
      <trkpt lat="43.76092" lon="6.55843">
        <ele>949</ele>
        <time>2010-09-26T09:41:29Z</time>
      </trkpt>
      <trkpt lat="43.76092" lon="6.55842">
        <ele>947</ele>
        <time>2010-09-26T09:41:31Z</time>
      </trkpt>
      <trkpt lat="43.76092" lon="6.55842">
        <ele>948</ele>
        <time>2010-09-26T09:41:33Z</time>
      </trkpt>
      <trkpt lat="43.76087" lon="6.55837">
        <ele>947</ele>
        <time>2010-09-26T09:41:43Z</time>
      </trkpt>
      <trkpt lat="43.76079" lon="6.5583">
        <ele>950</ele>
        <time>2010-09-26T09:41:54Z</time>
      </trkpt>
      <trkpt lat="43.76077" lon="6.55826">
        <ele>948</ele>
        <time>2010-09-26T09:41:57Z</time>
      </trkpt>
      <trkpt lat="43.76073" lon="6.55823">
        <ele>950</ele>
        <time>2010-09-26T09:42:02Z</time>
      </trkpt>
      <trkpt lat="43.7607" lon="6.55819">
        <ele>950</ele>
        <time>2010-09-26T09:42:05Z</time>
      </trkpt>
      <trkpt lat="43.76061" lon="6.55812">
        <ele>950</ele>
        <time>2010-09-26T09:42:17Z</time>
      </trkpt>
      <trkpt lat="43.76057" lon="6.55809">
        <ele>949</ele>
        <time>2010-09-26T09:42:21Z</time>
      </trkpt>
      <trkpt lat="43.76051" lon="6.55801">
        <ele>952</ele>
        <time>2010-09-26T09:42:29Z</time>
      </trkpt>
      <trkpt lat="43.76049" lon="6.55798">
        <ele>950</ele>
        <time>2010-09-26T09:42:32Z</time>
      </trkpt>
      <trkpt lat="43.76042" lon="6.55793">
        <ele>952</ele>
        <time>2010-09-26T09:42:40Z</time>
      </trkpt>
      <trkpt lat="43.76034" lon="6.55785">
        <ele>953</ele>
        <time>2010-09-26T09:42:50Z</time>
      </trkpt>
      <trkpt lat="43.76027" lon="6.55779">
        <ele>952</ele>
        <time>2010-09-26T09:43:01Z</time>
      </trkpt>
      <trkpt lat="43.76021" lon="6.55772">
        <ele>954</ele>
        <time>2010-09-26T09:43:10Z</time>
      </trkpt>
      <trkpt lat="43.76016" lon="6.55766">
        <ele>953</ele>
        <time>2010-09-26T09:43:17Z</time>
      </trkpt>
      <trkpt lat="43.7601" lon="6.55767">
        <ele>954</ele>
        <time>2010-09-26T09:43:22Z</time>
      </trkpt>
      <trkpt lat="43.76003" lon="6.55774">
        <ele>952</ele>
        <time>2010-09-26T09:43:32Z</time>
      </trkpt>
      <trkpt lat="43.75996" lon="6.55788">
        <ele>954</ele>
        <time>2010-09-26T09:43:44Z</time>
      </trkpt>
      <trkpt lat="43.7599" lon="6.55806">
        <ele>952</ele>
        <time>2010-09-26T09:43:57Z</time>
      </trkpt>
      <trkpt lat="43.75988" lon="6.55808">
        <ele>951</ele>
        <time>2010-09-26T09:44:00Z</time>
      </trkpt>
      <trkpt lat="43.75987" lon="6.5581">
        <ele>953</ele>
        <time>2010-09-26T09:44:02Z</time>
      </trkpt>
      <trkpt lat="43.75983" lon="6.55817">
        <ele>953</ele>
        <time>2010-09-26T09:44:08Z</time>
      </trkpt>
      <trkpt lat="43.75979" lon="6.55818">
        <ele>954</ele>
        <time>2010-09-26T09:44:12Z</time>
      </trkpt>
      <trkpt lat="43.75976" lon="6.5582">
        <ele>951</ele>
        <time>2010-09-26T09:44:16Z</time>
      </trkpt>
      <trkpt lat="43.75975" lon="6.55822">
        <ele>955</ele>
        <time>2010-09-26T09:44:17Z</time>
      </trkpt>
      <trkpt lat="43.75974" lon="6.55823">
        <ele>954</ele>
        <time>2010-09-26T09:44:18Z</time>
      </trkpt>
      <trkpt lat="43.75974" lon="6.55824">
        <ele>951</ele>
        <time>2010-09-26T09:44:19Z</time>
      </trkpt>
      <trkpt lat="43.75974" lon="6.55825">
        <ele>953</ele>
        <time>2010-09-26T09:44:20Z</time>
      </trkpt>
      <trkpt lat="43.75973" lon="6.5583">
        <ele>952</ele>
        <time>2010-09-26T09:44:23Z</time>
      </trkpt>
      <trkpt lat="43.75973" lon="6.55831">
        <ele>956</ele>
        <time>2010-09-26T09:44:24Z</time>
      </trkpt>
      <trkpt lat="43.75972" lon="6.55833">
        <ele>956</ele>
        <time>2010-09-26T09:44:25Z</time>
      </trkpt>
      <trkpt lat="43.75968" lon="6.55829">
        <ele>958</ele>
        <time>2010-09-26T09:44:40Z</time>
      </trkpt>
      <trkpt lat="43.75968" lon="6.55827">
        <ele>954</ele>
        <time>2010-09-26T09:44:43Z</time>
      </trkpt>
      <trkpt lat="43.75968" lon="6.55827">
        <ele>958</ele>
        <time>2010-09-26T09:44:45Z</time>
      </trkpt>
      <trkpt lat="43.75968" lon="6.55825">
        <ele>959</ele>
        <time>2010-09-26T09:44:46Z</time>
      </trkpt>
      <trkpt lat="43.75966" lon="6.55816">
        <ele>958</ele>
        <time>2010-09-26T09:44:55Z</time>
      </trkpt>
      <trkpt lat="43.75962" lon="6.55805">
        <ele>962</ele>
        <time>2010-09-26T09:45:03Z</time>
      </trkpt>
      <trkpt lat="43.75962" lon="6.55805">
        <ele>960</ele>
        <time>2010-09-26T09:45:04Z</time>
      </trkpt>
      <trkpt lat="43.75962" lon="6.55805">
        <ele>957</ele>
        <time>2010-09-26T09:45:06Z</time>
      </trkpt>
      <trkpt lat="43.75962" lon="6.55805">
        <ele>960</ele>
        <time>2010-09-26T09:45:07Z</time>
      </trkpt>
      <trkpt lat="43.75961" lon="6.55802">
        <ele>963</ele>
        <time>2010-09-26T09:45:13Z</time>
      </trkpt>
      <trkpt lat="43.75961" lon="6.55802">
        <ele>959</ele>
        <time>2010-09-26T09:45:14Z</time>
      </trkpt>
      <trkpt lat="43.75961" lon="6.55802">
        <ele>962</ele>
        <time>2010-09-26T09:45:15Z</time>
      </trkpt>
      <trkpt lat="43.75961" lon="6.558">
        <ele>959</ele>
        <time>2010-09-26T09:45:16Z</time>
      </trkpt>
      <trkpt lat="43.75961" lon="6.558">
        <ele>961</ele>
        <time>2010-09-26T09:45:17Z</time>
      </trkpt>
      <trkpt lat="43.75951" lon="6.55784">
        <ele>965</ele>
        <time>2010-09-26T09:45:36Z</time>
      </trkpt>
      <trkpt lat="43.75951" lon="6.55784">
        <ele>962</ele>
        <time>2010-09-26T09:45:37Z</time>
      </trkpt>
      <trkpt lat="43.75947" lon="6.55771">
        <ele>966</ele>
        <time>2010-09-26T09:45:48Z</time>
      </trkpt>
      <trkpt lat="43.75944" lon="6.55762">
        <ele>965</ele>
        <time>2010-09-26T09:45:57Z</time>
      </trkpt>
      <trkpt lat="43.75938" lon="6.55744">
        <ele>969</ele>
        <time>2010-09-26T09:46:17Z</time>
      </trkpt>
      <trkpt lat="43.75939" lon="6.55743">
        <ele>964</ele>
        <time>2010-09-26T09:46:20Z</time>
      </trkpt>
      <trkpt lat="43.75939" lon="6.55743">
        <ele>968</ele>
        <time>2010-09-26T09:46:21Z</time>
      </trkpt>
      <trkpt lat="43.75936" lon="6.55729">
        <ele>971</ele>
        <time>2010-09-26T09:46:32Z</time>
      </trkpt>
      <trkpt lat="43.75936" lon="6.55728">
        <ele>967</ele>
        <time>2010-09-26T09:46:33Z</time>
      </trkpt>
      <trkpt lat="43.75937" lon="6.55727">
        <ele>971</ele>
        <time>2010-09-26T09:46:34Z</time>
      </trkpt>
      <trkpt lat="43.75937" lon="6.55727">
        <ele>968</ele>
        <time>2010-09-26T09:46:35Z</time>
      </trkpt>
      <trkpt lat="43.75937" lon="6.55726">
        <ele>973</ele>
        <time>2010-09-26T09:46:37Z</time>
      </trkpt>
      <trkpt lat="43.75937" lon="6.55726">
        <ele>967</ele>
        <time>2010-09-26T09:46:38Z</time>
      </trkpt>
      <trkpt lat="43.75938" lon="6.55725">
        <ele>973</ele>
        <time>2010-09-26T09:46:39Z</time>
      </trkpt>
      <trkpt lat="43.75939" lon="6.55724">
        <ele>968</ele>
        <time>2010-09-26T09:46:40Z</time>
      </trkpt>
      <trkpt lat="43.7594" lon="6.55723">
        <ele>971</ele>
        <time>2010-09-26T09:46:42Z</time>
      </trkpt>
      <trkpt lat="43.7594" lon="6.55722">
        <ele>968</ele>
        <time>2010-09-26T09:46:43Z</time>
      </trkpt>
      <trkpt lat="43.75941" lon="6.5572">
        <ele>971</ele>
        <time>2010-09-26T09:46:44Z</time>
      </trkpt>
      <trkpt lat="43.75941" lon="6.55719">
        <ele>966</ele>
        <time>2010-09-26T09:46:45Z</time>
      </trkpt>
      <trkpt lat="43.75941" lon="6.55718">
        <ele>971</ele>
        <time>2010-09-26T09:46:46Z</time>
      </trkpt>
      <trkpt lat="43.75941" lon="6.55707">
        <ele>974</ele>
        <time>2010-09-26T09:46:57Z</time>
      </trkpt>
      <trkpt lat="43.75941" lon="6.55707">
        <ele>971</ele>
        <time>2010-09-26T09:46:58Z</time>
      </trkpt>
      <trkpt lat="43.75941" lon="6.55701">
        <ele>974</ele>
        <time>2010-09-26T09:47:05Z</time>
      </trkpt>
      <trkpt lat="43.75942" lon="6.55697">
        <ele>973</ele>
        <time>2010-09-26T09:47:09Z</time>
      </trkpt>
      <trkpt lat="43.7594" lon="6.5569">
        <ele>973</ele>
        <time>2010-09-26T09:47:16Z</time>
      </trkpt>
      <trkpt lat="43.7594" lon="6.5569">
        <ele>974</ele>
        <time>2010-09-26T09:47:18Z</time>
      </trkpt>
      <trkpt lat="43.75941" lon="6.5569">
        <ele>971</ele>
        <time>2010-09-26T09:47:20Z</time>
      </trkpt>
      <trkpt lat="43.75941" lon="6.5569">
        <ele>973</ele>
        <time>2010-09-26T09:47:21Z</time>
      </trkpt>
      <trkpt lat="43.75941" lon="6.55689">
        <ele>977</ele>
        <time>2010-09-26T09:47:22Z</time>
      </trkpt>
      <trkpt lat="43.75941" lon="6.55688">
        <ele>973</ele>
        <time>2010-09-26T09:47:23Z</time>
      </trkpt>
      <trkpt lat="43.75941" lon="6.55688">
        <ele>976</ele>
        <time>2010-09-26T09:47:24Z</time>
      </trkpt>
      <trkpt lat="43.75938" lon="6.55668">
        <ele>977</ele>
        <time>2010-09-26T09:47:40Z</time>
      </trkpt>
      <trkpt lat="43.75938" lon="6.55657">
        <ele>978</ele>
        <time>2010-09-26T09:47:47Z</time>
      </trkpt>
      <trkpt lat="43.75935" lon="6.55644">
        <ele>979</ele>
        <time>2010-09-26T09:47:56Z</time>
      </trkpt>
      <trkpt lat="43.75934" lon="6.55639">
        <ele>975</ele>
        <time>2010-09-26T09:48:00Z</time>
      </trkpt>
      <trkpt lat="43.75933" lon="6.55637">
        <ele>979</ele>
        <time>2010-09-26T09:48:02Z</time>
      </trkpt>
      <trkpt lat="43.75932" lon="6.55634">
        <ele>982</ele>
        <time>2010-09-26T09:48:04Z</time>
      </trkpt>
      <trkpt lat="43.75931" lon="6.55633">
        <ele>981</ele>
        <time>2010-09-26T09:48:05Z</time>
      </trkpt>
      <trkpt lat="43.75929" lon="6.5563">
        <ele>977</ele>
        <time>2010-09-26T09:48:07Z</time>
      </trkpt>
      <trkpt lat="43.75929" lon="6.55629">
        <ele>979</ele>
        <time>2010-09-26T09:48:08Z</time>
      </trkpt>
      <trkpt lat="43.75929" lon="6.55623">
        <ele>978</ele>
        <time>2010-09-26T09:48:13Z</time>
      </trkpt>
      <trkpt lat="43.75927" lon="6.5562">
        <ele>981</ele>
        <time>2010-09-26T09:48:15Z</time>
      </trkpt>
      <trkpt lat="43.75926" lon="6.55617">
        <ele>984</ele>
        <time>2010-09-26T09:48:18Z</time>
      </trkpt>
      <trkpt lat="43.75927" lon="6.55614">
        <ele>982</ele>
        <time>2010-09-26T09:48:20Z</time>
      </trkpt>
      <trkpt lat="43.75928" lon="6.5561">
        <ele>986</ele>
        <time>2010-09-26T09:48:23Z</time>
      </trkpt>
      <trkpt lat="43.75928" lon="6.55609">
        <ele>983</ele>
        <time>2010-09-26T09:48:24Z</time>
      </trkpt>
      <trkpt lat="43.75924" lon="6.55601">
        <ele>984</ele>
        <time>2010-09-26T09:48:30Z</time>
      </trkpt>
      <trkpt lat="43.75925" lon="6.55596">
        <ele>980</ele>
        <time>2010-09-26T09:48:33Z</time>
      </trkpt>
      <trkpt lat="43.75925" lon="6.55596">
        <ele>982</ele>
        <time>2010-09-26T09:48:34Z</time>
      </trkpt>
      <trkpt lat="43.75924" lon="6.55595">
        <ele>986</ele>
        <time>2010-09-26T09:48:35Z</time>
      </trkpt>
      <trkpt lat="43.75922" lon="6.55593">
        <ele>983</ele>
        <time>2010-09-26T09:48:37Z</time>
      </trkpt>
      <trkpt lat="43.75922" lon="6.55592">
        <ele>984</ele>
        <time>2010-09-26T09:48:38Z</time>
      </trkpt>
      <trkpt lat="43.75922" lon="6.55585">
        <ele>987</ele>
        <time>2010-09-26T09:48:43Z</time>
      </trkpt>
      <trkpt lat="43.75922" lon="6.55584">
        <ele>987</ele>
        <time>2010-09-26T09:48:44Z</time>
      </trkpt>
      <trkpt lat="43.7592" lon="6.55583">
        <ele>988</ele>
        <time>2010-09-26T09:48:47Z</time>
      </trkpt>
      <trkpt lat="43.75917" lon="6.55574">
        <ele>990</ele>
        <time>2010-09-26T09:48:56Z</time>
      </trkpt>
      <trkpt lat="43.75917" lon="6.55572">
        <ele>986</ele>
        <time>2010-09-26T09:48:58Z</time>
      </trkpt>
      <trkpt lat="43.75917" lon="6.55571">
        <ele>990</ele>
        <time>2010-09-26T09:48:59Z</time>
      </trkpt>
      <trkpt lat="43.75916" lon="6.5557">
        <ele>989</ele>
        <time>2010-09-26T09:49:00Z</time>
      </trkpt>
      <trkpt lat="43.75913" lon="6.55568">
        <ele>986</ele>
        <time>2010-09-26T09:49:02Z</time>
      </trkpt>
      <trkpt lat="43.75912" lon="6.55568">
        <ele>989</ele>
        <time>2010-09-26T09:49:03Z</time>
      </trkpt>
      <trkpt lat="43.75912" lon="6.55565">
        <ele>990</ele>
        <time>2010-09-26T09:49:05Z</time>
      </trkpt>
      <trkpt lat="43.7591" lon="6.55561">
        <ele>994</ele>
        <time>2010-09-26T09:49:09Z</time>
      </trkpt>
      <trkpt lat="43.7591" lon="6.5556">
        <ele>989</ele>
        <time>2010-09-26T09:49:10Z</time>
      </trkpt>
      <trkpt lat="43.75909" lon="6.55559">
        <ele>988</ele>
        <time>2010-09-26T09:49:11Z</time>
      </trkpt>
      <trkpt lat="43.75907" lon="6.55552">
        <ele>992</ele>
        <time>2010-09-26T09:49:17Z</time>
      </trkpt>
      <trkpt lat="43.75904" lon="6.55546">
        <ele>996</ele>
        <time>2010-09-26T09:49:25Z</time>
      </trkpt>
      <trkpt lat="43.75904" lon="6.55545">
        <ele>991</ele>
        <time>2010-09-26T09:49:27Z</time>
      </trkpt>
      <trkpt lat="43.75903" lon="6.55544">
        <ele>994</ele>
        <time>2010-09-26T09:49:28Z</time>
      </trkpt>
      <trkpt lat="43.75901" lon="6.55541">
        <ele>993</ele>
        <time>2010-09-26T09:49:31Z</time>
      </trkpt>
      <trkpt lat="43.75901" lon="6.55539">
        <ele>995</ele>
        <time>2010-09-26T09:49:33Z</time>
      </trkpt>
      <trkpt lat="43.759" lon="6.55535">
        <ele>998</ele>
        <time>2010-09-26T09:49:39Z</time>
      </trkpt>
      <trkpt lat="43.759" lon="6.5553">
        <ele>998</ele>
        <time>2010-09-26T09:49:57Z</time>
      </trkpt>
      <trkpt lat="43.75901" lon="6.55527">
        <ele>995</ele>
        <time>2010-09-26T09:49:59Z</time>
      </trkpt>
      <trkpt lat="43.75901" lon="6.55525">
        <ele>993</ele>
        <time>2010-09-26T09:50:01Z</time>
      </trkpt>
      <trkpt lat="43.759" lon="6.55524">
        <ele>997</ele>
        <time>2010-09-26T09:50:02Z</time>
      </trkpt>
      <trkpt lat="43.75899" lon="6.55521">
        <ele>998</ele>
        <time>2010-09-26T09:50:04Z</time>
      </trkpt>
      <trkpt lat="43.75897" lon="6.55516">
        <ele>1001</ele>
        <time>2010-09-26T09:50:15Z</time>
      </trkpt>
      <trkpt lat="43.75896" lon="6.55515">
        <ele>1000</ele>
        <time>2010-09-26T09:50:16Z</time>
      </trkpt>
      <trkpt lat="43.75895" lon="6.55513">
        <ele>1002</ele>
        <time>2010-09-26T09:50:18Z</time>
      </trkpt>
      <trkpt lat="43.75894" lon="6.55512">
        <ele>997</ele>
        <time>2010-09-26T09:50:19Z</time>
      </trkpt>
      <trkpt lat="43.75894" lon="6.55511">
        <ele>1000</ele>
        <time>2010-09-26T09:50:20Z</time>
      </trkpt>
      <trkpt lat="43.75893" lon="6.5551">
        <ele>997</ele>
        <time>2010-09-26T09:50:21Z</time>
      </trkpt>
      <trkpt lat="43.75893" lon="6.5551">
        <ele>1001</ele>
        <time>2010-09-26T09:50:22Z</time>
      </trkpt>
      <trkpt lat="43.75893" lon="6.55508">
        <ele>998</ele>
        <time>2010-09-26T09:50:24Z</time>
      </trkpt>
      <trkpt lat="43.75893" lon="6.55508">
        <ele>999</ele>
        <time>2010-09-26T09:50:25Z</time>
      </trkpt>
      <trkpt lat="43.75891" lon="6.55501">
        <ele>1002</ele>
        <time>2010-09-26T09:50:34Z</time>
      </trkpt>
      <trkpt lat="43.7589" lon="6.55498">
        <ele>1000</ele>
        <time>2010-09-26T09:50:38Z</time>
      </trkpt>
      <trkpt lat="43.75887" lon="6.55496">
        <ele>999</ele>
        <time>2010-09-26T09:50:41Z</time>
      </trkpt>
      <trkpt lat="43.75887" lon="6.55496">
        <ele>1003</ele>
        <time>2010-09-26T09:50:42Z</time>
      </trkpt>
      <trkpt lat="43.75888" lon="6.55487">
        <ele>1006</ele>
        <time>2010-09-26T09:50:51Z</time>
      </trkpt>
      <trkpt lat="43.75888" lon="6.55486">
        <ele>1001</ele>
        <time>2010-09-26T09:50:52Z</time>
      </trkpt>
      <trkpt lat="43.75888" lon="6.55485">
        <ele>1005</ele>
        <time>2010-09-26T09:50:53Z</time>
      </trkpt>
      <trkpt lat="43.75887" lon="6.55484">
        <ele>1001</ele>
        <time>2010-09-26T09:50:54Z</time>
      </trkpt>
      <trkpt lat="43.75887" lon="6.55482">
        <ele>1005</ele>
        <time>2010-09-26T09:50:58Z</time>
      </trkpt>
      <trkpt lat="43.75889" lon="6.5548">
        <ele>1005</ele>
        <time>2010-09-26T09:51:36Z</time>
      </trkpt>
      <trkpt lat="43.75892" lon="6.55475">
        <ele>1003</ele>
        <time>2010-09-26T09:52:36Z</time>
      </trkpt>
      <trkpt lat="43.75892" lon="6.55474">
        <ele>1006</ele>
        <time>2010-09-26T09:52:37Z</time>
      </trkpt>
      <trkpt lat="43.75893" lon="6.55473">
        <ele>1005</ele>
        <time>2010-09-26T09:52:38Z</time>
      </trkpt>
      <trkpt lat="43.75893" lon="6.55471">
        <ele>1007</ele>
        <time>2010-09-26T09:52:40Z</time>
      </trkpt>
      <trkpt lat="43.75893" lon="6.55468">
        <ele>1006</ele>
        <time>2010-09-26T09:52:44Z</time>
      </trkpt>
      <trkpt lat="43.75891" lon="6.55459">
        <ele>1007</ele>
        <time>2010-09-26T09:52:49Z</time>
      </trkpt>
      <trkpt lat="43.75888" lon="6.55452">
        <ele>1009</ele>
        <time>2010-09-26T09:52:58Z</time>
      </trkpt>
      <trkpt lat="43.75889" lon="6.55446">
        <ele>1004</ele>
        <time>2010-09-26T09:53:03Z</time>
      </trkpt>
      <trkpt lat="43.75889" lon="6.55445">
        <ele>1007</ele>
        <time>2010-09-26T09:53:04Z</time>
      </trkpt>
      <trkpt lat="43.75889" lon="6.55442">
        <ele>1006</ele>
        <time>2010-09-26T09:53:06Z</time>
      </trkpt>
      <trkpt lat="43.75889" lon="6.55439">
        <ele>1009</ele>
        <time>2010-09-26T09:53:08Z</time>
      </trkpt>
      <trkpt lat="43.75889" lon="6.55432">
        <ele>1012</ele>
        <time>2010-09-26T09:53:15Z</time>
      </trkpt>
      <trkpt lat="43.75894" lon="6.55415">
        <ele>1010</ele>
        <time>2010-09-26T09:53:26Z</time>
      </trkpt>
      <trkpt lat="43.75894" lon="6.55411">
        <ele>1010</ele>
        <time>2010-09-26T09:53:29Z</time>
      </trkpt>
      <trkpt lat="43.75896" lon="6.55403">
        <ele>1013</ele>
        <time>2010-09-26T09:53:33Z</time>
      </trkpt>
      <trkpt lat="43.75896" lon="6.55401">
        <ele>1012</ele>
        <time>2010-09-26T09:53:34Z</time>
      </trkpt>
      <trkpt lat="43.75896" lon="6.554">
        <ele>1007</ele>
        <time>2010-09-26T09:53:36Z</time>
      </trkpt>
      <trkpt lat="43.75896" lon="6.55398">
        <ele>1010</ele>
        <time>2010-09-26T09:53:38Z</time>
      </trkpt>
      <trkpt lat="43.75897" lon="6.55389">
        <ele>1011</ele>
        <time>2010-09-26T09:53:43Z</time>
      </trkpt>
      <trkpt lat="43.75901" lon="6.5537">
        <ele>1010</ele>
        <time>2010-09-26T09:53:58Z</time>
      </trkpt>
      <trkpt lat="43.759" lon="6.55368">
        <ele>1010</ele>
        <time>2010-09-26T09:53:59Z</time>
      </trkpt>
      <trkpt lat="43.75902" lon="6.55357">
        <ele>1012</ele>
        <time>2010-09-26T09:54:07Z</time>
      </trkpt>
      <trkpt lat="43.75904" lon="6.55352">
        <ele>1014</ele>
        <time>2010-09-26T09:54:12Z</time>
      </trkpt>
      <trkpt lat="43.75904" lon="6.55349">
        <ele>1010</ele>
        <time>2010-09-26T09:54:14Z</time>
      </trkpt>
      <trkpt lat="43.75904" lon="6.55348">
        <ele>1011</ele>
        <time>2010-09-26T09:54:15Z</time>
      </trkpt>
      <trkpt lat="43.75904" lon="6.55343">
        <ele>1014</ele>
        <time>2010-09-26T09:54:18Z</time>
      </trkpt>
      <trkpt lat="43.75905" lon="6.55339">
        <ele>1015</ele>
        <time>2010-09-26T09:54:21Z</time>
      </trkpt>
      <trkpt lat="43.75908" lon="6.55325">
        <ele>1011</ele>
        <time>2010-09-26T09:54:30Z</time>
      </trkpt>
      <trkpt lat="43.75908" lon="6.55325">
        <ele>1012</ele>
        <time>2010-09-26T09:54:31Z</time>
      </trkpt>
      <trkpt lat="43.75908" lon="6.55315">
        <ele>1016</ele>
        <time>2010-09-26T09:54:36Z</time>
      </trkpt>
      <trkpt lat="43.75909" lon="6.5531">
        <ele>1013</ele>
        <time>2010-09-26T09:54:39Z</time>
      </trkpt>
      <trkpt lat="43.75911" lon="6.55301">
        <ele>1014</ele>
        <time>2010-09-26T09:54:46Z</time>
      </trkpt>
      <trkpt lat="43.75913" lon="6.55289">
        <ele>1016</ele>
        <time>2010-09-26T09:54:57Z</time>
      </trkpt>
      <trkpt lat="43.75913" lon="6.55287">
        <ele>1016</ele>
        <time>2010-09-26T09:54:58Z</time>
      </trkpt>
      <trkpt lat="43.75909" lon="6.55276">
        <ele>1016</ele>
        <time>2010-09-26T09:55:07Z</time>
      </trkpt>
      <trkpt lat="43.7591" lon="6.55272">
        <ele>1014</ele>
        <time>2010-09-26T09:55:10Z</time>
      </trkpt>
      <trkpt lat="43.7591" lon="6.55267">
        <ele>1018</ele>
        <time>2010-09-26T09:55:13Z</time>
      </trkpt>
      <trkpt lat="43.7591" lon="6.55256">
        <ele>1013</ele>
        <time>2010-09-26T09:55:21Z</time>
      </trkpt>
      <trkpt lat="43.7591" lon="6.55254">
        <ele>1015</ele>
        <time>2010-09-26T09:55:22Z</time>
      </trkpt>
      <trkpt lat="43.75911" lon="6.55253">
        <ele>1019</ele>
        <time>2010-09-26T09:55:23Z</time>
      </trkpt>
      <trkpt lat="43.75912" lon="6.55252">
        <ele>1016</ele>
        <time>2010-09-26T09:55:24Z</time>
      </trkpt>
      <trkpt lat="43.75913" lon="6.55249">
        <ele>1020</ele>
        <time>2010-09-26T09:55:28Z</time>
      </trkpt>
      <trkpt lat="43.75912" lon="6.55243">
        <ele>1016</ele>
        <time>2010-09-26T09:55:32Z</time>
      </trkpt>
      <trkpt lat="43.75911" lon="6.55235">
        <ele>1020</ele>
        <time>2010-09-26T09:55:41Z</time>
      </trkpt>
      <trkpt lat="43.75912" lon="6.55231">
        <ele>1016</ele>
        <time>2010-09-26T09:55:44Z</time>
      </trkpt>
      <trkpt lat="43.75912" lon="6.5523">
        <ele>1020</ele>
        <time>2010-09-26T09:55:45Z</time>
      </trkpt>
      <trkpt lat="43.75912" lon="6.55228">
        <ele>1023</ele>
        <time>2010-09-26T09:55:46Z</time>
      </trkpt>
      <trkpt lat="43.75912" lon="6.55228">
        <ele>1018</ele>
        <time>2010-09-26T09:55:47Z</time>
      </trkpt>
      <trkpt lat="43.75912" lon="6.55227">
        <ele>1022</ele>
        <time>2010-09-26T09:55:48Z</time>
      </trkpt>
      <trkpt lat="43.75913" lon="6.55224">
        <ele>1018</ele>
        <time>2010-09-26T09:55:52Z</time>
      </trkpt>
      <trkpt lat="43.75913" lon="6.55221">
        <ele>1022</ele>
        <time>2010-09-26T09:55:56Z</time>
      </trkpt>
      <trkpt lat="43.75912" lon="6.55219">
        <ele>1018</ele>
        <time>2010-09-26T09:55:58Z</time>
      </trkpt>
      <trkpt lat="43.75912" lon="6.55219">
        <ele>1021</ele>
        <time>2010-09-26T09:55:59Z</time>
      </trkpt>
      <trkpt lat="43.75912" lon="6.55218">
        <ele>1021</ele>
        <time>2010-09-26T09:56:01Z</time>
      </trkpt>
      <trkpt lat="43.75911" lon="6.55204">
        <ele>1022</ele>
        <time>2010-09-26T09:56:16Z</time>
      </trkpt>
      <trkpt lat="43.75912" lon="6.55188">
        <ele>1025</ele>
        <time>2010-09-26T09:56:32Z</time>
      </trkpt>
      <trkpt lat="43.7591" lon="6.55175">
        <ele>1026</ele>
        <time>2010-09-26T09:56:42Z</time>
      </trkpt>
      <trkpt lat="43.75911" lon="6.55152">
        <ele>1030</ele>
        <time>2010-09-26T09:57:02Z</time>
      </trkpt>
      <trkpt lat="43.75911" lon="6.55151">
        <ele>1024</ele>
        <time>2010-09-26T09:57:03Z</time>
      </trkpt>
      <trkpt lat="43.7591" lon="6.5515">
        <ele>1028</ele>
        <time>2010-09-26T09:57:04Z</time>
      </trkpt>
      <trkpt lat="43.75912" lon="6.55137">
        <ele>1024</ele>
        <time>2010-09-26T09:57:17Z</time>
      </trkpt>
      <trkpt lat="43.75913" lon="6.55136">
        <ele>1030</ele>
        <time>2010-09-26T09:57:18Z</time>
      </trkpt>
      <trkpt lat="43.75912" lon="6.55135">
        <ele>1031</ele>
        <time>2010-09-26T09:57:20Z</time>
      </trkpt>
      <trkpt lat="43.75913" lon="6.55133">
        <ele>1028</ele>
        <time>2010-09-26T09:57:22Z</time>
      </trkpt>
      <trkpt lat="43.75914" lon="6.55131">
        <ele>1031</ele>
        <time>2010-09-26T09:57:23Z</time>
      </trkpt>
      <trkpt lat="43.75913" lon="6.55126">
        <ele>1032</ele>
        <time>2010-09-26T09:57:33Z</time>
      </trkpt>
      <trkpt lat="43.75908" lon="6.5512">
        <ele>1035</ele>
        <time>2010-09-26T09:57:39Z</time>
      </trkpt>
      <trkpt lat="43.75908" lon="6.5512">
        <ele>1030</ele>
        <time>2010-09-26T09:57:40Z</time>
      </trkpt>
      <trkpt lat="43.75907" lon="6.55119">
        <ele>1034</ele>
        <time>2010-09-26T09:57:41Z</time>
      </trkpt>
      <trkpt lat="43.75906" lon="6.55117">
        <ele>1031</ele>
        <time>2010-09-26T09:57:42Z</time>
      </trkpt>
      <trkpt lat="43.75903" lon="6.55112">
        <ele>1035</ele>
        <time>2010-09-26T09:57:46Z</time>
      </trkpt>
      <trkpt lat="43.75901" lon="6.55109">
        <ele>1031</ele>
        <time>2010-09-26T09:57:49Z</time>
      </trkpt>
      <trkpt lat="43.759" lon="6.55107">
        <ele>1035</ele>
        <time>2010-09-26T09:57:51Z</time>
      </trkpt>
      <trkpt lat="43.75899" lon="6.55103">
        <ele>1036</ele>
        <time>2010-09-26T09:58:04Z</time>
      </trkpt>
      <trkpt lat="43.75898" lon="6.55099">
        <ele>1033</ele>
        <time>2010-09-26T09:58:11Z</time>
      </trkpt>
      <trkpt lat="43.75899" lon="6.55098">
        <ele>1037</ele>
        <time>2010-09-26T09:58:12Z</time>
      </trkpt>
      <trkpt lat="43.75898" lon="6.55096">
        <ele>1034</ele>
        <time>2010-09-26T09:58:13Z</time>
      </trkpt>
      <trkpt lat="43.75898" lon="6.55092">
        <ele>1037</ele>
        <time>2010-09-26T09:58:15Z</time>
      </trkpt>
      <trkpt lat="43.75898" lon="6.55091">
        <ele>1037</ele>
        <time>2010-09-26T09:58:16Z</time>
      </trkpt>
      <trkpt lat="43.75894" lon="6.55073">
        <ele>1039</ele>
        <time>2010-09-26T09:58:33Z</time>
      </trkpt>
      <trkpt lat="43.75892" lon="6.55062">
        <ele>1039</ele>
        <time>2010-09-26T09:58:41Z</time>
      </trkpt>
      <trkpt lat="43.75887" lon="6.5506">
        <ele>1040</ele>
        <time>2010-09-26T09:58:48Z</time>
      </trkpt>
      <trkpt lat="43.75883" lon="6.55058">
        <ele>1035</ele>
        <time>2010-09-26T09:58:50Z</time>
      </trkpt>
      <trkpt lat="43.75882" lon="6.55057">
        <ele>1039</ele>
        <time>2010-09-26T09:58:51Z</time>
      </trkpt>
      <trkpt lat="43.75875" lon="6.55054">
        <ele>1040</ele>
        <time>2010-09-26T09:58:56Z</time>
      </trkpt>
      <trkpt lat="43.75868" lon="6.55048">
        <ele>1039</ele>
        <time>2010-09-26T09:59:04Z</time>
      </trkpt>
      <trkpt lat="43.75865" lon="6.55047">
        <ele>1043</ele>
        <time>2010-09-26T09:59:06Z</time>
      </trkpt>
      <trkpt lat="43.75865" lon="6.55046">
        <ele>1042</ele>
        <time>2010-09-26T09:59:07Z</time>
      </trkpt>
      <trkpt lat="43.75864" lon="6.55045">
        <ele>1040</ele>
        <time>2010-09-26T09:59:09Z</time>
      </trkpt>
      <trkpt lat="43.75862" lon="6.55043">
        <ele>1041</ele>
        <time>2010-09-26T09:59:11Z</time>
      </trkpt>
      <trkpt lat="43.7586" lon="6.55042">
        <ele>1042</ele>
        <time>2010-09-26T09:59:15Z</time>
      </trkpt>
      <trkpt lat="43.75854" lon="6.55036">
        <ele>1044</ele>
        <time>2010-09-26T09:59:24Z</time>
      </trkpt>
      <trkpt lat="43.75854" lon="6.55035">
        <ele>1042</ele>
        <time>2010-09-26T09:59:26Z</time>
      </trkpt>
      <trkpt lat="43.75853" lon="6.55034">
        <ele>1046</ele>
        <time>2010-09-26T09:59:27Z</time>
      </trkpt>
      <trkpt lat="43.75853" lon="6.55033">
        <ele>1041</ele>
        <time>2010-09-26T09:59:28Z</time>
      </trkpt>
      <trkpt lat="43.75852" lon="6.55032">
        <ele>1044</ele>
        <time>2010-09-26T09:59:29Z</time>
      </trkpt>
      <trkpt lat="43.75847" lon="6.55028">
        <ele>1043</ele>
        <time>2010-09-26T09:59:36Z</time>
      </trkpt>
      <trkpt lat="43.75842" lon="6.55027">
        <ele>1046</ele>
        <time>2010-09-26T09:59:40Z</time>
      </trkpt>
      <trkpt lat="43.75835" lon="6.5502">
        <ele>1045</ele>
        <time>2010-09-26T09:59:51Z</time>
      </trkpt>
      <trkpt lat="43.75834" lon="6.55018">
        <ele>1043</ele>
        <time>2010-09-26T09:59:53Z</time>
      </trkpt>
      <trkpt lat="43.75833" lon="6.55016">
        <ele>1047</ele>
        <time>2010-09-26T09:59:55Z</time>
      </trkpt>
      <trkpt lat="43.75829" lon="6.55011">
        <ele>1047</ele>
        <time>2010-09-26T10:00:02Z</time>
      </trkpt>
      <trkpt lat="43.75829" lon="6.55009">
        <ele>1044</ele>
        <time>2010-09-26T10:00:04Z</time>
      </trkpt>
      <trkpt lat="43.75829" lon="6.55007">
        <ele>1049</ele>
        <time>2010-09-26T10:00:06Z</time>
      </trkpt>
      <trkpt lat="43.75828" lon="6.55006">
        <ele>1048</ele>
        <time>2010-09-26T10:00:07Z</time>
      </trkpt>
      <trkpt lat="43.75826" lon="6.54996">
        <ele>1052</ele>
        <time>2010-09-26T10:00:15Z</time>
      </trkpt>
      <trkpt lat="43.75826" lon="6.54995">
        <ele>1047</ele>
        <time>2010-09-26T10:00:16Z</time>
      </trkpt>
      <trkpt lat="43.75825" lon="6.54994">
        <ele>1050</ele>
        <time>2010-09-26T10:00:18Z</time>
      </trkpt>
      <trkpt lat="43.75824" lon="6.54994">
        <ele>1050</ele>
        <time>2010-09-26T10:00:19Z</time>
      </trkpt>
      <trkpt lat="43.7582" lon="6.54988">
        <ele>1051</ele>
        <time>2010-09-26T10:00:55Z</time>
      </trkpt>
      <trkpt lat="43.75816" lon="6.54979">
        <ele>1049</ele>
        <time>2010-09-26T10:02:27Z</time>
      </trkpt>
      <trkpt lat="43.75816" lon="6.54979">
        <ele>1053</ele>
        <time>2010-09-26T10:02:28Z</time>
      </trkpt>
      <trkpt lat="43.75811" lon="6.54975">
        <ele>1054</ele>
        <time>2010-09-26T10:02:42Z</time>
      </trkpt>
      <trkpt lat="43.75807" lon="6.54965">
        <ele>1055</ele>
        <time>2010-09-26T10:02:54Z</time>
      </trkpt>
      <trkpt lat="43.75806" lon="6.54963">
        <ele>1054</ele>
        <time>2010-09-26T10:02:56Z</time>
      </trkpt>
      <trkpt lat="43.75802" lon="6.54954">
        <ele>1056</ele>
        <time>2010-09-26T10:03:05Z</time>
      </trkpt>
      <trkpt lat="43.75802" lon="6.54953">
        <ele>1053</ele>
        <time>2010-09-26T10:03:06Z</time>
      </trkpt>
      <trkpt lat="43.75801" lon="6.54952">
        <ele>1056</ele>
        <time>2010-09-26T10:03:08Z</time>
      </trkpt>
      <trkpt lat="43.75798" lon="6.54945">
        <ele>1057</ele>
        <time>2010-09-26T10:03:17Z</time>
      </trkpt>
      <trkpt lat="43.75794" lon="6.54934">
        <ele>1059</ele>
        <time>2010-09-26T10:03:25Z</time>
      </trkpt>
      <trkpt lat="43.75794" lon="6.54933">
        <ele>1055</ele>
        <time>2010-09-26T10:03:26Z</time>
      </trkpt>
      <trkpt lat="43.75794" lon="6.54932">
        <ele>1057</ele>
        <time>2010-09-26T10:03:27Z</time>
      </trkpt>
      <trkpt lat="43.75793" lon="6.54929">
        <ele>1058</ele>
        <time>2010-09-26T10:03:31Z</time>
      </trkpt>
      <trkpt lat="43.75789" lon="6.54922">
        <ele>1059</ele>
        <time>2010-09-26T10:03:38Z</time>
      </trkpt>
      <trkpt lat="43.75786" lon="6.54908">
        <ele>1060</ele>
        <time>2010-09-26T10:03:49Z</time>
      </trkpt>
      <trkpt lat="43.75785" lon="6.54899">
        <ele>1060</ele>
        <time>2010-09-26T10:03:57Z</time>
      </trkpt>
      <trkpt lat="43.75783" lon="6.54889">
        <ele>1060</ele>
        <time>2010-09-26T10:04:05Z</time>
      </trkpt>
      <trkpt lat="43.75783" lon="6.54888">
        <ele>1060</ele>
        <time>2010-09-26T10:04:08Z</time>
      </trkpt>
      <trkpt lat="43.75782" lon="6.54885">
        <ele>1059</ele>
        <time>2010-09-26T10:04:10Z</time>
      </trkpt>
      <trkpt lat="43.75778" lon="6.54871">
        <ele>1061</ele>
        <time>2010-09-26T10:04:21Z</time>
      </trkpt>
      <trkpt lat="43.75774" lon="6.54857">
        <ele>1060</ele>
        <time>2010-09-26T10:04:30Z</time>
      </trkpt>
      <trkpt lat="43.75773" lon="6.54853">
        <ele>1062</ele>
        <time>2010-09-26T10:04:34Z</time>
      </trkpt>
      <trkpt lat="43.75771" lon="6.54849">
        <ele>1060</ele>
        <time>2010-09-26T10:04:37Z</time>
      </trkpt>
      <trkpt lat="43.75766" lon="6.54836">
        <ele>1060</ele>
        <time>2010-09-26T10:04:49Z</time>
      </trkpt>
      <trkpt lat="43.75757" lon="6.54814">
        <ele>1060</ele>
        <time>2010-09-26T10:05:08Z</time>
      </trkpt>
      <trkpt lat="43.75756" lon="6.54811">
        <ele>1060</ele>
        <time>2010-09-26T10:05:10Z</time>
      </trkpt>
      <trkpt lat="43.75756" lon="6.54803">
        <ele>1060</ele>
        <time>2010-09-26T10:05:15Z</time>
      </trkpt>
      <trkpt lat="43.75756" lon="6.54793">
        <ele>1060</ele>
        <time>2010-09-26T10:05:24Z</time>
      </trkpt>
      <trkpt lat="43.75753" lon="6.54777">
        <ele>1060</ele>
        <time>2010-09-26T10:05:38Z</time>
      </trkpt>
      <trkpt lat="43.75752" lon="6.54766">
        <ele>1059</ele>
        <time>2010-09-26T10:05:45Z</time>
      </trkpt>
      <trkpt lat="43.75752" lon="6.54761">
        <ele>1062</ele>
        <time>2010-09-26T10:05:48Z</time>
      </trkpt>
      <trkpt lat="43.75753" lon="6.54756">
        <ele>1059</ele>
        <time>2010-09-26T10:05:52Z</time>
      </trkpt>
      <trkpt lat="43.75753" lon="6.54755">
        <ele>1060</ele>
        <time>2010-09-26T10:05:53Z</time>
      </trkpt>
      <trkpt lat="43.75751" lon="6.54752">
        <ele>1061</ele>
        <time>2010-09-26T10:05:55Z</time>
      </trkpt>
      <trkpt lat="43.75751" lon="6.54747">
        <ele>1059</ele>
        <time>2010-09-26T10:05:58Z</time>
      </trkpt>
      <trkpt lat="43.75748" lon="6.54734">
        <ele>1057</ele>
        <time>2010-09-26T10:06:12Z</time>
      </trkpt>
      <trkpt lat="43.75747" lon="6.54733">
        <ele>1061</ele>
        <time>2010-09-26T10:06:13Z</time>
      </trkpt>
      <trkpt lat="43.75744" lon="6.54725">
        <ele>1062</ele>
        <time>2010-09-26T10:06:22Z</time>
      </trkpt>
      <trkpt lat="43.7574" lon="6.54706">
        <ele>1059</ele>
        <time>2010-09-26T10:06:31Z</time>
      </trkpt>
      <trkpt lat="43.75738" lon="6.54701">
        <ele>1061</ele>
        <time>2010-09-26T10:06:35Z</time>
      </trkpt>
      <trkpt lat="43.75736" lon="6.54699">
        <ele>1062</ele>
        <time>2010-09-26T10:06:37Z</time>
      </trkpt>
      <trkpt lat="43.75733" lon="6.54692">
        <ele>1060</ele>
        <time>2010-09-26T10:06:42Z</time>
      </trkpt>
      <trkpt lat="43.75732" lon="6.54691">
        <ele>1061</ele>
        <time>2010-09-26T10:06:43Z</time>
      </trkpt>
      <trkpt lat="43.7572" lon="6.54683">
        <ele>1062</ele>
        <time>2010-09-26T10:06:53Z</time>
      </trkpt>
      <trkpt lat="43.75715" lon="6.54679">
        <ele>1060</ele>
        <time>2010-09-26T10:06:58Z</time>
      </trkpt>
      <trkpt lat="43.75706" lon="6.54673">
        <ele>1059</ele>
        <time>2010-09-26T10:07:06Z</time>
      </trkpt>
      <trkpt lat="43.75703" lon="6.54671">
        <ele>1060</ele>
        <time>2010-09-26T10:07:09Z</time>
      </trkpt>
      <trkpt lat="43.75692" lon="6.54662">
        <ele>1060</ele>
        <time>2010-09-26T10:07:20Z</time>
      </trkpt>
      <trkpt lat="43.75686" lon="6.54658">
        <ele>1058</ele>
        <time>2010-09-26T10:07:25Z</time>
      </trkpt>
      <trkpt lat="43.75682" lon="6.54655">
        <ele>1060</ele>
        <time>2010-09-26T10:07:30Z</time>
      </trkpt>
      <trkpt lat="43.75675" lon="6.54648">
        <ele>1058</ele>
        <time>2010-09-26T10:07:36Z</time>
      </trkpt>
      <trkpt lat="43.75671" lon="6.54643">
        <ele>1060</ele>
        <time>2010-09-26T10:07:41Z</time>
      </trkpt>
      <trkpt lat="43.75668" lon="6.5464">
        <ele>1061</ele>
        <time>2010-09-26T10:07:44Z</time>
      </trkpt>
      <trkpt lat="43.7566" lon="6.54633">
        <ele>1059</ele>
        <time>2010-09-26T10:07:52Z</time>
      </trkpt>
      <trkpt lat="43.75656" lon="6.5463">
        <ele>1060</ele>
        <time>2010-09-26T10:07:57Z</time>
      </trkpt>
      <trkpt lat="43.75647" lon="6.54614">
        <ele>1061</ele>
        <time>2010-09-26T10:08:08Z</time>
      </trkpt>
      <trkpt lat="43.75637" lon="6.54601">
        <ele>1060</ele>
        <time>2010-09-26T10:08:20Z</time>
      </trkpt>
      <trkpt lat="43.7563" lon="6.54589">
        <ele>1062</ele>
        <time>2010-09-26T10:08:30Z</time>
      </trkpt>
      <trkpt lat="43.7563" lon="6.54588">
        <ele>1062</ele>
        <time>2010-09-26T10:08:31Z</time>
      </trkpt>
      <trkpt lat="43.75628" lon="6.54585">
        <ele>1061</ele>
        <time>2010-09-26T10:08:34Z</time>
      </trkpt>
      <trkpt lat="43.75621" lon="6.54575">
        <ele>1059</ele>
        <time>2010-09-26T10:08:43Z</time>
      </trkpt>
      <trkpt lat="43.75619" lon="6.54572">
        <ele>1060</ele>
        <time>2010-09-26T10:08:45Z</time>
      </trkpt>
      <trkpt lat="43.75612" lon="6.54566">
        <ele>1060</ele>
        <time>2010-09-26T10:08:50Z</time>
      </trkpt>
      <trkpt lat="43.75608" lon="6.54562">
        <ele>1061</ele>
        <time>2010-09-26T10:08:55Z</time>
      </trkpt>
      <trkpt lat="43.75602" lon="6.54556">
        <ele>1061</ele>
        <time>2010-09-26T10:09:03Z</time>
      </trkpt>
      <trkpt lat="43.75591" lon="6.54546">
        <ele>1060</ele>
        <time>2010-09-26T10:09:13Z</time>
      </trkpt>
      <trkpt lat="43.7558" lon="6.54536">
        <ele>1062</ele>
        <time>2010-09-26T10:09:24Z</time>
      </trkpt>
      <trkpt lat="43.75572" lon="6.54531">
        <ele>1062</ele>
        <time>2010-09-26T10:09:33Z</time>
      </trkpt>
      <trkpt lat="43.75567" lon="6.54526">
        <ele>1060</ele>
        <time>2010-09-26T10:09:40Z</time>
      </trkpt>
      <trkpt lat="43.7556" lon="6.54515">
        <ele>1061</ele>
        <time>2010-09-26T10:09:49Z</time>
      </trkpt>
      <trkpt lat="43.75553" lon="6.54504">
        <ele>1061</ele>
        <time>2010-09-26T10:09:58Z</time>
      </trkpt>
      <trkpt lat="43.75547" lon="6.54498">
        <ele>1060</ele>
        <time>2010-09-26T10:10:04Z</time>
      </trkpt>
      <trkpt lat="43.75539" lon="6.54483">
        <ele>1061</ele>
        <time>2010-09-26T10:10:15Z</time>
      </trkpt>
      <trkpt lat="43.75533" lon="6.54474">
        <ele>1060</ele>
        <time>2010-09-26T10:10:22Z</time>
      </trkpt>
      <trkpt lat="43.75523" lon="6.54458">
        <ele>1061</ele>
        <time>2010-09-26T10:10:34Z</time>
      </trkpt>
      <trkpt lat="43.75516" lon="6.54449">
        <ele>1060</ele>
        <time>2010-09-26T10:10:40Z</time>
      </trkpt>
      <trkpt lat="43.75505" lon="6.54438">
        <ele>1063</ele>
        <time>2010-09-26T10:10:53Z</time>
      </trkpt>
      <trkpt lat="43.75496" lon="6.5443">
        <ele>1060</ele>
        <time>2010-09-26T10:11:02Z</time>
      </trkpt>
      <trkpt lat="43.75492" lon="6.54426">
        <ele>1063</ele>
        <time>2010-09-26T10:11:07Z</time>
      </trkpt>
      <trkpt lat="43.7549" lon="6.54425">
        <ele>1063</ele>
        <time>2010-09-26T10:11:08Z</time>
      </trkpt>
      <trkpt lat="43.75484" lon="6.54418">
        <ele>1062</ele>
        <time>2010-09-26T10:11:16Z</time>
      </trkpt>
      <trkpt lat="43.75483" lon="6.54414">
        <ele>1062</ele>
        <time>2010-09-26T10:11:21Z</time>
      </trkpt>
      <trkpt lat="43.7546" lon="6.54397">
        <ele>1059</ele>
        <time>2010-09-26T10:13:08Z</time>
      </trkpt>
      <trkpt lat="43.75459" lon="6.54396">
        <ele>1061</ele>
        <time>2010-09-26T10:13:09Z</time>
      </trkpt>
      <trkpt lat="43.75457" lon="6.54395">
        <ele>1065</ele>
        <time>2010-09-26T10:13:11Z</time>
      </trkpt>
      <trkpt lat="43.75455" lon="6.54395">
        <ele>1064</ele>
        <time>2010-09-26T10:13:12Z</time>
      </trkpt>
      <trkpt lat="43.75452" lon="6.54394">
        <ele>1063</ele>
        <time>2010-09-26T10:13:15Z</time>
      </trkpt>
      <trkpt lat="43.7545" lon="6.54393">
        <ele>1063</ele>
        <time>2010-09-26T10:13:17Z</time>
      </trkpt>
      <trkpt lat="43.75447" lon="6.5439">
        <ele>1063</ele>
        <time>2010-09-26T10:13:21Z</time>
      </trkpt>
      <trkpt lat="43.75443" lon="6.5438">
        <ele>1062</ele>
        <time>2010-09-26T10:13:30Z</time>
      </trkpt>
      <trkpt lat="43.75435" lon="6.54364">
        <ele>1063</ele>
        <time>2010-09-26T10:13:41Z</time>
      </trkpt>
      <trkpt lat="43.75435" lon="6.54362">
        <ele>1063</ele>
        <time>2010-09-26T10:13:42Z</time>
      </trkpt>
      <trkpt lat="43.75434" lon="6.54358">
        <ele>1063</ele>
        <time>2010-09-26T10:13:44Z</time>
      </trkpt>
      <trkpt lat="43.75431" lon="6.54343">
        <ele>1062</ele>
        <time>2010-09-26T10:13:56Z</time>
      </trkpt>
      <trkpt lat="43.75431" lon="6.54343">
        <ele>1063</ele>
        <time>2010-09-26T10:17:06Z</time>
      </trkpt>
      <trkpt lat="43.75437" lon="6.54357">
        <ele>1063</ele>
        <time>2010-09-26T10:17:20Z</time>
      </trkpt>
      <trkpt lat="43.75438" lon="6.54358">
        <ele>1062</ele>
        <time>2010-09-26T10:17:22Z</time>
      </trkpt>
      <trkpt lat="43.75445" lon="6.54376">
        <ele>1062</ele>
        <time>2010-09-26T10:17:34Z</time>
      </trkpt>
      <trkpt lat="43.75451" lon="6.54387">
        <ele>1063</ele>
        <time>2010-09-26T10:18:04Z</time>
      </trkpt>
      <trkpt lat="43.75454" lon="6.5439">
        <ele>1063</ele>
        <time>2010-09-26T10:18:58Z</time>
      </trkpt>
      <trkpt lat="43.75462" lon="6.54393">
        <ele>1063</ele>
        <time>2010-09-26T10:19:10Z</time>
      </trkpt>
      <trkpt lat="43.75462" lon="6.54393">
        <ele>1063</ele>
        <time>2010-09-26T10:19:11Z</time>
      </trkpt>
      <trkpt lat="43.75465" lon="6.54391">
        <ele>1062</ele>
        <time>2010-09-26T10:19:15Z</time>
      </trkpt>
      <trkpt lat="43.75472" lon="6.54395">
        <ele>1063</ele>
        <time>2010-09-26T10:19:27Z</time>
      </trkpt>
      <trkpt lat="43.75472" lon="6.54395">
        <ele>1062</ele>
        <time>2010-09-26T10:19:56Z</time>
      </trkpt>
      <trkpt lat="43.75472" lon="6.54395">
        <ele>1062</ele>
        <time>2010-09-26T10:20:28Z</time>
      </trkpt>
      <trkpt lat="43.75467" lon="6.54398">
        <ele>1061</ele>
        <time>2010-09-26T10:20:38Z</time>
      </trkpt>
      <trkpt lat="43.75461" lon="6.54397">
        <ele>1064</ele>
        <time>2010-09-26T10:20:43Z</time>
      </trkpt>
      <trkpt lat="43.7546" lon="6.54396">
        <ele>1060</ele>
        <time>2010-09-26T10:20:44Z</time>
      </trkpt>
      <trkpt lat="43.75459" lon="6.54394">
        <ele>1061</ele>
        <time>2010-09-26T10:20:45Z</time>
      </trkpt>
      <trkpt lat="43.75458" lon="6.5439">
        <ele>1063</ele>
        <time>2010-09-26T10:20:48Z</time>
      </trkpt>
      <trkpt lat="43.75456" lon="6.54383">
        <ele>1064</ele>
        <time>2010-09-26T10:20:53Z</time>
      </trkpt>
      <trkpt lat="43.75456" lon="6.54372">
        <ele>1065</ele>
        <time>2010-09-26T10:21:05Z</time>
      </trkpt>
      <trkpt lat="43.75453" lon="6.5436">
        <ele>1069</ele>
        <time>2010-09-26T10:21:19Z</time>
      </trkpt>
      <trkpt lat="43.75453" lon="6.54358">
        <ele>1063</ele>
        <time>2010-09-26T10:21:20Z</time>
      </trkpt>
      <trkpt lat="43.75454" lon="6.54355">
        <ele>1068</ele>
        <time>2010-09-26T10:21:21Z</time>
      </trkpt>
      <trkpt lat="43.75453" lon="6.5435">
        <ele>1068</ele>
        <time>2010-09-26T10:21:26Z</time>
      </trkpt>
      <trkpt lat="43.75454" lon="6.54338">
        <ele>1072</ele>
        <time>2010-09-26T10:21:43Z</time>
      </trkpt>
      <trkpt lat="43.75454" lon="6.54338">
        <ele>1068</ele>
        <time>2010-09-26T10:21:44Z</time>
      </trkpt>
      <trkpt lat="43.75454" lon="6.54337">
        <ele>1072</ele>
        <time>2010-09-26T10:21:51Z</time>
      </trkpt>
      <trkpt lat="43.75454" lon="6.54336">
        <ele>1065</ele>
        <time>2010-09-26T10:21:52Z</time>
      </trkpt>
      <trkpt lat="43.75454" lon="6.54335">
        <ele>1073</ele>
        <time>2010-09-26T10:21:53Z</time>
      </trkpt>
      <trkpt lat="43.75453" lon="6.54334">
        <ele>1067</ele>
        <time>2010-09-26T10:21:54Z</time>
      </trkpt>
      <trkpt lat="43.75453" lon="6.54334">
        <ele>1072</ele>
        <time>2010-09-26T10:21:55Z</time>
      </trkpt>
      <trkpt lat="43.75449" lon="6.54313">
        <ele>1074</ele>
        <time>2010-09-26T10:22:13Z</time>
      </trkpt>
      <trkpt lat="43.75449" lon="6.54313">
        <ele>1070</ele>
        <time>2010-09-26T10:22:16Z</time>
      </trkpt>
      <trkpt lat="43.75449" lon="6.54313">
        <ele>1074</ele>
        <time>2010-09-26T10:22:18Z</time>
      </trkpt>
      <trkpt lat="43.75449" lon="6.54313">
        <ele>1074</ele>
        <time>2010-09-26T10:22:19Z</time>
      </trkpt>
      <trkpt lat="43.75447" lon="6.54309">
        <ele>1070</ele>
        <time>2010-09-26T10:22:24Z</time>
      </trkpt>
      <trkpt lat="43.75447" lon="6.54309">
        <ele>1074</ele>
        <time>2010-09-26T10:22:25Z</time>
      </trkpt>
      <trkpt lat="43.75447" lon="6.54309">
        <ele>1077</ele>
        <time>2010-09-26T10:22:28Z</time>
      </trkpt>
      <trkpt lat="43.75444" lon="6.54307">
        <ele>1073</ele>
        <time>2010-09-26T10:22:32Z</time>
      </trkpt>
      <trkpt lat="43.75443" lon="6.54304">
        <ele>1078</ele>
        <time>2010-09-26T10:22:35Z</time>
      </trkpt>
      <trkpt lat="43.75442" lon="6.54303">
        <ele>1073</ele>
        <time>2010-09-26T10:22:36Z</time>
      </trkpt>
      <trkpt lat="43.75442" lon="6.54301">
        <ele>1078</ele>
        <time>2010-09-26T10:22:37Z</time>
      </trkpt>
      <trkpt lat="43.75439" lon="6.54296">
        <ele>1077</ele>
        <time>2010-09-26T10:22:42Z</time>
      </trkpt>
      <trkpt lat="43.75438" lon="6.54295">
        <ele>1080</ele>
        <time>2010-09-26T10:22:45Z</time>
      </trkpt>
      <trkpt lat="43.75438" lon="6.54294">
        <ele>1078</ele>
        <time>2010-09-26T10:22:46Z</time>
      </trkpt>
      <trkpt lat="43.75436" lon="6.54289">
        <ele>1081</ele>
        <time>2010-09-26T10:22:53Z</time>
      </trkpt>
      <trkpt lat="43.75436" lon="6.54279">
        <ele>1080</ele>
        <time>2010-09-26T10:23:04Z</time>
      </trkpt>
      <trkpt lat="43.75434" lon="6.54271">
        <ele>1083</ele>
        <time>2010-09-26T10:23:16Z</time>
      </trkpt>
      <trkpt lat="43.75434" lon="6.54263">
        <ele>1085</ele>
        <time>2010-09-26T10:23:31Z</time>
      </trkpt>
      <trkpt lat="43.75431" lon="6.54253">
        <ele>1087</ele>
        <time>2010-09-26T10:23:43Z</time>
      </trkpt>
      <trkpt lat="43.75431" lon="6.54239">
        <ele>1090</ele>
        <time>2010-09-26T10:24:00Z</time>
      </trkpt>
      <trkpt lat="43.75436" lon="6.54238">
        <ele>1091</ele>
        <time>2010-09-26T10:24:10Z</time>
      </trkpt>
      <trkpt lat="43.75442" lon="6.54245">
        <ele>1093</ele>
        <time>2010-09-26T10:24:22Z</time>
      </trkpt>
      <trkpt lat="43.75446" lon="6.54247">
        <ele>1095</ele>
        <time>2010-09-26T10:24:33Z</time>
      </trkpt>
      <trkpt lat="43.75454" lon="6.54249">
        <ele>1097</ele>
        <time>2010-09-26T10:24:45Z</time>
      </trkpt>
      <trkpt lat="43.75457" lon="6.54246">
        <ele>1098</ele>
        <time>2010-09-26T10:24:56Z</time>
      </trkpt>
      <trkpt lat="43.75457" lon="6.54242">
        <ele>1100</ele>
        <time>2010-09-26T10:25:09Z</time>
      </trkpt>
      <trkpt lat="43.75453" lon="6.54231">
        <ele>1102</ele>
        <time>2010-09-26T10:25:23Z</time>
      </trkpt>
      <trkpt lat="43.75455" lon="6.54224">
        <ele>1104</ele>
        <time>2010-09-26T10:25:39Z</time>
      </trkpt>
      <trkpt lat="43.75458" lon="6.54213">
        <ele>1106</ele>
        <time>2010-09-26T10:25:50Z</time>
      </trkpt>
      <trkpt lat="43.75459" lon="6.54202">
        <ele>1108</ele>
        <time>2010-09-26T10:26:02Z</time>
      </trkpt>
      <trkpt lat="43.75462" lon="6.54194">
        <ele>1110</ele>
        <time>2010-09-26T10:26:15Z</time>
      </trkpt>
      <trkpt lat="43.75468" lon="6.54189">
        <ele>1113</ele>
        <time>2010-09-26T10:26:34Z</time>
      </trkpt>
      <trkpt lat="43.75469" lon="6.54187">
        <ele>1115</ele>
        <time>2010-09-26T10:26:47Z</time>
      </trkpt>
      <trkpt lat="43.7547" lon="6.54187">
        <ele>1110</ele>
        <time>2010-09-26T10:27:00Z</time>
      </trkpt>
      <trkpt lat="43.7547" lon="6.54187">
        <ele>1114</ele>
        <time>2010-09-26T10:27:01Z</time>
      </trkpt>
      <trkpt lat="43.75472" lon="6.54186">
        <ele>1112</ele>
        <time>2010-09-26T10:27:40Z</time>
      </trkpt>
      <trkpt lat="43.75472" lon="6.54186">
        <ele>1117</ele>
        <time>2010-09-26T10:27:41Z</time>
      </trkpt>
      <trkpt lat="43.75472" lon="6.54186">
        <ele>1116</ele>
        <time>2010-09-26T10:27:42Z</time>
      </trkpt>
      <trkpt lat="43.75472" lon="6.54186">
        <ele>1114</ele>
        <time>2010-09-26T10:27:44Z</time>
      </trkpt>
      <trkpt lat="43.75472" lon="6.54186">
        <ele>1110</ele>
        <time>2010-09-26T10:27:55Z</time>
      </trkpt>
      <trkpt lat="43.75472" lon="6.54186">
        <ele>1116</ele>
        <time>2010-09-26T10:27:56Z</time>
      </trkpt>
      <trkpt lat="43.75473" lon="6.54181">
        <ele>1112</ele>
        <time>2010-09-26T10:28:04Z</time>
      </trkpt>
      <trkpt lat="43.75473" lon="6.5418">
        <ele>1117</ele>
        <time>2010-09-26T10:28:05Z</time>
      </trkpt>
      <trkpt lat="43.75473" lon="6.54178">
        <ele>1113</ele>
        <time>2010-09-26T10:28:07Z</time>
      </trkpt>
      <trkpt lat="43.75473" lon="6.54178">
        <ele>1116</ele>
        <time>2010-09-26T10:28:08Z</time>
      </trkpt>
      <trkpt lat="43.75473" lon="6.54172">
        <ele>1112</ele>
        <time>2010-09-26T10:28:12Z</time>
      </trkpt>
      <trkpt lat="43.75473" lon="6.54171">
        <ele>1117</ele>
        <time>2010-09-26T10:28:13Z</time>
      </trkpt>
      <trkpt lat="43.75473" lon="6.5417">
        <ele>1114</ele>
        <time>2010-09-26T10:28:14Z</time>
      </trkpt>
      <trkpt lat="43.75473" lon="6.54169">
        <ele>1119</ele>
        <time>2010-09-26T10:28:15Z</time>
      </trkpt>
      <trkpt lat="43.75475" lon="6.54165">
        <ele>1115</ele>
        <time>2010-09-26T10:28:25Z</time>
      </trkpt>
      <trkpt lat="43.75475" lon="6.54165">
        <ele>1120</ele>
        <time>2010-09-26T10:28:26Z</time>
      </trkpt>
      <trkpt lat="43.75476" lon="6.54162">
        <ele>1117</ele>
        <time>2010-09-26T10:28:29Z</time>
      </trkpt>
      <trkpt lat="43.75476" lon="6.54161">
        <ele>1122</ele>
        <time>2010-09-26T10:28:31Z</time>
      </trkpt>
      <trkpt lat="43.75476" lon="6.5416">
        <ele>1116</ele>
        <time>2010-09-26T10:28:32Z</time>
      </trkpt>
      <trkpt lat="43.75476" lon="6.54159">
        <ele>1120</ele>
        <time>2010-09-26T10:28:33Z</time>
      </trkpt>
      <trkpt lat="43.75477" lon="6.54157">
        <ele>1121</ele>
        <time>2010-09-26T10:28:35Z</time>
      </trkpt>
      <trkpt lat="43.75477" lon="6.54155">
        <ele>1118</ele>
        <time>2010-09-26T10:28:37Z</time>
      </trkpt>
      <trkpt lat="43.75478" lon="6.54154">
        <ele>1123</ele>
        <time>2010-09-26T10:28:39Z</time>
      </trkpt>
      <trkpt lat="43.75478" lon="6.5415">
        <ele>1118</ele>
        <time>2010-09-26T10:28:42Z</time>
      </trkpt>
      <trkpt lat="43.75477" lon="6.54149">
        <ele>1122</ele>
        <time>2010-09-26T10:28:43Z</time>
      </trkpt>
      <trkpt lat="43.75477" lon="6.54143">
        <ele>1123</ele>
        <time>2010-09-26T10:28:54Z</time>
      </trkpt>
      <trkpt lat="43.75481" lon="6.54125">
        <ele>1127</ele>
        <time>2010-09-26T10:29:16Z</time>
      </trkpt>
      <trkpt lat="43.75483" lon="6.54094">
        <ele>1130</ele>
        <time>2010-09-26T10:29:50Z</time>
      </trkpt>
      <trkpt lat="43.7548" lon="6.54083">
        <ele>1134</ele>
        <time>2010-09-26T10:30:01Z</time>
      </trkpt>
      <trkpt lat="43.7548" lon="6.54082">
        <ele>1129</ele>
        <time>2010-09-26T10:30:02Z</time>
      </trkpt>
      <trkpt lat="43.7548" lon="6.5408">
        <ele>1133</ele>
        <time>2010-09-26T10:30:05Z</time>
      </trkpt>
      <trkpt lat="43.75482" lon="6.54073">
        <ele>1133</ele>
        <time>2010-09-26T10:30:14Z</time>
      </trkpt>
      <trkpt lat="43.7548" lon="6.54067">
        <ele>1137</ele>
        <time>2010-09-26T10:30:24Z</time>
      </trkpt>
      <trkpt lat="43.75479" lon="6.54063">
        <ele>1132</ele>
        <time>2010-09-26T10:30:27Z</time>
      </trkpt>
      <trkpt lat="43.75478" lon="6.54061">
        <ele>1135</ele>
        <time>2010-09-26T10:30:28Z</time>
      </trkpt>
      <trkpt lat="43.75477" lon="6.54054">
        <ele>1137</ele>
        <time>2010-09-26T10:30:35Z</time>
      </trkpt>
      <trkpt lat="43.75477" lon="6.54047">
        <ele>1137</ele>
        <time>2010-09-26T10:31:17Z</time>
      </trkpt>
      <trkpt lat="43.75475" lon="6.54042">
        <ele>1141</ele>
        <time>2010-09-26T10:31:21Z</time>
      </trkpt>
      <trkpt lat="43.75475" lon="6.54041">
        <ele>1135</ele>
        <time>2010-09-26T10:31:22Z</time>
      </trkpt>
      <trkpt lat="43.75475" lon="6.5404">
        <ele>1138</ele>
        <time>2010-09-26T10:31:23Z</time>
      </trkpt>
      <trkpt lat="43.75476" lon="6.54033">
        <ele>1142</ele>
        <time>2010-09-26T10:31:30Z</time>
      </trkpt>
      <trkpt lat="43.75475" lon="6.54032">
        <ele>1136</ele>
        <time>2010-09-26T10:31:31Z</time>
      </trkpt>
      <trkpt lat="43.75474" lon="6.54032">
        <ele>1140</ele>
        <time>2010-09-26T10:31:32Z</time>
      </trkpt>
      <trkpt lat="43.75473" lon="6.54028">
        <ele>1137</ele>
        <time>2010-09-26T10:31:39Z</time>
      </trkpt>
      <trkpt lat="43.75472" lon="6.54027">
        <ele>1142</ele>
        <time>2010-09-26T10:31:40Z</time>
      </trkpt>
      <trkpt lat="43.7547" lon="6.54013">
        <ele>1145</ele>
        <time>2010-09-26T10:32:01Z</time>
      </trkpt>
      <trkpt lat="43.75465" lon="6.54">
        <ele>1149</ele>
        <time>2010-09-26T10:32:20Z</time>
      </trkpt>
      <trkpt lat="43.75464" lon="6.53998">
        <ele>1146</ele>
        <time>2010-09-26T10:32:23Z</time>
      </trkpt>
      <trkpt lat="43.75463" lon="6.53996">
        <ele>1149</ele>
        <time>2010-09-26T10:32:25Z</time>
      </trkpt>
      <trkpt lat="43.75462" lon="6.53995">
        <ele>1146</ele>
        <time>2010-09-26T10:32:28Z</time>
      </trkpt>
      <trkpt lat="43.75462" lon="6.53995">
        <ele>1150</ele>
        <time>2010-09-26T10:32:30Z</time>
      </trkpt>
      <trkpt lat="43.75462" lon="6.53994">
        <ele>1146</ele>
        <time>2010-09-26T10:32:31Z</time>
      </trkpt>
      <trkpt lat="43.75461" lon="6.53993">
        <ele>1150</ele>
        <time>2010-09-26T10:32:32Z</time>
      </trkpt>
      <trkpt lat="43.75458" lon="6.53985">
        <ele>1147</ele>
        <time>2010-09-26T10:32:46Z</time>
      </trkpt>
      <trkpt lat="43.75457" lon="6.53984">
        <ele>1152</ele>
        <time>2010-09-26T10:32:47Z</time>
      </trkpt>
      <trkpt lat="43.75457" lon="6.53983">
        <ele>1148</ele>
        <time>2010-09-26T10:32:48Z</time>
      </trkpt>
      <trkpt lat="43.75457" lon="6.53983">
        <ele>1152</ele>
        <time>2010-09-26T10:32:50Z</time>
      </trkpt>
      <trkpt lat="43.75457" lon="6.53983">
        <ele>1148</ele>
        <time>2010-09-26T10:32:51Z</time>
      </trkpt>
      <trkpt lat="43.75457" lon="6.53983">
        <ele>1152</ele>
        <time>2010-09-26T10:32:52Z</time>
      </trkpt>
      <trkpt lat="43.75458" lon="6.53982">
        <ele>1148</ele>
        <time>2010-09-26T10:32:53Z</time>
      </trkpt>
      <trkpt lat="43.75458" lon="6.53982">
        <ele>1152</ele>
        <time>2010-09-26T10:32:54Z</time>
      </trkpt>
      <trkpt lat="43.75459" lon="6.5398">
        <ele>1148</ele>
        <time>2010-09-26T10:32:56Z</time>
      </trkpt>
      <trkpt lat="43.75459" lon="6.53979">
        <ele>1153</ele>
        <time>2010-09-26T10:32:57Z</time>
      </trkpt>
      <trkpt lat="43.75457" lon="6.53949">
        <ele>1153</ele>
        <time>2010-09-26T10:33:25Z</time>
      </trkpt>
      <trkpt lat="43.75458" lon="6.53945">
        <ele>1153</ele>
        <time>2010-09-26T10:33:30Z</time>
      </trkpt>
      <trkpt lat="43.75461" lon="6.53922">
        <ele>1151</ele>
        <time>2010-09-26T10:33:53Z</time>
      </trkpt>
      <trkpt lat="43.75462" lon="6.53916">
        <ele>1148</ele>
        <time>2010-09-26T10:34:01Z</time>
      </trkpt>
      <trkpt lat="43.75461" lon="6.53913">
        <ele>1151</ele>
        <time>2010-09-26T10:34:03Z</time>
      </trkpt>
      <trkpt lat="43.7546" lon="6.5391">
        <ele>1152</ele>
        <time>2010-09-26T10:34:05Z</time>
      </trkpt>
      <trkpt lat="43.75459" lon="6.53907">
        <ele>1150</ele>
        <time>2010-09-26T10:34:08Z</time>
      </trkpt>
      <trkpt lat="43.75458" lon="6.539">
        <ele>1152</ele>
        <time>2010-09-26T10:34:28Z</time>
      </trkpt>
      <trkpt lat="43.75454" lon="6.53876">
        <ele>1147</ele>
        <time>2010-09-26T10:34:40Z</time>
      </trkpt>
      <trkpt lat="43.75454" lon="6.53874">
        <ele>1147</ele>
        <time>2010-09-26T10:34:41Z</time>
      </trkpt>
      <trkpt lat="43.75455" lon="6.53868">
        <ele>1146</ele>
        <time>2010-09-26T10:34:50Z</time>
      </trkpt>
      <trkpt lat="43.75454" lon="6.5385">
        <ele>1147</ele>
        <time>2010-09-26T10:35:00Z</time>
      </trkpt>
      <trkpt lat="43.7545" lon="6.53844">
        <ele>1147</ele>
        <time>2010-09-26T10:35:05Z</time>
      </trkpt>
      <trkpt lat="43.75445" lon="6.53841">
        <ele>1148</ele>
        <time>2010-09-26T10:35:14Z</time>
      </trkpt>
      <trkpt lat="43.75444" lon="6.53839">
        <ele>1145</ele>
        <time>2010-09-26T10:35:16Z</time>
      </trkpt>
      <trkpt lat="43.75442" lon="6.53835">
        <ele>1148</ele>
        <time>2010-09-26T10:35:20Z</time>
      </trkpt>
      <trkpt lat="43.75441" lon="6.53834">
        <ele>1145</ele>
        <time>2010-09-26T10:35:21Z</time>
      </trkpt>
      <trkpt lat="43.7544" lon="6.53832">
        <ele>1148</ele>
        <time>2010-09-26T10:35:23Z</time>
      </trkpt>
      <trkpt lat="43.75434" lon="6.53817">
        <ele>1149</ele>
        <time>2010-09-26T10:35:38Z</time>
      </trkpt>
      <trkpt lat="43.75434" lon="6.53816">
        <ele>1147</ele>
        <time>2010-09-26T10:35:52Z</time>
      </trkpt>
      <trkpt lat="43.75432" lon="6.53812">
        <ele>1152</ele>
        <time>2010-09-26T10:36:16Z</time>
      </trkpt>
      <trkpt lat="43.75432" lon="6.53811">
        <ele>1147</ele>
        <time>2010-09-26T10:36:17Z</time>
      </trkpt>
      <trkpt lat="43.7543" lon="6.53808">
        <ele>1150</ele>
        <time>2010-09-26T10:36:21Z</time>
      </trkpt>
      <trkpt lat="43.7543" lon="6.53807">
        <ele>1150</ele>
        <time>2010-09-26T10:36:22Z</time>
      </trkpt>
      <trkpt lat="43.75427" lon="6.53807">
        <ele>1147</ele>
        <time>2010-09-26T10:36:25Z</time>
      </trkpt>
      <trkpt lat="43.75426" lon="6.53806">
        <ele>1152</ele>
        <time>2010-09-26T10:36:27Z</time>
      </trkpt>
      <trkpt lat="43.75427" lon="6.53806">
        <ele>1151</ele>
        <time>2010-09-26T10:36:28Z</time>
      </trkpt>
      <trkpt lat="43.75425" lon="6.53796">
        <ele>1154</ele>
        <time>2010-09-26T10:36:41Z</time>
      </trkpt>
      <trkpt lat="43.75425" lon="6.53795">
        <ele>1150</ele>
        <time>2010-09-26T10:36:42Z</time>
      </trkpt>
      <trkpt lat="43.75425" lon="6.53794">
        <ele>1155</ele>
        <time>2010-09-26T10:36:44Z</time>
      </trkpt>
      <trkpt lat="43.75424" lon="6.53793">
        <ele>1154</ele>
        <time>2010-09-26T10:36:45Z</time>
      </trkpt>
      <trkpt lat="43.75421" lon="6.53792">
        <ele>1157</ele>
        <time>2010-09-26T10:37:00Z</time>
      </trkpt>
      <trkpt lat="43.7542" lon="6.53792">
        <ele>1153</ele>
        <time>2010-09-26T10:37:01Z</time>
      </trkpt>
      <trkpt lat="43.75419" lon="6.53792">
        <ele>1157</ele>
        <time>2010-09-26T10:37:05Z</time>
      </trkpt>
      <trkpt lat="43.75419" lon="6.53791">
        <ele>1153</ele>
        <time>2010-09-26T10:37:10Z</time>
      </trkpt>
      <trkpt lat="43.75419" lon="6.53791">
        <ele>1157</ele>
        <time>2010-09-26T10:37:11Z</time>
      </trkpt>
      <trkpt lat="43.75412" lon="6.53788">
        <ele>1159</ele>
        <time>2010-09-26T10:37:27Z</time>
      </trkpt>
      <trkpt lat="43.75402" lon="6.53785">
        <ele>1160</ele>
        <time>2010-09-26T10:37:51Z</time>
      </trkpt>
      <trkpt lat="43.75393" lon="6.53787">
        <ele>1162</ele>
        <time>2010-09-26T10:38:16Z</time>
      </trkpt>
      <trkpt lat="43.75392" lon="6.53788">
        <ele>1158</ele>
        <time>2010-09-26T10:39:07Z</time>
      </trkpt>
      <trkpt lat="43.75391" lon="6.53789">
        <ele>1159</ele>
        <time>2010-09-26T10:39:08Z</time>
      </trkpt>
      <trkpt lat="43.75391" lon="6.53789">
        <ele>1160</ele>
        <time>2010-09-26T10:39:16Z</time>
      </trkpt>
      <trkpt lat="43.7539" lon="6.53789">
        <ele>1157</ele>
        <time>2010-09-26T10:39:20Z</time>
      </trkpt>
      <trkpt lat="43.7539" lon="6.53789">
        <ele>1163</ele>
        <time>2010-09-26T10:39:21Z</time>
      </trkpt>
      <trkpt lat="43.7539" lon="6.53789">
        <ele>1160</ele>
        <time>2010-09-26T10:39:22Z</time>
      </trkpt>
      <trkpt lat="43.75387" lon="6.5379">
        <ele>1171</ele>
        <time>2010-09-26T10:39:41Z</time>
      </trkpt>
      <trkpt lat="43.75387" lon="6.5379">
        <ele>1164</ele>
        <time>2010-09-26T10:39:42Z</time>
      </trkpt>
      <trkpt lat="43.75381" lon="6.53783">
        <ele>1163</ele>
        <time>2010-09-26T10:39:57Z</time>
      </trkpt>
      <trkpt lat="43.75379" lon="6.5378">
        <ele>1167</ele>
        <time>2010-09-26T10:40:00Z</time>
      </trkpt>
      <trkpt lat="43.75377" lon="6.5378">
        <ele>1162</ele>
        <time>2010-09-26T10:40:03Z</time>
      </trkpt>
      <trkpt lat="43.75377" lon="6.5378">
        <ele>1162</ele>
        <time>2010-09-26T10:40:04Z</time>
      </trkpt>
      <trkpt lat="43.75376" lon="6.53778">
        <ele>1166</ele>
        <time>2010-09-26T10:40:13Z</time>
      </trkpt>
      <trkpt lat="43.75377" lon="6.53777">
        <ele>1163</ele>
        <time>2010-09-26T10:40:14Z</time>
      </trkpt>
      <trkpt lat="43.75377" lon="6.53776">
        <ele>1167</ele>
        <time>2010-09-26T10:40:15Z</time>
      </trkpt>
      <trkpt lat="43.75387" lon="6.53769">
        <ele>1171</ele>
        <time>2010-09-26T10:40:42Z</time>
      </trkpt>
      <trkpt lat="43.75388" lon="6.53769">
        <ele>1167</ele>
        <time>2010-09-26T10:40:45Z</time>
      </trkpt>
      <trkpt lat="43.75388" lon="6.53768">
        <ele>1170</ele>
        <time>2010-09-26T10:40:46Z</time>
      </trkpt>
      <trkpt lat="43.75388" lon="6.53766">
        <ele>1171</ele>
        <time>2010-09-26T10:40:48Z</time>
      </trkpt>
      <trkpt lat="43.75388" lon="6.53766">
        <ele>1166</ele>
        <time>2010-09-26T10:40:49Z</time>
      </trkpt>
      <trkpt lat="43.75388" lon="6.53766">
        <ele>1172</ele>
        <time>2010-09-26T10:40:50Z</time>
      </trkpt>
      <trkpt lat="43.75387" lon="6.53761">
        <ele>1173</ele>
        <time>2010-09-26T10:41:03Z</time>
      </trkpt>
      <trkpt lat="43.75385" lon="6.53752">
        <ele>1176</ele>
        <time>2010-09-26T10:41:44Z</time>
      </trkpt>
      <trkpt lat="43.75385" lon="6.53752">
        <ele>1173</ele>
        <time>2010-09-26T10:41:45Z</time>
      </trkpt>
      <trkpt lat="43.75384" lon="6.5375">
        <ele>1177</ele>
        <time>2010-09-26T10:41:46Z</time>
      </trkpt>
      <trkpt lat="43.75384" lon="6.53749">
        <ele>1176</ele>
        <time>2010-09-26T10:41:50Z</time>
      </trkpt>
      <trkpt lat="43.75375" lon="6.53737">
        <ele>1175</ele>
        <time>2010-09-26T10:42:04Z</time>
      </trkpt>
      <trkpt lat="43.75372" lon="6.53733">
        <ele>1180</ele>
        <time>2010-09-26T10:42:09Z</time>
      </trkpt>
      <trkpt lat="43.75371" lon="6.53733">
        <ele>1176</ele>
        <time>2010-09-26T10:42:10Z</time>
      </trkpt>
      <trkpt lat="43.75367" lon="6.53728">
        <ele>1181</ele>
        <time>2010-09-26T10:42:20Z</time>
      </trkpt>
      <trkpt lat="43.75367" lon="6.53727">
        <ele>1177</ele>
        <time>2010-09-26T10:42:21Z</time>
      </trkpt>
      <trkpt lat="43.75366" lon="6.53724">
        <ele>1181</ele>
        <time>2010-09-26T10:42:26Z</time>
      </trkpt>
      <trkpt lat="43.75363" lon="6.53722">
        <ele>1183</ele>
        <time>2010-09-26T10:42:32Z</time>
      </trkpt>
      <trkpt lat="43.75352" lon="6.53722">
        <ele>1178</ele>
        <time>2010-09-26T10:42:43Z</time>
      </trkpt>
      <trkpt lat="43.75351" lon="6.53721">
        <ele>1183</ele>
        <time>2010-09-26T10:42:44Z</time>
      </trkpt>
      <trkpt lat="43.7535" lon="6.53718">
        <ele>1180</ele>
        <time>2010-09-26T10:42:46Z</time>
      </trkpt>
      <trkpt lat="43.75347" lon="6.53718">
        <ele>1184</ele>
        <time>2010-09-26T10:42:50Z</time>
      </trkpt>
      <trkpt lat="43.75347" lon="6.53718">
        <ele>1183</ele>
        <time>2010-09-26T10:42:51Z</time>
      </trkpt>
      <trkpt lat="43.75344" lon="6.53715">
        <ele>1179</ele>
        <time>2010-09-26T10:42:58Z</time>
      </trkpt>
      <trkpt lat="43.75344" lon="6.53714">
        <ele>1185</ele>
        <time>2010-09-26T10:42:59Z</time>
      </trkpt>
      <trkpt lat="43.75343" lon="6.5371">
        <ele>1181</ele>
        <time>2010-09-26T10:43:03Z</time>
      </trkpt>
      <trkpt lat="43.75343" lon="6.53709">
        <ele>1184</ele>
        <time>2010-09-26T10:43:04Z</time>
      </trkpt>
      <trkpt lat="43.75341" lon="6.53705">
        <ele>1182</ele>
        <time>2010-09-26T10:43:08Z</time>
      </trkpt>
      <trkpt lat="43.75341" lon="6.53704">
        <ele>1185</ele>
        <time>2010-09-26T10:43:09Z</time>
      </trkpt>
      <trkpt lat="43.75345" lon="6.53699">
        <ele>1185</ele>
        <time>2010-09-26T10:43:32Z</time>
      </trkpt>
      <trkpt lat="43.75345" lon="6.53699">
        <ele>1189</ele>
        <time>2010-09-26T10:43:36Z</time>
      </trkpt>
      <trkpt lat="43.75346" lon="6.53699">
        <ele>1192</ele>
        <time>2010-09-26T10:43:53Z</time>
      </trkpt>
      <trkpt lat="43.75346" lon="6.53699">
        <ele>1188</ele>
        <time>2010-09-26T10:43:54Z</time>
      </trkpt>
      <trkpt lat="43.75346" lon="6.53699">
        <ele>1193</ele>
        <time>2010-09-26T10:44:01Z</time>
      </trkpt>
      <trkpt lat="43.75346" lon="6.53699">
        <ele>1189</ele>
        <time>2010-09-26T10:44:02Z</time>
      </trkpt>
      <trkpt lat="43.75346" lon="6.53699">
        <ele>1194</ele>
        <time>2010-09-26T10:44:03Z</time>
      </trkpt>
      <trkpt lat="43.75346" lon="6.53699">
        <ele>1189</ele>
        <time>2010-09-26T10:44:04Z</time>
      </trkpt>
      <trkpt lat="43.75352" lon="6.53698">
        <ele>1192</ele>
        <time>2010-09-26T10:44:09Z</time>
      </trkpt>
      <trkpt lat="43.75369" lon="6.53696">
        <ele>1196</ele>
        <time>2010-09-26T10:44:25Z</time>
      </trkpt>
      <trkpt lat="43.75371" lon="6.53696">
        <ele>1192</ele>
        <time>2010-09-26T10:44:26Z</time>
      </trkpt>
      <trkpt lat="43.75378" lon="6.53695">
        <ele>1197</ele>
        <time>2010-09-26T10:44:31Z</time>
      </trkpt>
      <trkpt lat="43.75379" lon="6.53696">
        <ele>1192</ele>
        <time>2010-09-26T10:44:32Z</time>
      </trkpt>
      <trkpt lat="43.75379" lon="6.53696">
        <ele>1196</ele>
        <time>2010-09-26T10:44:33Z</time>
      </trkpt>
      <trkpt lat="43.7539" lon="6.53698">
        <ele>1199</ele>
        <time>2010-09-26T10:44:53Z</time>
      </trkpt>
      <trkpt lat="43.754" lon="6.5369">
        <ele>1202</ele>
        <time>2010-09-26T10:45:18Z</time>
      </trkpt>
      <trkpt lat="43.75407" lon="6.53682">
        <ele>1204</ele>
        <time>2010-09-26T10:45:35Z</time>
      </trkpt>
      <trkpt lat="43.75421" lon="6.53675">
        <ele>1206</ele>
        <time>2010-09-26T10:45:58Z</time>
      </trkpt>
      <trkpt lat="43.75432" lon="6.53676">
        <ele>1209</ele>
        <time>2010-09-26T10:46:15Z</time>
      </trkpt>
      <trkpt lat="43.75432" lon="6.53676">
        <ele>1206</ele>
        <time>2010-09-26T10:46:19Z</time>
      </trkpt>
      <trkpt lat="43.75435" lon="6.53676">
        <ele>1209</ele>
        <time>2010-09-26T10:46:21Z</time>
      </trkpt>
      <trkpt lat="43.7545" lon="6.53677">
        <ele>1212</ele>
        <time>2010-09-26T10:46:45Z</time>
      </trkpt>
      <trkpt lat="43.75461" lon="6.53672">
        <ele>1216</ele>
        <time>2010-09-26T10:47:14Z</time>
      </trkpt>
      <trkpt lat="43.75462" lon="6.53671">
        <ele>1212</ele>
        <time>2010-09-26T10:47:15Z</time>
      </trkpt>
      <trkpt lat="43.75462" lon="6.5367">
        <ele>1216</ele>
        <time>2010-09-26T10:47:16Z</time>
      </trkpt>
      <trkpt lat="43.75469" lon="6.53664">
        <ele>1218</ele>
        <time>2010-09-26T10:47:26Z</time>
      </trkpt>
      <trkpt lat="43.75471" lon="6.53662">
        <ele>1215</ele>
        <time>2010-09-26T10:47:30Z</time>
      </trkpt>
      <trkpt lat="43.75472" lon="6.53663">
        <ele>1218</ele>
        <time>2010-09-26T10:47:31Z</time>
      </trkpt>
      <trkpt lat="43.75479" lon="6.53663">
        <ele>1221</ele>
        <time>2010-09-26T10:47:45Z</time>
      </trkpt>
      <trkpt lat="43.7548" lon="6.53662">
        <ele>1217</ele>
        <time>2010-09-26T10:47:46Z</time>
      </trkpt>
      <trkpt lat="43.75481" lon="6.53662">
        <ele>1220</ele>
        <time>2010-09-26T10:47:47Z</time>
      </trkpt>
      <trkpt lat="43.75487" lon="6.53659">
        <ele>1221</ele>
        <time>2010-09-26T10:48:02Z</time>
      </trkpt>
      <trkpt lat="43.75489" lon="6.53657">
        <ele>1224</ele>
        <time>2010-09-26T10:51:54Z</time>
      </trkpt>
      <trkpt lat="43.75492" lon="6.53657">
        <ele>1221</ele>
        <time>2010-09-26T10:52:04Z</time>
      </trkpt>
      <trkpt lat="43.75492" lon="6.53657">
        <ele>1224</ele>
        <time>2010-09-26T10:52:05Z</time>
      </trkpt>
      <trkpt lat="43.75517" lon="6.5365">
        <ele>1226</ele>
        <time>2010-09-26T10:52:40Z</time>
      </trkpt>
      <trkpt lat="43.75528" lon="6.53635">
        <ele>1229</ele>
        <time>2010-09-26T10:53:05Z</time>
      </trkpt>
      <trkpt lat="43.75536" lon="6.53625">
        <ele>1230</ele>
        <time>2010-09-26T10:53:17Z</time>
      </trkpt>
      <trkpt lat="43.75543" lon="6.5363">
        <ele>1232</ele>
        <time>2010-09-26T10:53:33Z</time>
      </trkpt>
      <trkpt lat="43.75548" lon="6.53627">
        <ele>1232</ele>
        <time>2010-09-26T10:53:39Z</time>
      </trkpt>
      <trkpt lat="43.7556" lon="6.53625">
        <ele>1234</ele>
        <time>2010-09-26T10:53:53Z</time>
      </trkpt>
      <trkpt lat="43.75567" lon="6.53618">
        <ele>1235</ele>
        <time>2010-09-26T10:54:10Z</time>
      </trkpt>
      <trkpt lat="43.75583" lon="6.53617">
        <ele>1238</ele>
        <time>2010-09-26T10:54:34Z</time>
      </trkpt>
      <trkpt lat="43.75592" lon="6.53611">
        <ele>1239</ele>
        <time>2010-09-26T10:54:46Z</time>
      </trkpt>
      <trkpt lat="43.75594" lon="6.5361">
        <ele>1241</ele>
        <time>2010-09-26T10:54:56Z</time>
      </trkpt>
      <trkpt lat="43.75603" lon="6.53609">
        <ele>1242</ele>
        <time>2010-09-26T10:55:08Z</time>
      </trkpt>
      <trkpt lat="43.75612" lon="6.53605">
        <ele>1244</ele>
        <time>2010-09-26T10:55:20Z</time>
      </trkpt>
      <trkpt lat="43.75618" lon="6.53603">
        <ele>1244</ele>
        <time>2010-09-26T10:55:32Z</time>
      </trkpt>
      <trkpt lat="43.75629" lon="6.53604">
        <ele>1246</ele>
        <time>2010-09-26T10:55:48Z</time>
      </trkpt>
      <trkpt lat="43.75638" lon="6.53605">
        <ele>1247</ele>
        <time>2010-09-26T10:56:00Z</time>
      </trkpt>
      <trkpt lat="43.75646" lon="6.53607">
        <ele>1247</ele>
        <time>2010-09-26T10:56:10Z</time>
      </trkpt>
      <trkpt lat="43.75655" lon="6.53609">
        <ele>1248</ele>
        <time>2010-09-26T10:56:23Z</time>
      </trkpt>
      <trkpt lat="43.75665" lon="6.5361">
        <ele>1249</ele>
        <time>2010-09-26T10:56:34Z</time>
      </trkpt>
      <trkpt lat="43.75672" lon="6.53608">
        <ele>1249</ele>
        <time>2010-09-26T10:56:43Z</time>
      </trkpt>
      <trkpt lat="43.75679" lon="6.53606">
        <ele>1250</ele>
        <time>2010-09-26T10:56:56Z</time>
      </trkpt>
      <trkpt lat="43.75686" lon="6.53602">
        <ele>1251</ele>
        <time>2010-09-26T10:57:09Z</time>
      </trkpt>
      <trkpt lat="43.7569" lon="6.536">
        <ele>1252</ele>
        <time>2010-09-26T10:57:21Z</time>
      </trkpt>
      <trkpt lat="43.75697" lon="6.53597">
        <ele>1253</ele>
        <time>2010-09-26T10:57:34Z</time>
      </trkpt>
      <trkpt lat="43.75703" lon="6.53594">
        <ele>1253</ele>
        <time>2010-09-26T10:57:42Z</time>
      </trkpt>
      <trkpt lat="43.7571" lon="6.5359">
        <ele>1254</ele>
        <time>2010-09-26T10:57:54Z</time>
      </trkpt>
      <trkpt lat="43.75714" lon="6.53585">
        <ele>1255</ele>
        <time>2010-09-26T10:58:01Z</time>
      </trkpt>
      <trkpt lat="43.75722" lon="6.53588">
        <ele>1255</ele>
        <time>2010-09-26T10:58:12Z</time>
      </trkpt>
      <trkpt lat="43.75725" lon="6.53592">
        <ele>1256</ele>
        <time>2010-09-26T10:58:26Z</time>
      </trkpt>
      <trkpt lat="43.7573" lon="6.536">
        <ele>1258</ele>
        <time>2010-09-26T10:58:40Z</time>
      </trkpt>
      <trkpt lat="43.75736" lon="6.5361">
        <ele>1259</ele>
        <time>2010-09-26T10:58:54Z</time>
      </trkpt>
      <trkpt lat="43.75736" lon="6.5361">
        <ele>1259</ele>
        <time>2010-09-26T10:59:18Z</time>
      </trkpt>
      <trkpt lat="43.75736" lon="6.5361">
        <ele>1258</ele>
        <time>2010-09-26T11:00:15Z</time>
      </trkpt>
      <trkpt lat="43.75736" lon="6.5361">
        <ele>1259</ele>
        <time>2010-09-26T11:00:36Z</time>
      </trkpt>
      <trkpt lat="43.75738" lon="6.5361">
        <ele>1259</ele>
        <time>2010-09-26T11:01:23Z</time>
      </trkpt>
      <trkpt lat="43.75737" lon="6.5361">
        <ele>1254</ele>
        <time>2010-09-26T11:01:29Z</time>
      </trkpt>
      <trkpt lat="43.75737" lon="6.5361">
        <ele>1259</ele>
        <time>2010-09-26T11:01:30Z</time>
      </trkpt>
      <trkpt lat="43.75736" lon="6.53609">
        <ele>1258</ele>
        <time>2010-09-26T11:01:32Z</time>
      </trkpt>
      <trkpt lat="43.75732" lon="6.53612">
        <ele>1255</ele>
        <time>2010-09-26T11:01:42Z</time>
      </trkpt>
      <trkpt lat="43.75732" lon="6.53612">
        <ele>1258</ele>
        <time>2010-09-26T11:01:43Z</time>
      </trkpt>
      <trkpt lat="43.75732" lon="6.53613">
        <ele>1255</ele>
        <time>2010-09-26T11:01:47Z</time>
      </trkpt>
      <trkpt lat="43.75732" lon="6.53613">
        <ele>1259</ele>
        <time>2010-09-26T11:01:48Z</time>
      </trkpt>
      <trkpt lat="43.75733" lon="6.53614">
        <ele>1258</ele>
        <time>2010-09-26T11:01:52Z</time>
      </trkpt>
      <trkpt lat="43.75733" lon="6.53614">
        <ele>1255</ele>
        <time>2010-09-26T11:02:05Z</time>
      </trkpt>
      <trkpt lat="43.75733" lon="6.53614">
        <ele>1258</ele>
        <time>2010-09-26T11:02:06Z</time>
      </trkpt>
      <trkpt lat="43.75733" lon="6.53614">
        <ele>1254</ele>
        <time>2010-09-26T11:02:07Z</time>
      </trkpt>
      <trkpt lat="43.75733" lon="6.53614">
        <ele>1258</ele>
        <time>2010-09-26T11:02:08Z</time>
      </trkpt>
      <trkpt lat="43.75733" lon="6.53614">
        <ele>1255</ele>
        <time>2010-09-26T11:02:15Z</time>
      </trkpt>
      <trkpt lat="43.75733" lon="6.53614">
        <ele>1258</ele>
        <time>2010-09-26T11:02:16Z</time>
      </trkpt>
      <trkpt lat="43.75734" lon="6.53613">
        <ele>1255</ele>
        <time>2010-09-26T11:02:22Z</time>
      </trkpt>
      <trkpt lat="43.75734" lon="6.53613">
        <ele>1258</ele>
        <time>2010-09-26T11:02:23Z</time>
      </trkpt>
      <trkpt lat="43.75734" lon="6.53613">
        <ele>1261</ele>
        <time>2010-09-26T11:03:03Z</time>
      </trkpt>
      <trkpt lat="43.75734" lon="6.53613">
        <ele>1258</ele>
        <time>2010-09-26T11:03:06Z</time>
      </trkpt>
      <trkpt lat="43.75738" lon="6.53606">
        <ele>1269</ele>
        <time>2010-09-26T11:43:18Z</time>
      </trkpt>
      <trkpt lat="43.75737" lon="6.53606">
        <ele>1262</ele>
        <time>2010-09-26T11:43:23Z</time>
      </trkpt>
      <trkpt lat="43.75737" lon="6.53606">
        <ele>1267</ele>
        <time>2010-09-26T11:43:24Z</time>
      </trkpt>
      <trkpt lat="43.75737" lon="6.53605">
        <ele>1271</ele>
        <time>2010-09-26T11:43:28Z</time>
      </trkpt>
      <trkpt lat="43.75737" lon="6.53605">
        <ele>1267</ele>
        <time>2010-09-26T11:43:30Z</time>
      </trkpt>
      <trkpt lat="43.75737" lon="6.53605">
        <ele>1268</ele>
        <time>2010-09-26T11:43:59Z</time>
      </trkpt>
      <trkpt lat="43.75737" lon="6.53605">
        <ele>1267</ele>
        <time>2010-09-26T11:44:01Z</time>
      </trkpt>
      <trkpt lat="43.75738" lon="6.53598">
        <ele>1265</ele>
        <time>2010-09-26T11:45:12Z</time>
      </trkpt>
      <trkpt lat="43.75734" lon="6.53597">
        <ele>1265</ele>
        <time>2010-09-26T11:45:32Z</time>
      </trkpt>
      <trkpt lat="43.75732" lon="6.53597">
        <ele>1265</ele>
        <time>2010-09-26T11:45:45Z</time>
      </trkpt>
      <trkpt lat="43.75736" lon="6.53589">
        <ele>1264</ele>
        <time>2010-09-26T11:45:58Z</time>
      </trkpt>
      <trkpt lat="43.75737" lon="6.53588">
        <ele>1263</ele>
        <time>2010-09-26T11:46:13Z</time>
      </trkpt>
      <trkpt lat="43.75739" lon="6.53573">
        <ele>1260</ele>
        <time>2010-09-26T11:46:33Z</time>
      </trkpt>
      <trkpt lat="43.7574" lon="6.53559">
        <ele>1258</ele>
        <time>2010-09-26T11:46:45Z</time>
      </trkpt>
      <trkpt lat="43.75744" lon="6.53548">
        <ele>1256</ele>
        <time>2010-09-26T11:47:00Z</time>
      </trkpt>
      <trkpt lat="43.75747" lon="6.53534">
        <ele>1253</ele>
        <time>2010-09-26T11:47:25Z</time>
      </trkpt>
      <trkpt lat="43.75752" lon="6.53516">
        <ele>1250</ele>
        <time>2010-09-26T11:47:45Z</time>
      </trkpt>
      <trkpt lat="43.75753" lon="6.53498">
        <ele>1247</ele>
        <time>2010-09-26T11:48:07Z</time>
      </trkpt>
      <trkpt lat="43.75756" lon="6.53484">
        <ele>1245</ele>
        <time>2010-09-26T11:48:25Z</time>
      </trkpt>
      <trkpt lat="43.75765" lon="6.53462">
        <ele>1243</ele>
        <time>2010-09-26T11:48:41Z</time>
      </trkpt>
      <trkpt lat="43.75771" lon="6.53449">
        <ele>1242</ele>
        <time>2010-09-26T11:48:54Z</time>
      </trkpt>
      <trkpt lat="43.7577" lon="6.53434">
        <ele>1238</ele>
        <time>2010-09-26T11:49:15Z</time>
      </trkpt>
      <trkpt lat="43.75772" lon="6.53404">
        <ele>1236</ele>
        <time>2010-09-26T11:49:47Z</time>
      </trkpt>
      <trkpt lat="43.75768" lon="6.53377">
        <ele>1234</ele>
        <time>2010-09-26T11:50:13Z</time>
      </trkpt>
      <trkpt lat="43.75766" lon="6.53361">
        <ele>1232</ele>
        <time>2010-09-26T11:50:42Z</time>
      </trkpt>
      <trkpt lat="43.75765" lon="6.53351">
        <ele>1230</ele>
        <time>2010-09-26T11:50:58Z</time>
      </trkpt>
      <trkpt lat="43.75763" lon="6.5333">
        <ele>1227</ele>
        <time>2010-09-26T11:51:23Z</time>
      </trkpt>
      <trkpt lat="43.75761" lon="6.53311">
        <ele>1226</ele>
        <time>2010-09-26T11:51:36Z</time>
      </trkpt>
      <trkpt lat="43.75766" lon="6.533">
        <ele>1226</ele>
        <time>2010-09-26T11:51:48Z</time>
      </trkpt>
      <trkpt lat="43.75767" lon="6.53284">
        <ele>1224</ele>
        <time>2010-09-26T11:52:04Z</time>
      </trkpt>
      <trkpt lat="43.75775" lon="6.53282">
        <ele>1224</ele>
        <time>2010-09-26T11:52:18Z</time>
      </trkpt>
      <trkpt lat="43.75782" lon="6.53279">
        <ele>1223</ele>
        <time>2010-09-26T11:52:33Z</time>
      </trkpt>
      <trkpt lat="43.75791" lon="6.53271">
        <ele>1222</ele>
        <time>2010-09-26T11:52:49Z</time>
      </trkpt>
      <trkpt lat="43.75801" lon="6.53263">
        <ele>1221</ele>
        <time>2010-09-26T11:53:01Z</time>
      </trkpt>
      <trkpt lat="43.75811" lon="6.53264">
        <ele>1221</ele>
        <time>2010-09-26T11:53:15Z</time>
      </trkpt>
      <trkpt lat="43.75822" lon="6.53259">
        <ele>1219</ele>
        <time>2010-09-26T11:53:35Z</time>
      </trkpt>
      <trkpt lat="43.7584" lon="6.53254">
        <ele>1217</ele>
        <time>2010-09-26T11:54:05Z</time>
      </trkpt>
      <trkpt lat="43.75853" lon="6.53262">
        <ele>1216</ele>
        <time>2010-09-26T11:54:22Z</time>
      </trkpt>
      <trkpt lat="43.75863" lon="6.53264">
        <ele>1215</ele>
        <time>2010-09-26T11:54:36Z</time>
      </trkpt>
      <trkpt lat="43.75873" lon="6.5326">
        <ele>1211</ele>
        <time>2010-09-26T11:54:57Z</time>
      </trkpt>
      <trkpt lat="43.75881" lon="6.53255">
        <ele>1210</ele>
        <time>2010-09-26T11:55:07Z</time>
      </trkpt>
      <trkpt lat="43.75883" lon="6.53242">
        <ele>1209</ele>
        <time>2010-09-26T11:55:20Z</time>
      </trkpt>
      <trkpt lat="43.75887" lon="6.53224">
        <ele>1206</ele>
        <time>2010-09-26T11:55:44Z</time>
      </trkpt>
      <trkpt lat="43.75909" lon="6.53211">
        <ele>1203</ele>
        <time>2010-09-26T11:56:08Z</time>
      </trkpt>
      <trkpt lat="43.75921" lon="6.5319">
        <ele>1199</ele>
        <time>2010-09-26T11:56:35Z</time>
      </trkpt>
      <trkpt lat="43.75931" lon="6.53185">
        <ele>1196</ele>
        <time>2010-09-26T11:56:58Z</time>
      </trkpt>
      <trkpt lat="43.75934" lon="6.53186">
        <ele>1195</ele>
        <time>2010-09-26T11:57:16Z</time>
      </trkpt>
      <trkpt lat="43.75939" lon="6.53174">
        <ele>1194</ele>
        <time>2010-09-26T12:00:36Z</time>
      </trkpt>
      <trkpt lat="43.75939" lon="6.53165">
        <ele>1194</ele>
        <time>2010-09-26T12:00:42Z</time>
      </trkpt>
      <trkpt lat="43.75937" lon="6.53149">
        <ele>1193</ele>
        <time>2010-09-26T12:00:56Z</time>
      </trkpt>
      <trkpt lat="43.75935" lon="6.53139">
        <ele>1192</ele>
        <time>2010-09-26T12:01:04Z</time>
      </trkpt>
      <trkpt lat="43.75935" lon="6.53128">
        <ele>1191</ele>
        <time>2010-09-26T12:01:14Z</time>
      </trkpt>
      <trkpt lat="43.75934" lon="6.53114">
        <ele>1191</ele>
        <time>2010-09-26T12:01:26Z</time>
      </trkpt>
      <trkpt lat="43.7593" lon="6.53096">
        <ele>1190</ele>
        <time>2010-09-26T12:01:38Z</time>
      </trkpt>
      <trkpt lat="43.75924" lon="6.53085">
        <ele>1190</ele>
        <time>2010-09-26T12:01:53Z</time>
      </trkpt>
      <trkpt lat="43.75923" lon="6.53085">
        <ele>1190</ele>
        <time>2010-09-26T12:02:16Z</time>
      </trkpt>
      <trkpt lat="43.75923" lon="6.53096">
        <ele>1190</ele>
        <time>2010-09-26T12:02:36Z</time>
      </trkpt>
      <trkpt lat="43.75928" lon="6.53112">
        <ele>1190</ele>
        <time>2010-09-26T12:02:49Z</time>
      </trkpt>
      <trkpt lat="43.75932" lon="6.53129">
        <ele>1191</ele>
        <time>2010-09-26T12:03:02Z</time>
      </trkpt>
      <trkpt lat="43.75932" lon="6.53133">
        <ele>1191</ele>
        <time>2010-09-26T12:03:04Z</time>
      </trkpt>
      <trkpt lat="43.75934" lon="6.53149">
        <ele>1192</ele>
        <time>2010-09-26T12:03:15Z</time>
      </trkpt>
      <trkpt lat="43.75936" lon="6.53161">
        <ele>1192</ele>
        <time>2010-09-26T12:03:25Z</time>
      </trkpt>
      <trkpt lat="43.75938" lon="6.53178">
        <ele>1193</ele>
        <time>2010-09-26T12:03:40Z</time>
      </trkpt>
      <trkpt lat="43.75938" lon="6.53188">
        <ele>1194</ele>
        <time>2010-09-26T12:03:53Z</time>
      </trkpt>
      <trkpt lat="43.75938" lon="6.53193">
        <ele>1194</ele>
        <time>2010-09-26T12:04:04Z</time>
      </trkpt>
      <trkpt lat="43.7594" lon="6.53198">
        <ele>1194</ele>
        <time>2010-09-26T12:04:25Z</time>
      </trkpt>
      <trkpt lat="43.75938" lon="6.53208">
        <ele>1195</ele>
        <time>2010-09-26T12:04:35Z</time>
      </trkpt>
      <trkpt lat="43.75938" lon="6.53213">
        <ele>1195</ele>
        <time>2010-09-26T12:04:40Z</time>
      </trkpt>
      <trkpt lat="43.75931" lon="6.53208">
        <ele>1195</ele>
        <time>2010-09-26T12:04:52Z</time>
      </trkpt>
      <trkpt lat="43.75934" lon="6.53198">
        <ele>1195</ele>
        <time>2010-09-26T12:05:43Z</time>
      </trkpt>
      <trkpt lat="43.75938" lon="6.53193">
        <ele>1194</ele>
        <time>2010-09-26T12:05:54Z</time>
      </trkpt>
      <trkpt lat="43.75947" lon="6.53193">
        <ele>1192</ele>
        <time>2010-09-26T12:07:23Z</time>
      </trkpt>
      <trkpt lat="43.75951" lon="6.53196">
        <ele>1190</ele>
        <time>2010-09-26T12:07:36Z</time>
      </trkpt>
      <trkpt lat="43.7596" lon="6.53195">
        <ele>1187</ele>
        <time>2010-09-26T12:07:57Z</time>
      </trkpt>
      <trkpt lat="43.75966" lon="6.53206">
        <ele>1186</ele>
        <time>2010-09-26T12:08:13Z</time>
      </trkpt>
      <trkpt lat="43.75973" lon="6.53214">
        <ele>1185</ele>
        <time>2010-09-26T12:08:25Z</time>
      </trkpt>
      <trkpt lat="43.75979" lon="6.53214">
        <ele>1183</ele>
        <time>2010-09-26T12:08:38Z</time>
      </trkpt>
      <trkpt lat="43.75987" lon="6.53212">
        <ele>1181</ele>
        <time>2010-09-26T12:08:50Z</time>
      </trkpt>
      <trkpt lat="43.75992" lon="6.53215">
        <ele>1179</ele>
        <time>2010-09-26T12:09:10Z</time>
      </trkpt>
      <trkpt lat="43.75998" lon="6.5322">
        <ele>1176</ele>
        <time>2010-09-26T12:09:24Z</time>
      </trkpt>
      <trkpt lat="43.76003" lon="6.53229">
        <ele>1175</ele>
        <time>2010-09-26T12:09:36Z</time>
      </trkpt>
      <trkpt lat="43.76004" lon="6.5324">
        <ele>1174</ele>
        <time>2010-09-26T12:09:55Z</time>
      </trkpt>
      <trkpt lat="43.76011" lon="6.53253">
        <ele>1172</ele>
        <time>2010-09-26T12:10:08Z</time>
      </trkpt>
      <trkpt lat="43.76013" lon="6.53256">
        <ele>1170</ele>
        <time>2010-09-26T12:10:14Z</time>
      </trkpt>
      <trkpt lat="43.76024" lon="6.53266">
        <ele>1169</ele>
        <time>2010-09-26T12:10:25Z</time>
      </trkpt>
      <trkpt lat="43.76027" lon="6.53273">
        <ele>1167</ele>
        <time>2010-09-26T12:10:36Z</time>
      </trkpt>
      <trkpt lat="43.7603" lon="6.53277">
        <ele>1165</ele>
        <time>2010-09-26T12:10:40Z</time>
      </trkpt>
      <trkpt lat="43.76037" lon="6.53294">
        <ele>1165</ele>
        <time>2010-09-26T12:10:53Z</time>
      </trkpt>
      <trkpt lat="43.76039" lon="6.53304">
        <ele>1165</ele>
        <time>2010-09-26T12:11:02Z</time>
      </trkpt>
      <trkpt lat="43.76045" lon="6.53313">
        <ele>1164</ele>
        <time>2010-09-26T12:11:12Z</time>
      </trkpt>
      <trkpt lat="43.76048" lon="6.53321">
        <ele>1162</ele>
        <time>2010-09-26T12:11:19Z</time>
      </trkpt>
      <trkpt lat="43.76051" lon="6.53331">
        <ele>1161</ele>
        <time>2010-09-26T12:11:31Z</time>
      </trkpt>
      <trkpt lat="43.76054" lon="6.53345">
        <ele>1161</ele>
        <time>2010-09-26T12:11:47Z</time>
      </trkpt>
      <trkpt lat="43.76059" lon="6.53361">
        <ele>1160</ele>
        <time>2010-09-26T12:12:03Z</time>
      </trkpt>
      <trkpt lat="43.76067" lon="6.53378">
        <ele>1161</ele>
        <time>2010-09-26T12:12:17Z</time>
      </trkpt>
      <trkpt lat="43.76072" lon="6.53388">
        <ele>1159</ele>
        <time>2010-09-26T12:12:37Z</time>
      </trkpt>
      <trkpt lat="43.76076" lon="6.53397">
        <ele>1158</ele>
        <time>2010-09-26T12:12:49Z</time>
      </trkpt>
      <trkpt lat="43.76079" lon="6.53403">
        <ele>1157</ele>
        <time>2010-09-26T12:13:07Z</time>
      </trkpt>
      <trkpt lat="43.76082" lon="6.53416">
        <ele>1154</ele>
        <time>2010-09-26T12:13:23Z</time>
      </trkpt>
      <trkpt lat="43.76083" lon="6.53417">
        <ele>1153</ele>
        <time>2010-09-26T12:13:24Z</time>
      </trkpt>
      <trkpt lat="43.7609" lon="6.53434">
        <ele>1150</ele>
        <time>2010-09-26T12:13:36Z</time>
      </trkpt>
      <trkpt lat="43.76089" lon="6.53439">
        <ele>1151</ele>
        <time>2010-09-26T12:13:49Z</time>
      </trkpt>
      <trkpt lat="43.76088" lon="6.53437">
        <ele>1151</ele>
        <time>2010-09-26T12:14:04Z</time>
      </trkpt>
      <trkpt lat="43.76092" lon="6.53448">
        <ele>1149</ele>
        <time>2010-09-26T12:14:15Z</time>
      </trkpt>
      <trkpt lat="43.76094" lon="6.53452">
        <ele>1147</ele>
        <time>2010-09-26T12:14:40Z</time>
      </trkpt>
      <trkpt lat="43.76096" lon="6.53464">
        <ele>1144</ele>
        <time>2010-09-26T12:14:52Z</time>
      </trkpt>
      <trkpt lat="43.761" lon="6.53472">
        <ele>1143</ele>
        <time>2010-09-26T12:15:03Z</time>
      </trkpt>
      <trkpt lat="43.76104" lon="6.53463">
        <ele>1142</ele>
        <time>2010-09-26T12:15:27Z</time>
      </trkpt>
      <trkpt lat="43.76107" lon="6.53456">
        <ele>1142</ele>
        <time>2010-09-26T12:15:56Z</time>
      </trkpt>
      <trkpt lat="43.76108" lon="6.53445">
        <ele>1141</ele>
        <time>2010-09-26T12:16:09Z</time>
      </trkpt>
      <trkpt lat="43.76109" lon="6.53441">
        <ele>1141</ele>
        <time>2010-09-26T12:16:20Z</time>
      </trkpt>
      <trkpt lat="43.76113" lon="6.53435">
        <ele>1139</ele>
        <time>2010-09-26T12:16:54Z</time>
      </trkpt>
      <trkpt lat="43.76116" lon="6.53425">
        <ele>1138</ele>
        <time>2010-09-26T12:17:06Z</time>
      </trkpt>
      <trkpt lat="43.76116" lon="6.53417">
        <ele>1137</ele>
        <time>2010-09-26T12:17:21Z</time>
      </trkpt>
      <trkpt lat="43.76118" lon="6.53416">
        <ele>1137</ele>
        <time>2010-09-26T12:18:16Z</time>
      </trkpt>
      <trkpt lat="43.7612" lon="6.53413">
        <ele>1136</ele>
        <time>2010-09-26T12:18:30Z</time>
      </trkpt>
      <trkpt lat="43.76121" lon="6.53403">
        <ele>1135</ele>
        <time>2010-09-26T12:18:40Z</time>
      </trkpt>
      <trkpt lat="43.7612" lon="6.53387">
        <ele>1135</ele>
        <time>2010-09-26T12:18:53Z</time>
      </trkpt>
      <trkpt lat="43.76121" lon="6.53377">
        <ele>1134</ele>
        <time>2010-09-26T12:19:04Z</time>
      </trkpt>
      <trkpt lat="43.7612" lon="6.53363">
        <ele>1133</ele>
        <time>2010-09-26T12:19:17Z</time>
      </trkpt>
      <trkpt lat="43.76121" lon="6.53347">
        <ele>1132</ele>
        <time>2010-09-26T12:19:30Z</time>
      </trkpt>
      <trkpt lat="43.76119" lon="6.53328">
        <ele>1132</ele>
        <time>2010-09-26T12:19:44Z</time>
      </trkpt>
      <trkpt lat="43.76122" lon="6.53319">
        <ele>1130</ele>
        <time>2010-09-26T12:19:58Z</time>
      </trkpt>
      <trkpt lat="43.76125" lon="6.53315">
        <ele>1128</ele>
        <time>2010-09-26T12:20:05Z</time>
      </trkpt>
      <trkpt lat="43.76127" lon="6.53314">
        <ele>1127</ele>
        <time>2010-09-26T12:20:07Z</time>
      </trkpt>
      <trkpt lat="43.76128" lon="6.53316">
        <ele>1126</ele>
        <time>2010-09-26T12:20:09Z</time>
      </trkpt>
      <trkpt lat="43.76133" lon="6.53331">
        <ele>1127</ele>
        <time>2010-09-26T12:20:22Z</time>
      </trkpt>
      <trkpt lat="43.76135" lon="6.53337">
        <ele>1125</ele>
        <time>2010-09-26T12:20:28Z</time>
      </trkpt>
      <trkpt lat="43.76138" lon="6.53351">
        <ele>1124</ele>
        <time>2010-09-26T12:20:39Z</time>
      </trkpt>
      <trkpt lat="43.76145" lon="6.53361">
        <ele>1123</ele>
        <time>2010-09-26T12:20:52Z</time>
      </trkpt>
      <trkpt lat="43.76149" lon="6.5336">
        <ele>1123</ele>
        <time>2010-09-26T12:20:56Z</time>
      </trkpt>
      <trkpt lat="43.76153" lon="6.5335">
        <ele>1122</ele>
        <time>2010-09-26T12:21:08Z</time>
      </trkpt>
      <trkpt lat="43.76154" lon="6.53344">
        <ele>1121</ele>
        <time>2010-09-26T12:21:13Z</time>
      </trkpt>
      <trkpt lat="43.76153" lon="6.53341">
        <ele>1122</ele>
        <time>2010-09-26T12:21:16Z</time>
      </trkpt>
      <trkpt lat="43.76153" lon="6.53335">
        <ele>1121</ele>
        <time>2010-09-26T12:21:20Z</time>
      </trkpt>
      <trkpt lat="43.76152" lon="6.53323">
        <ele>1120</ele>
        <time>2010-09-26T12:21:30Z</time>
      </trkpt>
      <trkpt lat="43.7615" lon="6.53312">
        <ele>1119</ele>
        <time>2010-09-26T12:21:41Z</time>
      </trkpt>
      <trkpt lat="43.76151" lon="6.53304">
        <ele>1118</ele>
        <time>2010-09-26T12:21:46Z</time>
      </trkpt>
      <trkpt lat="43.76148" lon="6.53291">
        <ele>1118</ele>
        <time>2010-09-26T12:21:57Z</time>
      </trkpt>
      <trkpt lat="43.76145" lon="6.53273">
        <ele>1116</ele>
        <time>2010-09-26T12:22:12Z</time>
      </trkpt>
      <trkpt lat="43.76144" lon="6.53258">
        <ele>1115</ele>
        <time>2010-09-26T12:22:25Z</time>
      </trkpt>
      <trkpt lat="43.76143" lon="6.53243">
        <ele>1114</ele>
        <time>2010-09-26T12:22:37Z</time>
      </trkpt>
      <trkpt lat="43.76142" lon="6.53238">
        <ele>1113</ele>
        <time>2010-09-26T12:22:42Z</time>
      </trkpt>
      <trkpt lat="43.76143" lon="6.53231">
        <ele>1113</ele>
        <time>2010-09-26T12:22:47Z</time>
      </trkpt>
      <trkpt lat="43.76144" lon="6.53212">
        <ele>1112</ele>
        <time>2010-09-26T12:23:01Z</time>
      </trkpt>
      <trkpt lat="43.7615" lon="6.53193">
        <ele>1111</ele>
        <time>2010-09-26T12:23:14Z</time>
      </trkpt>
      <trkpt lat="43.76154" lon="6.53178">
        <ele>1110</ele>
        <time>2010-09-26T12:23:26Z</time>
      </trkpt>
      <trkpt lat="43.76156" lon="6.53166">
        <ele>1108</ele>
        <time>2010-09-26T12:23:36Z</time>
      </trkpt>
      <trkpt lat="43.7616" lon="6.53153">
        <ele>1108</ele>
        <time>2010-09-26T12:23:47Z</time>
      </trkpt>
      <trkpt lat="43.76163" lon="6.53138">
        <ele>1107</ele>
        <time>2010-09-26T12:23:59Z</time>
      </trkpt>
      <trkpt lat="43.76165" lon="6.53129">
        <ele>1106</ele>
        <time>2010-09-26T12:24:06Z</time>
      </trkpt>
      <trkpt lat="43.76166" lon="6.53125">
        <ele>1106</ele>
        <time>2010-09-26T12:24:09Z</time>
      </trkpt>
      <trkpt lat="43.76167" lon="6.53118">
        <ele>1104</ele>
        <time>2010-09-26T12:24:14Z</time>
      </trkpt>
      <trkpt lat="43.76167" lon="6.5311">
        <ele>1105</ele>
        <time>2010-09-26T12:24:20Z</time>
      </trkpt>
      <trkpt lat="43.76168" lon="6.53102">
        <ele>1104</ele>
        <time>2010-09-26T12:24:26Z</time>
      </trkpt>
      <trkpt lat="43.76168" lon="6.53083">
        <ele>1102</ele>
        <time>2010-09-26T12:24:40Z</time>
      </trkpt>
      <trkpt lat="43.76168" lon="6.53065">
        <ele>1101</ele>
        <time>2010-09-26T12:24:53Z</time>
      </trkpt>
      <trkpt lat="43.76168" lon="6.53057">
        <ele>1100</ele>
        <time>2010-09-26T12:24:58Z</time>
      </trkpt>
      <trkpt lat="43.76169" lon="6.53053">
        <ele>1099</ele>
        <time>2010-09-26T12:25:01Z</time>
      </trkpt>
      <trkpt lat="43.76169" lon="6.53042">
        <ele>1099</ele>
        <time>2010-09-26T12:25:08Z</time>
      </trkpt>
      <trkpt lat="43.76169" lon="6.53039">
        <ele>1098</ele>
        <time>2010-09-26T12:25:10Z</time>
      </trkpt>
      <trkpt lat="43.7617" lon="6.53022">
        <ele>1097</ele>
        <time>2010-09-26T12:25:24Z</time>
      </trkpt>
      <trkpt lat="43.7617" lon="6.53012">
        <ele>1097</ele>
        <time>2010-09-26T12:25:32Z</time>
      </trkpt>
      <trkpt lat="43.76171" lon="6.53003">
        <ele>1096</ele>
        <time>2010-09-26T12:25:40Z</time>
      </trkpt>
      <trkpt lat="43.76172" lon="6.52988">
        <ele>1094</ele>
        <time>2010-09-26T12:25:51Z</time>
      </trkpt>
      <trkpt lat="43.7617" lon="6.52981">
        <ele>1094</ele>
        <time>2010-09-26T12:25:57Z</time>
      </trkpt>
      <trkpt lat="43.76169" lon="6.52961">
        <ele>1093</ele>
        <time>2010-09-26T12:26:13Z</time>
      </trkpt>
      <trkpt lat="43.76168" lon="6.52948">
        <ele>1092</ele>
        <time>2010-09-26T12:26:22Z</time>
      </trkpt>
      <trkpt lat="43.76168" lon="6.52947">
        <ele>1091</ele>
        <time>2010-09-26T12:26:23Z</time>
      </trkpt>
      <trkpt lat="43.76167" lon="6.52943">
        <ele>1092</ele>
        <time>2010-09-26T12:26:26Z</time>
      </trkpt>
      <trkpt lat="43.76168" lon="6.52928">
        <ele>1091</ele>
        <time>2010-09-26T12:26:38Z</time>
      </trkpt>
      <trkpt lat="43.76168" lon="6.5292">
        <ele>1089</ele>
        <time>2010-09-26T12:26:45Z</time>
      </trkpt>
      <trkpt lat="43.76167" lon="6.52911">
        <ele>1089</ele>
        <time>2010-09-26T12:26:51Z</time>
      </trkpt>
      <trkpt lat="43.76165" lon="6.52898">
        <ele>1088</ele>
        <time>2010-09-26T12:27:03Z</time>
      </trkpt>
      <trkpt lat="43.76166" lon="6.52881">
        <ele>1087</ele>
        <time>2010-09-26T12:27:15Z</time>
      </trkpt>
      <trkpt lat="43.76167" lon="6.52867">
        <ele>1086</ele>
        <time>2010-09-26T12:27:26Z</time>
      </trkpt>
      <trkpt lat="43.76168" lon="6.52859">
        <ele>1085</ele>
        <time>2010-09-26T12:27:33Z</time>
      </trkpt>
      <trkpt lat="43.76169" lon="6.52851">
        <ele>1084</ele>
        <time>2010-09-26T12:27:39Z</time>
      </trkpt>
      <trkpt lat="43.76168" lon="6.52849">
        <ele>1084</ele>
        <time>2010-09-26T12:27:41Z</time>
      </trkpt>
      <trkpt lat="43.76169" lon="6.5284">
        <ele>1084</ele>
        <time>2010-09-26T12:27:51Z</time>
      </trkpt>
      <trkpt lat="43.76169" lon="6.52838">
        <ele>1084</ele>
        <time>2010-09-26T12:28:08Z</time>
      </trkpt>
      <trkpt lat="43.7617" lon="6.52835">
        <ele>1083</ele>
        <time>2010-09-26T12:28:20Z</time>
      </trkpt>
      <trkpt lat="43.76171" lon="6.52836">
        <ele>1084</ele>
        <time>2010-09-26T12:28:41Z</time>
      </trkpt>
      <trkpt lat="43.76177" lon="6.52845">
        <ele>1081</ele>
        <time>2010-09-26T12:31:14Z</time>
      </trkpt>
      <trkpt lat="43.76183" lon="6.52857">
        <ele>1081</ele>
        <time>2010-09-26T12:31:25Z</time>
      </trkpt>
      <trkpt lat="43.76191" lon="6.52865">
        <ele>1078</ele>
        <time>2010-09-26T12:31:39Z</time>
      </trkpt>
      <trkpt lat="43.76195" lon="6.52858">
        <ele>1076</ele>
        <time>2010-09-26T12:31:50Z</time>
      </trkpt>
      <trkpt lat="43.76197" lon="6.52858">
        <ele>1075</ele>
        <time>2010-09-26T12:31:54Z</time>
      </trkpt>
      <trkpt lat="43.76201" lon="6.52855">
        <ele>1074</ele>
        <time>2010-09-26T12:31:59Z</time>
      </trkpt>
      <trkpt lat="43.76207" lon="6.52853">
        <ele>1072</ele>
        <time>2010-09-26T12:32:09Z</time>
      </trkpt>
      <trkpt lat="43.76209" lon="6.52843">
        <ele>1071</ele>
        <time>2010-09-26T12:32:20Z</time>
      </trkpt>
      <trkpt lat="43.76212" lon="6.52843">
        <ele>1070</ele>
        <time>2010-09-26T12:32:26Z</time>
      </trkpt>
      <trkpt lat="43.76218" lon="6.52846">
        <ele>1068</ele>
        <time>2010-09-26T12:32:37Z</time>
      </trkpt>
      <trkpt lat="43.76223" lon="6.52837">
        <ele>1066</ele>
        <time>2010-09-26T12:32:48Z</time>
      </trkpt>
      <trkpt lat="43.76229" lon="6.52828">
        <ele>1063</ele>
        <time>2010-09-26T12:32:59Z</time>
      </trkpt>
      <trkpt lat="43.76229" lon="6.5282">
        <ele>1063</ele>
        <time>2010-09-26T12:33:09Z</time>
      </trkpt>
      <trkpt lat="43.76235" lon="6.5282">
        <ele>1061</ele>
        <time>2010-09-26T12:33:21Z</time>
      </trkpt>
      <trkpt lat="43.76241" lon="6.52825">
        <ele>1059</ele>
        <time>2010-09-26T12:33:31Z</time>
      </trkpt>
      <trkpt lat="43.7625" lon="6.52832">
        <ele>1056</ele>
        <time>2010-09-26T12:33:41Z</time>
      </trkpt>
      <trkpt lat="43.76256" lon="6.52835">
        <ele>1054</ele>
        <time>2010-09-26T12:33:49Z</time>
      </trkpt>
      <trkpt lat="43.76261" lon="6.52829">
        <ele>1052</ele>
        <time>2010-09-26T12:34:01Z</time>
      </trkpt>
      <trkpt lat="43.76266" lon="6.52826">
        <ele>1050</ele>
        <time>2010-09-26T12:34:08Z</time>
      </trkpt>
      <trkpt lat="43.76269" lon="6.52827">
        <ele>1050</ele>
        <time>2010-09-26T12:34:11Z</time>
      </trkpt>
      <trkpt lat="43.76273" lon="6.52835">
        <ele>1048</ele>
        <time>2010-09-26T12:34:24Z</time>
      </trkpt>
      <trkpt lat="43.76274" lon="6.52825">
        <ele>1047</ele>
        <time>2010-09-26T12:34:35Z</time>
      </trkpt>
      <trkpt lat="43.76276" lon="6.52817">
        <ele>1047</ele>
        <time>2010-09-26T12:34:45Z</time>
      </trkpt>
      <trkpt lat="43.7628" lon="6.5281">
        <ele>1045</ele>
        <time>2010-09-26T12:34:57Z</time>
      </trkpt>
      <trkpt lat="43.76282" lon="6.52809">
        <ele>1044</ele>
        <time>2010-09-26T12:35:08Z</time>
      </trkpt>
      <trkpt lat="43.76283" lon="6.5281">
        <ele>1044</ele>
        <time>2010-09-26T12:36:10Z</time>
      </trkpt>
      <trkpt lat="43.76283" lon="6.5281">
        <ele>1044</ele>
        <time>2010-09-26T12:36:39Z</time>
      </trkpt>
      <trkpt lat="43.76286" lon="6.52806">
        <ele>1043</ele>
        <time>2010-09-26T12:36:55Z</time>
      </trkpt>
      <trkpt lat="43.76287" lon="6.52803">
        <ele>1041</ele>
        <time>2010-09-26T12:37:10Z</time>
      </trkpt>
      <trkpt lat="43.76291" lon="6.52794">
        <ele>1039</ele>
        <time>2010-09-26T12:37:33Z</time>
      </trkpt>
      <trkpt lat="43.76293" lon="6.52788">
        <ele>1039</ele>
        <time>2010-09-26T12:37:38Z</time>
      </trkpt>
      <trkpt lat="43.76298" lon="6.52782">
        <ele>1037</ele>
        <time>2010-09-26T12:37:43Z</time>
      </trkpt>
      <trkpt lat="43.76299" lon="6.52776">
        <ele>1036</ele>
        <time>2010-09-26T12:37:47Z</time>
      </trkpt>
      <trkpt lat="43.76304" lon="6.52761">
        <ele>1034</ele>
        <time>2010-09-26T12:38:01Z</time>
      </trkpt>
      <trkpt lat="43.76304" lon="6.52762">
        <ele>1034</ele>
        <time>2010-09-26T12:38:02Z</time>
      </trkpt>
      <trkpt lat="43.76307" lon="6.5277">
        <ele>1032</ele>
        <time>2010-09-26T12:38:12Z</time>
      </trkpt>
      <trkpt lat="43.76308" lon="6.52772">
        <ele>1032</ele>
        <time>2010-09-26T12:38:14Z</time>
      </trkpt>
      <trkpt lat="43.76312" lon="6.5278">
        <ele>1029</ele>
        <time>2010-09-26T12:38:24Z</time>
      </trkpt>
      <trkpt lat="43.76315" lon="6.52783">
        <ele>1028</ele>
        <time>2010-09-26T12:38:30Z</time>
      </trkpt>
      <trkpt lat="43.76322" lon="6.52782">
        <ele>1025</ele>
        <time>2010-09-26T12:38:41Z</time>
      </trkpt>
      <trkpt lat="43.76325" lon="6.52782">
        <ele>1023</ele>
        <time>2010-09-26T12:38:52Z</time>
      </trkpt>
      <trkpt lat="43.76331" lon="6.52794">
        <ele>1022</ele>
        <time>2010-09-26T12:39:04Z</time>
      </trkpt>
      <trkpt lat="43.76337" lon="6.52806">
        <ele>1020</ele>
        <time>2010-09-26T12:39:17Z</time>
      </trkpt>
      <trkpt lat="43.76338" lon="6.52808">
        <ele>1019</ele>
        <time>2010-09-26T12:39:19Z</time>
      </trkpt>
      <trkpt lat="43.76339" lon="6.52811">
        <ele>1018</ele>
        <time>2010-09-26T12:39:22Z</time>
      </trkpt>
      <trkpt lat="43.7634" lon="6.52813">
        <ele>1019</ele>
        <time>2010-09-26T12:39:24Z</time>
      </trkpt>
      <trkpt lat="43.76343" lon="6.52817">
        <ele>1017</ele>
        <time>2010-09-26T12:39:28Z</time>
      </trkpt>
      <trkpt lat="43.76345" lon="6.5282">
        <ele>1017</ele>
        <time>2010-09-26T12:39:32Z</time>
      </trkpt>
      <trkpt lat="43.76346" lon="6.52823">
        <ele>1016</ele>
        <time>2010-09-26T12:39:34Z</time>
      </trkpt>
      <trkpt lat="43.76348" lon="6.52829">
        <ele>1017</ele>
        <time>2010-09-26T12:39:39Z</time>
      </trkpt>
      <trkpt lat="43.76355" lon="6.52844">
        <ele>1014</ele>
        <time>2010-09-26T12:39:52Z</time>
      </trkpt>
      <trkpt lat="43.76355" lon="6.52846">
        <ele>1014</ele>
        <time>2010-09-26T12:39:54Z</time>
      </trkpt>
      <trkpt lat="43.76367" lon="6.5286">
        <ele>1012</ele>
        <time>2010-09-26T12:40:08Z</time>
      </trkpt>
      <trkpt lat="43.76374" lon="6.52871">
        <ele>1010</ele>
        <time>2010-09-26T12:40:17Z</time>
      </trkpt>
      <trkpt lat="43.76375" lon="6.52872">
        <ele>1010</ele>
        <time>2010-09-26T12:40:19Z</time>
      </trkpt>
      <trkpt lat="43.76379" lon="6.5288">
        <ele>1010</ele>
        <time>2010-09-26T12:40:25Z</time>
      </trkpt>
      <trkpt lat="43.76383" lon="6.52885">
        <ele>1009</ele>
        <time>2010-09-26T12:40:31Z</time>
      </trkpt>
      <trkpt lat="43.76388" lon="6.52897">
        <ele>1008</ele>
        <time>2010-09-26T12:40:40Z</time>
      </trkpt>
      <trkpt lat="43.76394" lon="6.52906">
        <ele>1006</ele>
        <time>2010-09-26T12:40:56Z</time>
      </trkpt>
      <trkpt lat="43.76395" lon="6.52907">
        <ele>1005</ele>
        <time>2010-09-26T12:41:13Z</time>
      </trkpt>
      <trkpt lat="43.764" lon="6.52911">
        <ele>1004</ele>
        <time>2010-09-26T12:41:36Z</time>
      </trkpt>
      <trkpt lat="43.76401" lon="6.52914">
        <ele>1005</ele>
        <time>2010-09-26T12:41:46Z</time>
      </trkpt>
      <trkpt lat="43.76402" lon="6.52918">
        <ele>1005</ele>
        <time>2010-09-26T12:42:33Z</time>
      </trkpt>
      <trkpt lat="43.76405" lon="6.52921">
        <ele>1004</ele>
        <time>2010-09-26T12:42:54Z</time>
      </trkpt>
      <trkpt lat="43.76407" lon="6.52924">
        <ele>1003</ele>
        <time>2010-09-26T12:42:57Z</time>
      </trkpt>
      <trkpt lat="43.76409" lon="6.52928">
        <ele>1003</ele>
        <time>2010-09-26T12:43:00Z</time>
      </trkpt>
      <trkpt lat="43.76414" lon="6.52933">
        <ele>1002</ele>
        <time>2010-09-26T12:43:05Z</time>
      </trkpt>
      <trkpt lat="43.76419" lon="6.52941">
        <ele>1001</ele>
        <time>2010-09-26T12:43:11Z</time>
      </trkpt>
      <trkpt lat="43.76423" lon="6.5295">
        <ele>1001</ele>
        <time>2010-09-26T12:43:19Z</time>
      </trkpt>
      <trkpt lat="43.76427" lon="6.52959">
        <ele>1001</ele>
        <time>2010-09-26T12:43:28Z</time>
      </trkpt>
      <trkpt lat="43.7643" lon="6.52965">
        <ele>999</ele>
        <time>2010-09-26T12:43:33Z</time>
      </trkpt>
      <trkpt lat="43.76437" lon="6.52976">
        <ele>999</ele>
        <time>2010-09-26T12:43:45Z</time>
      </trkpt>
      <trkpt lat="43.7644" lon="6.5298">
        <ele>999</ele>
        <time>2010-09-26T12:43:50Z</time>
      </trkpt>
      <trkpt lat="43.76444" lon="6.5299">
        <ele>998</ele>
        <time>2010-09-26T12:44:02Z</time>
      </trkpt>
      <trkpt lat="43.76451" lon="6.52997">
        <ele>996</ele>
        <time>2010-09-26T12:44:12Z</time>
      </trkpt>
      <trkpt lat="43.76458" lon="6.53002">
        <ele>996</ele>
        <time>2010-09-26T12:44:23Z</time>
      </trkpt>
      <trkpt lat="43.76468" lon="6.5301">
        <ele>994</ele>
        <time>2010-09-26T12:44:34Z</time>
      </trkpt>
      <trkpt lat="43.76472" lon="6.53009">
        <ele>993</ele>
        <time>2010-09-26T12:44:43Z</time>
      </trkpt>
      <trkpt lat="43.76473" lon="6.53008">
        <ele>992</ele>
        <time>2010-09-26T12:44:44Z</time>
      </trkpt>
      <trkpt lat="43.76476" lon="6.53004">
        <ele>991</ele>
        <time>2010-09-26T12:44:48Z</time>
      </trkpt>
      <trkpt lat="43.76477" lon="6.52992">
        <ele>991</ele>
        <time>2010-09-26T12:44:57Z</time>
      </trkpt>
      <trkpt lat="43.76478" lon="6.52981">
        <ele>990</ele>
        <time>2010-09-26T12:45:05Z</time>
      </trkpt>
      <trkpt lat="43.76479" lon="6.52975">
        <ele>988</ele>
        <time>2010-09-26T12:45:09Z</time>
      </trkpt>
      <trkpt lat="43.76483" lon="6.52963">
        <ele>988</ele>
        <time>2010-09-26T12:45:19Z</time>
      </trkpt>
      <trkpt lat="43.76484" lon="6.52959">
        <ele>987</ele>
        <time>2010-09-26T12:45:24Z</time>
      </trkpt>
      <trkpt lat="43.76488" lon="6.5295">
        <ele>986</ele>
        <time>2010-09-26T12:45:34Z</time>
      </trkpt>
      <trkpt lat="43.76489" lon="6.52949">
        <ele>985</ele>
        <time>2010-09-26T12:45:36Z</time>
      </trkpt>
      <trkpt lat="43.76491" lon="6.52942">
        <ele>985</ele>
        <time>2010-09-26T12:45:44Z</time>
      </trkpt>
      <trkpt lat="43.76492" lon="6.52934">
        <ele>984</ele>
        <time>2010-09-26T12:45:49Z</time>
      </trkpt>
      <trkpt lat="43.76492" lon="6.52931">
        <ele>984</ele>
        <time>2010-09-26T12:45:51Z</time>
      </trkpt>
      <trkpt lat="43.76494" lon="6.52924">
        <ele>983</ele>
        <time>2010-09-26T12:45:58Z</time>
      </trkpt>
      <trkpt lat="43.76495" lon="6.52917">
        <ele>983</ele>
        <time>2010-09-26T12:46:04Z</time>
      </trkpt>
      <trkpt lat="43.76497" lon="6.52913">
        <ele>982</ele>
        <time>2010-09-26T12:46:08Z</time>
      </trkpt>
      <trkpt lat="43.76498" lon="6.52905">
        <ele>981</ele>
        <time>2010-09-26T12:46:14Z</time>
      </trkpt>
      <trkpt lat="43.76498" lon="6.52903">
        <ele>982</ele>
        <time>2010-09-26T12:46:16Z</time>
      </trkpt>
      <trkpt lat="43.76499" lon="6.52898">
        <ele>980</ele>
        <time>2010-09-26T12:46:20Z</time>
      </trkpt>
      <trkpt lat="43.76502" lon="6.52897">
        <ele>980</ele>
        <time>2010-09-26T12:46:23Z</time>
      </trkpt>
      <trkpt lat="43.76504" lon="6.52898">
        <ele>980</ele>
        <time>2010-09-26T12:46:25Z</time>
      </trkpt>
      <trkpt lat="43.76504" lon="6.52884">
        <ele>978</ele>
        <time>2010-09-26T12:46:37Z</time>
      </trkpt>
      <trkpt lat="43.76509" lon="6.52879">
        <ele>977</ele>
        <time>2010-09-26T12:46:43Z</time>
      </trkpt>
      <trkpt lat="43.76511" lon="6.52879">
        <ele>978</ele>
        <time>2010-09-26T12:46:45Z</time>
      </trkpt>
      <trkpt lat="43.76514" lon="6.52876">
        <ele>976</ele>
        <time>2010-09-26T12:46:49Z</time>
      </trkpt>
      <trkpt lat="43.76514" lon="6.52873">
        <ele>975</ele>
        <time>2010-09-26T12:46:52Z</time>
      </trkpt>
      <trkpt lat="43.76516" lon="6.52855">
        <ele>973</ele>
        <time>2010-09-26T12:47:05Z</time>
      </trkpt>
      <trkpt lat="43.76518" lon="6.52844">
        <ele>973</ele>
        <time>2010-09-26T12:47:17Z</time>
      </trkpt>
      <trkpt lat="43.76518" lon="6.52841">
        <ele>972</ele>
        <time>2010-09-26T12:47:32Z</time>
      </trkpt>
      <trkpt lat="43.76518" lon="6.52841">
        <ele>972</ele>
        <time>2010-09-26T12:47:47Z</time>
      </trkpt>
      <trkpt lat="43.76521" lon="6.52844">
        <ele>973</ele>
        <time>2010-09-26T12:48:02Z</time>
      </trkpt>
      <trkpt lat="43.76519" lon="6.52841">
        <ele>972</ele>
        <time>2010-09-26T12:48:27Z</time>
      </trkpt>
      <trkpt lat="43.7652" lon="6.52841">
        <ele>972</ele>
        <time>2010-09-26T12:48:53Z</time>
      </trkpt>
      <trkpt lat="43.76519" lon="6.52838">
        <ele>972</ele>
        <time>2010-09-26T12:49:18Z</time>
      </trkpt>
      <trkpt lat="43.76519" lon="6.52828">
        <ele>972</ele>
        <time>2010-09-26T12:49:29Z</time>
      </trkpt>
      <trkpt lat="43.76517" lon="6.5282">
        <ele>971</ele>
        <time>2010-09-26T12:49:36Z</time>
      </trkpt>
      <trkpt lat="43.76518" lon="6.52815">
        <ele>971</ele>
        <time>2010-09-26T12:49:39Z</time>
      </trkpt>
      <trkpt lat="43.76521" lon="6.52809">
        <ele>970</ele>
        <time>2010-09-26T12:49:48Z</time>
      </trkpt>
      <trkpt lat="43.7653" lon="6.52816">
        <ele>967</ele>
        <time>2010-09-26T12:49:58Z</time>
      </trkpt>
      <trkpt lat="43.76537" lon="6.52826">
        <ele>967</ele>
        <time>2010-09-26T12:50:08Z</time>
      </trkpt>
      <trkpt lat="43.76539" lon="6.5283">
        <ele>966</ele>
        <time>2010-09-26T12:50:11Z</time>
      </trkpt>
      <trkpt lat="43.76541" lon="6.52833">
        <ele>966</ele>
        <time>2010-09-26T12:50:14Z</time>
      </trkpt>
      <trkpt lat="43.76545" lon="6.52847">
        <ele>965</ele>
        <time>2010-09-26T12:50:24Z</time>
      </trkpt>
      <trkpt lat="43.76554" lon="6.52863">
        <ele>962</ele>
        <time>2010-09-26T12:50:38Z</time>
      </trkpt>
      <trkpt lat="43.76557" lon="6.52868">
        <ele>960</ele>
        <time>2010-09-26T12:50:44Z</time>
      </trkpt>
      <trkpt lat="43.76565" lon="6.52877">
        <ele>958</ele>
        <time>2010-09-26T12:50:56Z</time>
      </trkpt>
      <trkpt lat="43.76566" lon="6.5288">
        <ele>957</ele>
        <time>2010-09-26T12:50:59Z</time>
      </trkpt>
      <trkpt lat="43.76571" lon="6.52889">
        <ele>955</ele>
        <time>2010-09-26T12:51:06Z</time>
      </trkpt>
      <trkpt lat="43.76573" lon="6.52891">
        <ele>954</ele>
        <time>2010-09-26T12:51:08Z</time>
      </trkpt>
      <trkpt lat="43.76575" lon="6.52897">
        <ele>952</ele>
        <time>2010-09-26T12:51:14Z</time>
      </trkpt>
      <trkpt lat="43.76576" lon="6.52901">
        <ele>952</ele>
        <time>2010-09-26T12:51:18Z</time>
      </trkpt>
      <trkpt lat="43.76578" lon="6.52907">
        <ele>951</ele>
        <time>2010-09-26T12:51:21Z</time>
      </trkpt>
      <trkpt lat="43.76579" lon="6.52922">
        <ele>950</ele>
        <time>2010-09-26T12:51:33Z</time>
      </trkpt>
      <trkpt lat="43.76583" lon="6.52933">
        <ele>949</ele>
        <time>2010-09-26T12:51:44Z</time>
      </trkpt>
      <trkpt lat="43.76584" lon="6.52941">
        <ele>948</ele>
        <time>2010-09-26T12:51:52Z</time>
      </trkpt>
      <trkpt lat="43.76583" lon="6.52944">
        <ele>947</ele>
        <time>2010-09-26T12:51:54Z</time>
      </trkpt>
      <trkpt lat="43.76585" lon="6.52951">
        <ele>948</ele>
        <time>2010-09-26T12:52:04Z</time>
      </trkpt>
      <trkpt lat="43.76586" lon="6.52964">
        <ele>946</ele>
        <time>2010-09-26T12:52:15Z</time>
      </trkpt>
      <trkpt lat="43.76588" lon="6.52967">
        <ele>944</ele>
        <time>2010-09-26T12:52:19Z</time>
      </trkpt>
      <trkpt lat="43.76592" lon="6.52975">
        <ele>942</ele>
        <time>2010-09-26T12:52:23Z</time>
      </trkpt>
      <trkpt lat="43.76593" lon="6.52976">
        <ele>942</ele>
        <time>2010-09-26T12:52:24Z</time>
      </trkpt>
      <trkpt lat="43.76595" lon="6.52978">
        <ele>942</ele>
        <time>2010-09-26T12:52:27Z</time>
      </trkpt>
      <trkpt lat="43.76599" lon="6.52993">
        <ele>941</ele>
        <time>2010-09-26T12:52:36Z</time>
      </trkpt>
      <trkpt lat="43.76602" lon="6.53006">
        <ele>941</ele>
        <time>2010-09-26T12:52:44Z</time>
      </trkpt>
      <trkpt lat="43.76604" lon="6.53012">
        <ele>939</ele>
        <time>2010-09-26T12:52:49Z</time>
      </trkpt>
      <trkpt lat="43.76605" lon="6.53016">
        <ele>940</ele>
        <time>2010-09-26T12:52:52Z</time>
      </trkpt>
      <trkpt lat="43.76606" lon="6.53018">
        <ele>938</ele>
        <time>2010-09-26T12:52:55Z</time>
      </trkpt>
      <trkpt lat="43.76608" lon="6.53021">
        <ele>937</ele>
        <time>2010-09-26T12:52:58Z</time>
      </trkpt>
      <trkpt lat="43.76609" lon="6.5302">
        <ele>936</ele>
        <time>2010-09-26T12:53:01Z</time>
      </trkpt>
      <trkpt lat="43.76609" lon="6.53005">
        <ele>936</ele>
        <time>2010-09-26T12:53:11Z</time>
      </trkpt>
      <trkpt lat="43.76614" lon="6.53003">
        <ele>935</ele>
        <time>2010-09-26T12:53:21Z</time>
      </trkpt>
      <trkpt lat="43.76617" lon="6.53005">
        <ele>934</ele>
        <time>2010-09-26T12:53:26Z</time>
      </trkpt>
      <trkpt lat="43.76621" lon="6.53014">
        <ele>931</ele>
        <time>2010-09-26T12:53:35Z</time>
      </trkpt>
      <trkpt lat="43.76623" lon="6.53017">
        <ele>932</ele>
        <time>2010-09-26T12:53:38Z</time>
      </trkpt>
      <trkpt lat="43.76626" lon="6.53019">
        <ele>931</ele>
        <time>2010-09-26T12:53:41Z</time>
      </trkpt>
      <trkpt lat="43.76627" lon="6.53023">
        <ele>930</ele>
        <time>2010-09-26T12:53:44Z</time>
      </trkpt>
      <trkpt lat="43.7663" lon="6.53025">
        <ele>929</ele>
        <time>2010-09-26T12:53:47Z</time>
      </trkpt>
      <trkpt lat="43.76632" lon="6.53032">
        <ele>928</ele>
        <time>2010-09-26T12:53:52Z</time>
      </trkpt>
      <trkpt lat="43.76634" lon="6.53036">
        <ele>928</ele>
        <time>2010-09-26T12:53:55Z</time>
      </trkpt>
      <trkpt lat="43.76637" lon="6.5304">
        <ele>926</ele>
        <time>2010-09-26T12:53:59Z</time>
      </trkpt>
      <trkpt lat="43.76641" lon="6.53045">
        <ele>924</ele>
        <time>2010-09-26T12:54:08Z</time>
      </trkpt>
      <trkpt lat="43.76643" lon="6.53047">
        <ele>923</ele>
        <time>2010-09-26T12:54:11Z</time>
      </trkpt>
      <trkpt lat="43.76648" lon="6.53054">
        <ele>922</ele>
        <time>2010-09-26T12:54:20Z</time>
      </trkpt>
      <trkpt lat="43.7665" lon="6.53057">
        <ele>921</ele>
        <time>2010-09-26T12:54:24Z</time>
      </trkpt>
      <trkpt lat="43.76651" lon="6.53058">
        <ele>921</ele>
        <time>2010-09-26T12:54:25Z</time>
      </trkpt>
      <trkpt lat="43.76652" lon="6.53062">
        <ele>920</ele>
        <time>2010-09-26T12:54:37Z</time>
      </trkpt>
      <trkpt lat="43.76652" lon="6.53062">
        <ele>920</ele>
        <time>2010-09-26T12:55:03Z</time>
      </trkpt>
      <trkpt lat="43.76655" lon="6.53062">
        <ele>920</ele>
        <time>2010-09-26T12:55:35Z</time>
      </trkpt>
      <trkpt lat="43.76655" lon="6.53063">
        <ele>920</ele>
        <time>2010-09-26T12:56:17Z</time>
      </trkpt>
      <trkpt lat="43.76656" lon="6.53067">
        <ele>920</ele>
        <time>2010-09-26T12:56:40Z</time>
      </trkpt>
      <trkpt lat="43.76655" lon="6.53076">
        <ele>920</ele>
        <time>2010-09-26T12:56:48Z</time>
      </trkpt>
      <trkpt lat="43.76656" lon="6.53079">
        <ele>920</ele>
        <time>2010-09-26T12:56:53Z</time>
      </trkpt>
      <trkpt lat="43.76658" lon="6.53086">
        <ele>919</ele>
        <time>2010-09-26T12:57:04Z</time>
      </trkpt>
      <trkpt lat="43.76659" lon="6.53086">
        <ele>919</ele>
        <time>2010-09-26T12:57:10Z</time>
      </trkpt>
      <trkpt lat="43.76663" lon="6.53095">
        <ele>919</ele>
        <time>2010-09-26T12:57:18Z</time>
      </trkpt>
      <trkpt lat="43.76666" lon="6.53101">
        <ele>917</ele>
        <time>2010-09-26T12:57:23Z</time>
      </trkpt>
      <trkpt lat="43.76671" lon="6.53109">
        <ele>916</ele>
        <time>2010-09-26T12:57:32Z</time>
      </trkpt>
      <trkpt lat="43.76671" lon="6.53112">
        <ele>917</ele>
        <time>2010-09-26T12:57:34Z</time>
      </trkpt>
      <trkpt lat="43.76674" lon="6.53119">
        <ele>916</ele>
        <time>2010-09-26T12:57:40Z</time>
      </trkpt>
      <trkpt lat="43.76675" lon="6.5312">
        <ele>916</ele>
        <time>2010-09-26T12:57:42Z</time>
      </trkpt>
      <trkpt lat="43.76681" lon="6.53134">
        <ele>916</ele>
        <time>2010-09-26T12:57:54Z</time>
      </trkpt>
      <trkpt lat="43.76686" lon="6.53143">
        <ele>915</ele>
        <time>2010-09-26T12:58:03Z</time>
      </trkpt>
      <trkpt lat="43.76692" lon="6.53152">
        <ele>915</ele>
        <time>2010-09-26T12:58:13Z</time>
      </trkpt>
      <trkpt lat="43.76698" lon="6.53163">
        <ele>913</ele>
        <time>2010-09-26T12:58:27Z</time>
      </trkpt>
      <trkpt lat="43.76699" lon="6.53167">
        <ele>913</ele>
        <time>2010-09-26T12:58:40Z</time>
      </trkpt>
      <trkpt lat="43.76702" lon="6.53171">
        <ele>912</ele>
        <time>2010-09-26T12:58:46Z</time>
      </trkpt>
      <trkpt lat="43.76704" lon="6.53176">
        <ele>912</ele>
        <time>2010-09-26T12:58:49Z</time>
      </trkpt>
      <trkpt lat="43.76706" lon="6.53185">
        <ele>911</ele>
        <time>2010-09-26T12:58:59Z</time>
      </trkpt>
      <trkpt lat="43.76708" lon="6.53187">
        <ele>911</ele>
        <time>2010-09-26T12:59:03Z</time>
      </trkpt>
      <trkpt lat="43.7671" lon="6.53192">
        <ele>911</ele>
        <time>2010-09-26T12:59:08Z</time>
      </trkpt>
      <trkpt lat="43.76711" lon="6.53204">
        <ele>911</ele>
        <time>2010-09-26T12:59:18Z</time>
      </trkpt>
      <trkpt lat="43.76711" lon="6.5321">
        <ele>911</ele>
        <time>2010-09-26T12:59:23Z</time>
      </trkpt>
      <trkpt lat="43.76711" lon="6.53214">
        <ele>911</ele>
        <time>2010-09-26T12:59:27Z</time>
      </trkpt>
      <trkpt lat="43.76713" lon="6.53219">
        <ele>911</ele>
        <time>2010-09-26T12:59:32Z</time>
      </trkpt>
      <trkpt lat="43.7672" lon="6.53228">
        <ele>909</ele>
        <time>2010-09-26T12:59:45Z</time>
      </trkpt>
      <trkpt lat="43.76729" lon="6.53227">
        <ele>907</ele>
        <time>2010-09-26T12:59:59Z</time>
      </trkpt>
      <trkpt lat="43.76729" lon="6.53226">
        <ele>907</ele>
        <time>2010-09-26T13:00:00Z</time>
      </trkpt>
      <trkpt lat="43.76733" lon="6.53223">
        <ele>908</ele>
        <time>2010-09-26T13:00:05Z</time>
      </trkpt>
      <trkpt lat="43.76739" lon="6.53218">
        <ele>905</ele>
        <time>2010-09-26T13:00:14Z</time>
      </trkpt>
      <trkpt lat="43.76747" lon="6.53212">
        <ele>904</ele>
        <time>2010-09-26T13:00:26Z</time>
      </trkpt>
      <trkpt lat="43.7675" lon="6.5321">
        <ele>902</ele>
        <time>2010-09-26T13:00:29Z</time>
      </trkpt>
      <trkpt lat="43.76752" lon="6.53209">
        <ele>902</ele>
        <time>2010-09-26T13:00:31Z</time>
      </trkpt>
      <trkpt lat="43.76766" lon="6.53203">
        <ele>901</ele>
        <time>2010-09-26T13:00:44Z</time>
      </trkpt>
      <trkpt lat="43.76769" lon="6.53203">
        <ele>901</ele>
        <time>2010-09-26T13:00:47Z</time>
      </trkpt>
      <trkpt lat="43.76777" lon="6.53206">
        <ele>900</ele>
        <time>2010-09-26T13:00:57Z</time>
      </trkpt>
      <trkpt lat="43.76779" lon="6.53201">
        <ele>900</ele>
        <time>2010-09-26T13:01:01Z</time>
      </trkpt>
      <trkpt lat="43.76783" lon="6.53182">
        <ele>898</ele>
        <time>2010-09-26T13:01:14Z</time>
      </trkpt>
      <trkpt lat="43.76785" lon="6.53183">
        <ele>897</ele>
        <time>2010-09-26T13:01:16Z</time>
      </trkpt>
      <trkpt lat="43.76786" lon="6.53186">
        <ele>897</ele>
        <time>2010-09-26T13:01:19Z</time>
      </trkpt>
      <trkpt lat="43.76787" lon="6.53191">
        <ele>897</ele>
        <time>2010-09-26T13:01:23Z</time>
      </trkpt>
      <trkpt lat="43.76793" lon="6.53201">
        <ele>894</ele>
        <time>2010-09-26T13:01:34Z</time>
      </trkpt>
      <trkpt lat="43.76797" lon="6.53217">
        <ele>894</ele>
        <time>2010-09-26T13:01:44Z</time>
      </trkpt>
      <trkpt lat="43.76796" lon="6.53222">
        <ele>894</ele>
        <time>2010-09-26T13:01:47Z</time>
      </trkpt>
      <trkpt lat="43.76799" lon="6.53235">
        <ele>892</ele>
        <time>2010-09-26T13:01:56Z</time>
      </trkpt>
      <trkpt lat="43.76802" lon="6.53241">
        <ele>893</ele>
        <time>2010-09-26T13:02:01Z</time>
      </trkpt>
      <trkpt lat="43.76804" lon="6.53246">
        <ele>893</ele>
        <time>2010-09-26T13:02:04Z</time>
      </trkpt>
      <trkpt lat="43.76805" lon="6.53251">
        <ele>891</ele>
        <time>2010-09-26T13:02:07Z</time>
      </trkpt>
      <trkpt lat="43.76804" lon="6.53253">
        <ele>891</ele>
        <time>2010-09-26T13:02:08Z</time>
      </trkpt>
      <trkpt lat="43.76805" lon="6.53257">
        <ele>893</ele>
        <time>2010-09-26T13:02:11Z</time>
      </trkpt>
      <trkpt lat="43.76807" lon="6.53262">
        <ele>891</ele>
        <time>2010-09-26T13:02:15Z</time>
      </trkpt>
      <trkpt lat="43.76805" lon="6.5327">
        <ele>892</ele>
        <time>2010-09-26T13:02:21Z</time>
      </trkpt>
      <trkpt lat="43.76806" lon="6.53286">
        <ele>892</ele>
        <time>2010-09-26T13:02:33Z</time>
      </trkpt>
      <trkpt lat="43.76806" lon="6.53287">
        <ele>890</ele>
        <time>2010-09-26T13:02:34Z</time>
      </trkpt>
      <trkpt lat="43.76808" lon="6.53295">
        <ele>889</ele>
        <time>2010-09-26T13:02:40Z</time>
      </trkpt>
      <trkpt lat="43.76809" lon="6.53304">
        <ele>888</ele>
        <time>2010-09-26T13:02:45Z</time>
      </trkpt>
      <trkpt lat="43.7681" lon="6.53306">
        <ele>889</ele>
        <time>2010-09-26T13:02:47Z</time>
      </trkpt>
      <trkpt lat="43.76812" lon="6.53309">
        <ele>887</ele>
        <time>2010-09-26T13:02:50Z</time>
      </trkpt>
      <trkpt lat="43.76813" lon="6.53316">
        <ele>886</ele>
        <time>2010-09-26T13:02:57Z</time>
      </trkpt>
      <trkpt lat="43.76814" lon="6.53322">
        <ele>886</ele>
        <time>2010-09-26T13:03:02Z</time>
      </trkpt>
      <trkpt lat="43.76815" lon="6.53333">
        <ele>886</ele>
        <time>2010-09-26T13:03:11Z</time>
      </trkpt>
      <trkpt lat="43.76816" lon="6.53337">
        <ele>885</ele>
        <time>2010-09-26T13:03:15Z</time>
      </trkpt>
      <trkpt lat="43.76816" lon="6.53348">
        <ele>885</ele>
        <time>2010-09-26T13:03:21Z</time>
      </trkpt>
      <trkpt lat="43.76821" lon="6.53358">
        <ele>883</ele>
        <time>2010-09-26T13:03:31Z</time>
      </trkpt>
      <trkpt lat="43.76822" lon="6.5336">
        <ele>882</ele>
        <time>2010-09-26T13:03:34Z</time>
      </trkpt>
      <trkpt lat="43.76827" lon="6.53374">
        <ele>881</ele>
        <time>2010-09-26T13:03:47Z</time>
      </trkpt>
      <trkpt lat="43.76829" lon="6.53372">
        <ele>880</ele>
        <time>2010-09-26T13:03:51Z</time>
      </trkpt>
      <trkpt lat="43.76835" lon="6.53363">
        <ele>877</ele>
        <time>2010-09-26T13:04:02Z</time>
      </trkpt>
      <trkpt lat="43.76837" lon="6.53363">
        <ele>876</ele>
        <time>2010-09-26T13:04:05Z</time>
      </trkpt>
      <trkpt lat="43.76841" lon="6.53368">
        <ele>875</ele>
        <time>2010-09-26T13:04:22Z</time>
      </trkpt>
      <trkpt lat="43.76841" lon="6.53373">
        <ele>875</ele>
        <time>2010-09-26T13:04:26Z</time>
      </trkpt>
      <trkpt lat="43.76842" lon="6.53383">
        <ele>875</ele>
        <time>2010-09-26T13:04:33Z</time>
      </trkpt>
      <trkpt lat="43.76843" lon="6.53388">
        <ele>874</ele>
        <time>2010-09-26T13:04:37Z</time>
      </trkpt>
      <trkpt lat="43.76843" lon="6.53403">
        <ele>873</ele>
        <time>2010-09-26T13:04:49Z</time>
      </trkpt>
      <trkpt lat="43.76844" lon="6.53417">
        <ele>871</ele>
        <time>2010-09-26T13:05:02Z</time>
      </trkpt>
      <trkpt lat="43.76844" lon="6.53423">
        <ele>869</ele>
        <time>2010-09-26T13:05:07Z</time>
      </trkpt>
      <trkpt lat="43.76845" lon="6.53446">
        <ele>867</ele>
        <time>2010-09-26T13:05:19Z</time>
      </trkpt>
      <trkpt lat="43.76846" lon="6.53448">
        <ele>866</ele>
        <time>2010-09-26T13:05:20Z</time>
      </trkpt>
      <trkpt lat="43.76849" lon="6.53457">
        <ele>865</ele>
        <time>2010-09-26T13:05:25Z</time>
      </trkpt>
      <trkpt lat="43.76849" lon="6.53459">
        <ele>866</ele>
        <time>2010-09-26T13:05:26Z</time>
      </trkpt>
      <trkpt lat="43.76849" lon="6.53475">
        <ele>864</ele>
        <time>2010-09-26T13:05:37Z</time>
      </trkpt>
      <trkpt lat="43.76849" lon="6.53476">
        <ele>863</ele>
        <time>2010-09-26T13:05:38Z</time>
      </trkpt>
      <trkpt lat="43.76847" lon="6.53478">
        <ele>863</ele>
        <time>2010-09-26T13:05:41Z</time>
      </trkpt>
      <trkpt lat="43.76844" lon="6.53481">
        <ele>864</ele>
        <time>2010-09-26T13:05:52Z</time>
      </trkpt>
      <trkpt lat="43.76843" lon="6.53482">
        <ele>864</ele>
        <time>2010-09-26T13:06:08Z</time>
      </trkpt>
      <trkpt lat="43.76844" lon="6.53482">
        <ele>863</ele>
        <time>2010-09-26T13:06:24Z</time>
      </trkpt>
      <trkpt lat="43.76843" lon="6.53481">
        <ele>863</ele>
        <time>2010-09-26T13:06:37Z</time>
      </trkpt>
      <trkpt lat="43.76842" lon="6.53481">
        <ele>864</ele>
        <time>2010-09-26T13:07:17Z</time>
      </trkpt>
      <trkpt lat="43.76842" lon="6.5348">
        <ele>864</ele>
        <time>2010-09-26T13:07:28Z</time>
      </trkpt>
      <trkpt lat="43.76842" lon="6.5348">
        <ele>864</ele>
        <time>2010-09-26T13:07:56Z</time>
      </trkpt>
      <trkpt lat="43.76843" lon="6.53481">
        <ele>864</ele>
        <time>2010-09-26T13:08:15Z</time>
      </trkpt>
      <trkpt lat="43.76843" lon="6.53481">
        <ele>864</ele>
        <time>2010-09-26T13:08:26Z</time>
      </trkpt>
      <trkpt lat="43.76846" lon="6.53484">
        <ele>864</ele>
        <time>2010-09-26T13:08:40Z</time>
      </trkpt>
      <trkpt lat="43.7685" lon="6.53482">
        <ele>863</ele>
        <time>2010-09-26T13:08:51Z</time>
      </trkpt>
      <trkpt lat="43.76851" lon="6.53482">
        <ele>859</ele>
        <time>2010-09-26T13:09:25Z</time>
      </trkpt>
      <trkpt lat="43.76851" lon="6.53482">
        <ele>863</ele>
        <time>2010-09-26T13:09:26Z</time>
      </trkpt>
      <trkpt lat="43.76851" lon="6.53482">
        <ele>869</ele>
        <time>2010-09-26T13:10:00Z</time>
      </trkpt>
      <trkpt lat="43.76851" lon="6.53482">
        <ele>866</ele>
        <time>2010-09-26T13:10:01Z</time>
      </trkpt>
      <trkpt lat="43.76851" lon="6.53482">
        <ele>862</ele>
        <time>2010-09-26T13:10:03Z</time>
      </trkpt>
      <trkpt lat="43.76851" lon="6.53482">
        <ele>864</ele>
        <time>2010-09-26T13:10:04Z</time>
      </trkpt>
      <trkpt lat="43.76851" lon="6.53482">
        <ele>860</ele>
        <time>2010-09-26T13:10:08Z</time>
      </trkpt>
      <trkpt lat="43.76851" lon="6.53482">
        <ele>865</ele>
        <time>2010-09-26T13:10:09Z</time>
      </trkpt>
      <trkpt lat="43.76851" lon="6.53482">
        <ele>863</ele>
        <time>2010-09-26T13:10:10Z</time>
      </trkpt>
      <trkpt lat="43.7685" lon="6.53483">
        <ele>864</ele>
        <time>2010-09-26T13:10:38Z</time>
      </trkpt>
      <trkpt lat="43.7685" lon="6.53483">
        <ele>860</ele>
        <time>2010-09-26T13:10:43Z</time>
      </trkpt>
      <trkpt lat="43.7685" lon="6.53483">
        <ele>863</ele>
        <time>2010-09-26T13:10:44Z</time>
      </trkpt>
      <trkpt lat="43.7685" lon="6.53483">
        <ele>867</ele>
        <time>2010-09-26T13:10:47Z</time>
      </trkpt>
      <trkpt lat="43.7685" lon="6.53483">
        <ele>863</ele>
        <time>2010-09-26T13:10:49Z</time>
      </trkpt>
      <trkpt lat="43.7685" lon="6.53483">
        <ele>865</ele>
        <time>2010-09-26T13:11:18Z</time>
      </trkpt>
      <trkpt lat="43.7685" lon="6.53483">
        <ele>861</ele>
        <time>2010-09-26T13:11:34Z</time>
      </trkpt>
      <trkpt lat="43.7685" lon="6.53483">
        <ele>864</ele>
        <time>2010-09-26T13:11:35Z</time>
      </trkpt>
      <trkpt lat="43.7685" lon="6.53484">
        <ele>864</ele>
        <time>2010-09-26T13:12:07Z</time>
      </trkpt>
      <trkpt lat="43.7685" lon="6.53484">
        <ele>867</ele>
        <time>2010-09-26T13:12:12Z</time>
      </trkpt>
      <trkpt lat="43.7685" lon="6.53484">
        <ele>864</ele>
        <time>2010-09-26T13:12:13Z</time>
      </trkpt>
      <trkpt lat="43.7685" lon="6.53484">
        <ele>862</ele>
        <time>2010-09-26T13:13:22Z</time>
      </trkpt>
      <trkpt lat="43.7685" lon="6.53484">
        <ele>867</ele>
        <time>2010-09-26T13:13:24Z</time>
      </trkpt>
      <trkpt lat="43.7685" lon="6.53484">
        <ele>864</ele>
        <time>2010-09-26T13:13:27Z</time>
      </trkpt>
      <trkpt lat="43.7685" lon="6.53484">
        <ele>864</ele>
        <time>2010-09-26T13:13:32Z</time>
      </trkpt>
      <trkpt lat="43.7685" lon="6.53485">
        <ele>864</ele>
        <time>2010-09-26T13:13:46Z</time>
      </trkpt>
      <trkpt lat="43.7685" lon="6.53485">
        <ele>864</ele>
        <time>2010-09-26T13:13:49Z</time>
      </trkpt>
      <trkpt lat="43.76841" lon="6.53499">
        <ele>864</ele>
        <time>2010-09-26T13:14:02Z</time>
      </trkpt>
      <trkpt lat="43.76841" lon="6.53508">
        <ele>865</ele>
        <time>2010-09-26T13:14:08Z</time>
      </trkpt>
      <trkpt lat="43.7684" lon="6.5351">
        <ele>865</ele>
        <time>2010-09-26T13:14:10Z</time>
      </trkpt>
      <trkpt lat="43.7684" lon="6.53514">
        <ele>863</ele>
        <time>2010-09-26T13:14:13Z</time>
      </trkpt>
      <trkpt lat="43.7684" lon="6.53518">
        <ele>867</ele>
        <time>2010-09-26T13:14:16Z</time>
      </trkpt>
      <trkpt lat="43.7684" lon="6.53519">
        <ele>866</ele>
        <time>2010-09-26T13:14:17Z</time>
      </trkpt>
      <trkpt lat="43.7684" lon="6.53523">
        <ele>865</ele>
        <time>2010-09-26T13:14:20Z</time>
      </trkpt>
      <trkpt lat="43.7684" lon="6.53528">
        <ele>867</ele>
        <time>2010-09-26T13:14:23Z</time>
      </trkpt>
      <trkpt lat="43.7684" lon="6.53532">
        <ele>867</ele>
        <time>2010-09-26T13:14:26Z</time>
      </trkpt>
      <trkpt lat="43.7684" lon="6.53548">
        <ele>866</ele>
        <time>2010-09-26T13:14:37Z</time>
      </trkpt>
      <trkpt lat="43.76839" lon="6.53562">
        <ele>866</ele>
        <time>2010-09-26T13:14:47Z</time>
      </trkpt>
      <trkpt lat="43.76839" lon="6.53579">
        <ele>869</ele>
        <time>2010-09-26T13:14:59Z</time>
      </trkpt>
      <trkpt lat="43.7684" lon="6.53582">
        <ele>867</ele>
        <time>2010-09-26T13:15:01Z</time>
      </trkpt>
      <trkpt lat="43.7684" lon="6.53584">
        <ele>869</ele>
        <time>2010-09-26T13:15:03Z</time>
      </trkpt>
      <trkpt lat="43.76839" lon="6.53593">
        <ele>868</ele>
        <time>2010-09-26T13:15:09Z</time>
      </trkpt>
      <trkpt lat="43.7684" lon="6.53606">
        <ele>869</ele>
        <time>2010-09-26T13:15:20Z</time>
      </trkpt>
      <trkpt lat="43.76841" lon="6.53613">
        <ele>871</ele>
        <time>2010-09-26T13:15:25Z</time>
      </trkpt>
      <trkpt lat="43.76841" lon="6.53617">
        <ele>869</ele>
        <time>2010-09-26T13:15:28Z</time>
      </trkpt>
      <trkpt lat="43.76841" lon="6.5363">
        <ele>870</ele>
        <time>2010-09-26T13:15:36Z</time>
      </trkpt>
      <trkpt lat="43.76843" lon="6.53651">
        <ele>870</ele>
        <time>2010-09-26T13:15:50Z</time>
      </trkpt>
      <trkpt lat="43.76843" lon="6.53654">
        <ele>872</ele>
        <time>2010-09-26T13:15:52Z</time>
      </trkpt>
      <trkpt lat="43.76846" lon="6.53663">
        <ele>870</ele>
        <time>2010-09-26T13:15:58Z</time>
      </trkpt>
      <trkpt lat="43.76846" lon="6.53664">
        <ele>871</ele>
        <time>2010-09-26T13:15:59Z</time>
      </trkpt>
      <trkpt lat="43.76847" lon="6.53674">
        <ele>872</ele>
        <time>2010-09-26T13:16:05Z</time>
      </trkpt>
      <trkpt lat="43.7685" lon="6.53694">
        <ele>872</ele>
        <time>2010-09-26T13:16:18Z</time>
      </trkpt>
      <trkpt lat="43.7685" lon="6.53699">
        <ele>874</ele>
        <time>2010-09-26T13:16:22Z</time>
      </trkpt>
      <trkpt lat="43.76848" lon="6.5372">
        <ele>874</ele>
        <time>2010-09-26T13:16:36Z</time>
      </trkpt>
      <trkpt lat="43.76843" lon="6.53738">
        <ele>874</ele>
        <time>2010-09-26T13:16:49Z</time>
      </trkpt>
      <trkpt lat="43.76841" lon="6.53748">
        <ele>875</ele>
        <time>2010-09-26T13:16:56Z</time>
      </trkpt>
      <trkpt lat="43.76837" lon="6.53764">
        <ele>875</ele>
        <time>2010-09-26T13:17:08Z</time>
      </trkpt>
      <trkpt lat="43.76833" lon="6.53779">
        <ele>876</ele>
        <time>2010-09-26T13:17:20Z</time>
      </trkpt>
      <trkpt lat="43.76829" lon="6.53792">
        <ele>878</ele>
        <time>2010-09-26T13:17:30Z</time>
      </trkpt>
      <trkpt lat="43.76824" lon="6.53808">
        <ele>877</ele>
        <time>2010-09-26T13:17:43Z</time>
      </trkpt>
      <trkpt lat="43.76821" lon="6.53817">
        <ele>878</ele>
        <time>2010-09-26T13:17:50Z</time>
      </trkpt>
      <trkpt lat="43.76821" lon="6.53818">
        <ele>877</ele>
        <time>2010-09-26T13:17:51Z</time>
      </trkpt>
      <trkpt lat="43.76817" lon="6.53827">
        <ele>877</ele>
        <time>2010-09-26T13:17:58Z</time>
      </trkpt>
      <trkpt lat="43.76815" lon="6.53834">
        <ele>879</ele>
        <time>2010-09-26T13:18:03Z</time>
      </trkpt>
      <trkpt lat="43.76813" lon="6.53838">
        <ele>878</ele>
        <time>2010-09-26T13:18:06Z</time>
      </trkpt>
      <trkpt lat="43.76809" lon="6.53848">
        <ele>879</ele>
        <time>2010-09-26T13:18:13Z</time>
      </trkpt>
      <trkpt lat="43.76799" lon="6.53857">
        <ele>879</ele>
        <time>2010-09-26T13:18:25Z</time>
      </trkpt>
      <trkpt lat="43.76798" lon="6.53858">
        <ele>880</ele>
        <time>2010-09-26T13:18:26Z</time>
      </trkpt>
      <trkpt lat="43.76795" lon="6.53858">
        <ele>881</ele>
        <time>2010-09-26T13:18:28Z</time>
      </trkpt>
      <trkpt lat="43.76787" lon="6.53858">
        <ele>881</ele>
        <time>2010-09-26T13:18:35Z</time>
      </trkpt>
      <trkpt lat="43.76776" lon="6.53853">
        <ele>882</ele>
        <time>2010-09-26T13:18:46Z</time>
      </trkpt>
      <trkpt lat="43.76764" lon="6.53846">
        <ele>882</ele>
        <time>2010-09-26T13:18:57Z</time>
      </trkpt>
      <trkpt lat="43.76761" lon="6.53846">
        <ele>883</ele>
        <time>2010-09-26T13:18:59Z</time>
      </trkpt>
      <trkpt lat="43.76758" lon="6.53846">
        <ele>882</ele>
        <time>2010-09-26T13:19:01Z</time>
      </trkpt>
      <trkpt lat="43.76751" lon="6.5384">
        <ele>884</ele>
        <time>2010-09-26T13:19:10Z</time>
      </trkpt>
      <trkpt lat="43.76747" lon="6.53839">
        <ele>885</ele>
        <time>2010-09-26T13:19:16Z</time>
      </trkpt>
      <trkpt lat="43.76744" lon="6.53839">
        <ele>884</ele>
        <time>2010-09-26T13:19:18Z</time>
      </trkpt>
      <trkpt lat="43.7674" lon="6.53837">
        <ele>884</ele>
        <time>2010-09-26T13:19:21Z</time>
      </trkpt>
      <trkpt lat="43.76736" lon="6.53835">
        <ele>884</ele>
        <time>2010-09-26T13:19:25Z</time>
      </trkpt>
      <trkpt lat="43.76727" lon="6.53829">
        <ele>885</ele>
        <time>2010-09-26T13:19:32Z</time>
      </trkpt>
      <trkpt lat="43.76716" lon="6.53825">
        <ele>884</ele>
        <time>2010-09-26T13:19:43Z</time>
      </trkpt>
      <trkpt lat="43.76714" lon="6.53824">
        <ele>888</ele>
        <time>2010-09-26T13:19:45Z</time>
      </trkpt>
      <trkpt lat="43.76712" lon="6.53823">
        <ele>888</ele>
        <time>2010-09-26T13:19:47Z</time>
      </trkpt>
      <trkpt lat="43.76711" lon="6.53822">
        <ele>886</ele>
        <time>2010-09-26T13:19:48Z</time>
      </trkpt>
      <trkpt lat="43.76709" lon="6.53821">
        <ele>885</ele>
        <time>2010-09-26T13:19:50Z</time>
      </trkpt>
      <trkpt lat="43.76704" lon="6.53823">
        <ele>886</ele>
        <time>2010-09-26T13:19:53Z</time>
      </trkpt>
      <trkpt lat="43.76693" lon="6.53822">
        <ele>886</ele>
        <time>2010-09-26T13:20:03Z</time>
      </trkpt>
      <trkpt lat="43.76686" lon="6.53823">
        <ele>887</ele>
        <time>2010-09-26T13:20:09Z</time>
      </trkpt>
      <trkpt lat="43.76682" lon="6.53825">
        <ele>888</ele>
        <time>2010-09-26T13:20:12Z</time>
      </trkpt>
      <trkpt lat="43.76666" lon="6.53827">
        <ele>887</ele>
        <time>2010-09-26T13:20:23Z</time>
      </trkpt>
      <trkpt lat="43.76659" lon="6.5383">
        <ele>888</ele>
        <time>2010-09-26T13:20:30Z</time>
      </trkpt>
      <trkpt lat="43.76652" lon="6.53833">
        <ele>891</ele>
        <time>2010-09-26T13:20:36Z</time>
      </trkpt>
      <trkpt lat="43.76647" lon="6.53835">
        <ele>889</ele>
        <time>2010-09-26T13:20:41Z</time>
      </trkpt>
      <trkpt lat="43.76643" lon="6.53838">
        <ele>890</ele>
        <time>2010-09-26T13:20:45Z</time>
      </trkpt>
      <trkpt lat="43.76632" lon="6.53844">
        <ele>891</ele>
        <time>2010-09-26T13:20:56Z</time>
      </trkpt>
      <trkpt lat="43.76629" lon="6.53846">
        <ele>891</ele>
        <time>2010-09-26T13:20:58Z</time>
      </trkpt>
      <trkpt lat="43.76622" lon="6.53848">
        <ele>891</ele>
        <time>2010-09-26T13:21:04Z</time>
      </trkpt>
      <trkpt lat="43.76616" lon="6.53852">
        <ele>891</ele>
        <time>2010-09-26T13:21:09Z</time>
      </trkpt>
      <trkpt lat="43.7661" lon="6.53851">
        <ele>891</ele>
        <time>2010-09-26T13:21:14Z</time>
      </trkpt>
      <trkpt lat="43.76604" lon="6.53854">
        <ele>891</ele>
        <time>2010-09-26T13:21:18Z</time>
      </trkpt>
      <trkpt lat="43.76602" lon="6.53853">
        <ele>890</ele>
        <time>2010-09-26T13:21:21Z</time>
      </trkpt>
      <trkpt lat="43.76593" lon="6.53857">
        <ele>891</ele>
        <time>2010-09-26T13:21:28Z</time>
      </trkpt>
      <trkpt lat="43.76587" lon="6.53857">
        <ele>893</ele>
        <time>2010-09-26T13:21:33Z</time>
      </trkpt>
      <trkpt lat="43.76586" lon="6.53857">
        <ele>892</ele>
        <time>2010-09-26T13:21:34Z</time>
      </trkpt>
      <trkpt lat="43.76576" lon="6.53863">
        <ele>893</ele>
        <time>2010-09-26T13:21:44Z</time>
      </trkpt>
      <trkpt lat="43.76567" lon="6.53867">
        <ele>894</ele>
        <time>2010-09-26T13:21:51Z</time>
      </trkpt>
      <trkpt lat="43.76564" lon="6.53871">
        <ele>896</ele>
        <time>2010-09-26T13:21:55Z</time>
      </trkpt>
      <trkpt lat="43.76556" lon="6.53879">
        <ele>894</ele>
        <time>2010-09-26T13:22:03Z</time>
      </trkpt>
      <trkpt lat="43.76553" lon="6.53886">
        <ele>894</ele>
        <time>2010-09-26T13:22:08Z</time>
      </trkpt>
      <trkpt lat="43.76546" lon="6.53894">
        <ele>895</ele>
        <time>2010-09-26T13:22:14Z</time>
      </trkpt>
      <trkpt lat="43.7654" lon="6.53902">
        <ele>896</ele>
        <time>2010-09-26T13:22:22Z</time>
      </trkpt>
      <trkpt lat="43.7654" lon="6.53906">
        <ele>895</ele>
        <time>2010-09-26T13:22:24Z</time>
      </trkpt>
      <trkpt lat="43.76537" lon="6.5391">
        <ele>896</ele>
        <time>2010-09-26T13:22:28Z</time>
      </trkpt>
      <trkpt lat="43.76534" lon="6.53919">
        <ele>896</ele>
        <time>2010-09-26T13:22:35Z</time>
      </trkpt>
      <trkpt lat="43.76532" lon="6.5392">
        <ele>896</ele>
        <time>2010-09-26T13:22:37Z</time>
      </trkpt>
      <trkpt lat="43.7653" lon="6.53923">
        <ele>898</ele>
        <time>2010-09-26T13:22:39Z</time>
      </trkpt>
      <trkpt lat="43.76523" lon="6.53925">
        <ele>898</ele>
        <time>2010-09-26T13:22:47Z</time>
      </trkpt>
      <trkpt lat="43.76515" lon="6.53927">
        <ele>897</ele>
        <time>2010-09-26T13:22:54Z</time>
      </trkpt>
      <trkpt lat="43.76513" lon="6.53927">
        <ele>898</ele>
        <time>2010-09-26T13:22:56Z</time>
      </trkpt>
      <trkpt lat="43.76503" lon="6.5393">
        <ele>898</ele>
        <time>2010-09-26T13:23:04Z</time>
      </trkpt>
      <trkpt lat="43.76501" lon="6.53932">
        <ele>899</ele>
        <time>2010-09-26T13:23:06Z</time>
      </trkpt>
      <trkpt lat="43.76493" lon="6.53941">
        <ele>899</ele>
        <time>2010-09-26T13:23:16Z</time>
      </trkpt>
      <trkpt lat="43.7649" lon="6.53943">
        <ele>901</ele>
        <time>2010-09-26T13:23:19Z</time>
      </trkpt>
      <trkpt lat="43.76488" lon="6.53943">
        <ele>900</ele>
        <time>2010-09-26T13:23:21Z</time>
      </trkpt>
      <trkpt lat="43.76487" lon="6.53943">
        <ele>900</ele>
        <time>2010-09-26T13:23:22Z</time>
      </trkpt>
      <trkpt lat="43.76474" lon="6.53945">
        <ele>899</ele>
        <time>2010-09-26T13:23:34Z</time>
      </trkpt>
      <trkpt lat="43.76466" lon="6.53942">
        <ele>901</ele>
        <time>2010-09-26T13:23:41Z</time>
      </trkpt>
      <trkpt lat="43.76463" lon="6.5394">
        <ele>901</ele>
        <time>2010-09-26T13:23:44Z</time>
      </trkpt>
      <trkpt lat="43.76458" lon="6.5394">
        <ele>901</ele>
        <time>2010-09-26T13:24:00Z</time>
      </trkpt>
      <trkpt lat="43.76452" lon="6.5394">
        <ele>901</ele>
        <time>2010-09-26T13:24:08Z</time>
      </trkpt>
      <trkpt lat="43.76443" lon="6.53945">
        <ele>902</ele>
        <time>2010-09-26T13:24:16Z</time>
      </trkpt>
      <trkpt lat="43.76437" lon="6.53949">
        <ele>901</ele>
        <time>2010-09-26T13:24:22Z</time>
      </trkpt>
      <trkpt lat="43.7643" lon="6.53962">
        <ele>903</ele>
        <time>2010-09-26T13:24:32Z</time>
      </trkpt>
      <trkpt lat="43.76429" lon="6.53966">
        <ele>904</ele>
        <time>2010-09-26T13:24:34Z</time>
      </trkpt>
      <trkpt lat="43.76426" lon="6.53968">
        <ele>904</ele>
        <time>2010-09-26T13:24:39Z</time>
      </trkpt>
      <trkpt lat="43.76424" lon="6.5397">
        <ele>903</ele>
        <time>2010-09-26T13:24:41Z</time>
      </trkpt>
      <trkpt lat="43.76422" lon="6.53974">
        <ele>905</ele>
        <time>2010-09-26T13:24:44Z</time>
      </trkpt>
      <trkpt lat="43.7642" lon="6.53977">
        <ele>904</ele>
        <time>2010-09-26T13:24:47Z</time>
      </trkpt>
      <trkpt lat="43.76417" lon="6.53985">
        <ele>905</ele>
        <time>2010-09-26T13:24:58Z</time>
      </trkpt>
      <trkpt lat="43.76423" lon="6.53996">
        <ele>905</ele>
        <time>2010-09-26T13:25:07Z</time>
      </trkpt>
      <trkpt lat="43.76427" lon="6.54002">
        <ele>905</ele>
        <time>2010-09-26T13:25:12Z</time>
      </trkpt>
      <trkpt lat="43.76432" lon="6.54002">
        <ele>905</ele>
        <time>2010-09-26T13:25:16Z</time>
      </trkpt>
      <trkpt lat="43.76435" lon="6.54011">
        <ele>906</ele>
        <time>2010-09-26T13:25:21Z</time>
      </trkpt>
      <trkpt lat="43.76436" lon="6.54017">
        <ele>906</ele>
        <time>2010-09-26T13:25:25Z</time>
      </trkpt>
      <trkpt lat="43.76435" lon="6.54033">
        <ele>906</ele>
        <time>2010-09-26T13:25:32Z</time>
      </trkpt>
      <trkpt lat="43.76435" lon="6.54044">
        <ele>906</ele>
        <time>2010-09-26T13:25:39Z</time>
      </trkpt>
      <trkpt lat="43.76433" lon="6.54053">
        <ele>907</ele>
        <time>2010-09-26T13:25:44Z</time>
      </trkpt>
      <trkpt lat="43.76432" lon="6.5406">
        <ele>906</ele>
        <time>2010-09-26T13:25:48Z</time>
      </trkpt>
      <trkpt lat="43.7643" lon="6.54063">
        <ele>907</ele>
        <time>2010-09-26T13:25:50Z</time>
      </trkpt>
      <trkpt lat="43.76429" lon="6.54068">
        <ele>909</ele>
        <time>2010-09-26T13:25:53Z</time>
      </trkpt>
      <trkpt lat="43.76422" lon="6.54078">
        <ele>908</ele>
        <time>2010-09-26T13:26:02Z</time>
      </trkpt>
      <trkpt lat="43.76416" lon="6.5409">
        <ele>909</ele>
        <time>2010-09-26T13:26:13Z</time>
      </trkpt>
      <trkpt lat="43.76413" lon="6.54095">
        <ele>909</ele>
        <time>2010-09-26T13:26:16Z</time>
      </trkpt>
      <trkpt lat="43.7641" lon="6.54102">
        <ele>910</ele>
        <time>2010-09-26T13:26:21Z</time>
      </trkpt>
      <trkpt lat="43.76409" lon="6.54109">
        <ele>910</ele>
        <time>2010-09-26T13:26:25Z</time>
      </trkpt>
      <trkpt lat="43.76406" lon="6.54114">
        <ele>911</ele>
        <time>2010-09-26T13:26:30Z</time>
      </trkpt>
      <trkpt lat="43.76405" lon="6.54118">
        <ele>911</ele>
        <time>2010-09-26T13:26:32Z</time>
      </trkpt>
      <trkpt lat="43.76404" lon="6.54119">
        <ele>911</ele>
        <time>2010-09-26T13:26:33Z</time>
      </trkpt>
      <trkpt lat="43.76402" lon="6.54122">
        <ele>911</ele>
        <time>2010-09-26T13:26:36Z</time>
      </trkpt>
      <trkpt lat="43.76397" lon="6.54136">
        <ele>912</ele>
        <time>2010-09-26T13:26:47Z</time>
      </trkpt>
      <trkpt lat="43.76397" lon="6.5414">
        <ele>912</ele>
        <time>2010-09-26T13:26:51Z</time>
      </trkpt>
      <trkpt lat="43.76398" lon="6.54146">
        <ele>911</ele>
        <time>2010-09-26T13:26:55Z</time>
      </trkpt>
      <trkpt lat="43.76398" lon="6.54156">
        <ele>913</ele>
        <time>2010-09-26T13:26:59Z</time>
      </trkpt>
      <trkpt lat="43.76409" lon="6.54164">
        <ele>913</ele>
        <time>2010-09-26T13:27:09Z</time>
      </trkpt>
      <trkpt lat="43.76415" lon="6.54167">
        <ele>914</ele>
        <time>2010-09-26T13:27:14Z</time>
      </trkpt>
      <trkpt lat="43.76432" lon="6.54174">
        <ele>914</ele>
        <time>2010-09-26T13:27:27Z</time>
      </trkpt>
      <trkpt lat="43.76442" lon="6.54186">
        <ele>913</ele>
        <time>2010-09-26T13:27:38Z</time>
      </trkpt>
      <trkpt lat="43.76443" lon="6.54188">
        <ele>914</ele>
        <time>2010-09-26T13:27:41Z</time>
      </trkpt>
      <trkpt lat="43.76448" lon="6.54196">
        <ele>913</ele>
        <time>2010-09-26T13:27:47Z</time>
      </trkpt>
      <trkpt lat="43.76452" lon="6.5421">
        <ele>913</ele>
        <time>2010-09-26T13:27:57Z</time>
      </trkpt>
      <trkpt lat="43.76454" lon="6.54216">
        <ele>914</ele>
        <time>2010-09-26T13:28:01Z</time>
      </trkpt>
      <trkpt lat="43.76462" lon="6.54227">
        <ele>916</ele>
        <time>2010-09-26T13:28:11Z</time>
      </trkpt>
      <trkpt lat="43.76469" lon="6.54237">
        <ele>914</ele>
        <time>2010-09-26T13:28:20Z</time>
      </trkpt>
      <trkpt lat="43.7648" lon="6.54248">
        <ele>916</ele>
        <time>2010-09-26T13:28:32Z</time>
      </trkpt>
      <trkpt lat="43.76488" lon="6.54259">
        <ele>916</ele>
        <time>2010-09-26T13:28:41Z</time>
      </trkpt>
      <trkpt lat="43.76496" lon="6.54269">
        <ele>917</ele>
        <time>2010-09-26T13:28:51Z</time>
      </trkpt>
      <trkpt lat="43.76505" lon="6.5428">
        <ele>916</ele>
        <time>2010-09-26T13:29:00Z</time>
      </trkpt>
      <trkpt lat="43.76516" lon="6.54291">
        <ele>916</ele>
        <time>2010-09-26T13:29:11Z</time>
      </trkpt>
      <trkpt lat="43.76518" lon="6.54292">
        <ele>917</ele>
        <time>2010-09-26T13:29:13Z</time>
      </trkpt>
      <trkpt lat="43.76531" lon="6.54304">
        <ele>917</ele>
        <time>2010-09-26T13:29:26Z</time>
      </trkpt>
      <trkpt lat="43.76533" lon="6.54305">
        <ele>917</ele>
        <time>2010-09-26T13:29:28Z</time>
      </trkpt>
      <trkpt lat="43.7655" lon="6.54312">
        <ele>918</ele>
        <time>2010-09-26T13:29:41Z</time>
      </trkpt>
      <trkpt lat="43.76561" lon="6.54318">
        <ele>918</ele>
        <time>2010-09-26T13:29:52Z</time>
      </trkpt>
      <trkpt lat="43.76562" lon="6.54319">
        <ele>918</ele>
        <time>2010-09-26T13:29:53Z</time>
      </trkpt>
      <trkpt lat="43.76574" lon="6.54328">
        <ele>919</ele>
        <time>2010-09-26T13:30:05Z</time>
      </trkpt>
      <trkpt lat="43.7658" lon="6.5433">
        <ele>919</ele>
        <time>2010-09-26T13:30:10Z</time>
      </trkpt>
      <trkpt lat="43.76586" lon="6.54338">
        <ele>919</ele>
        <time>2010-09-26T13:30:17Z</time>
      </trkpt>
      <trkpt lat="43.7659" lon="6.54341">
        <ele>920</ele>
        <time>2010-09-26T13:30:21Z</time>
      </trkpt>
      <trkpt lat="43.76592" lon="6.54343">
        <ele>920</ele>
        <time>2010-09-26T13:30:23Z</time>
      </trkpt>
      <trkpt lat="43.76598" lon="6.54347">
        <ele>918</ele>
        <time>2010-09-26T13:30:28Z</time>
      </trkpt>
      <trkpt lat="43.76605" lon="6.54363">
        <ele>920</ele>
        <time>2010-09-26T13:30:40Z</time>
      </trkpt>
      <trkpt lat="43.76602" lon="6.54371">
        <ele>918</ele>
        <time>2010-09-26T13:30:52Z</time>
      </trkpt>
      <trkpt lat="43.76592" lon="6.54378">
        <ele>922</ele>
        <time>2010-09-26T13:31:04Z</time>
      </trkpt>
      <trkpt lat="43.7659" lon="6.54379">
        <ele>920</ele>
        <time>2010-09-26T13:31:06Z</time>
      </trkpt>
      <trkpt lat="43.76579" lon="6.54385">
        <ele>922</ele>
        <time>2010-09-26T13:31:18Z</time>
      </trkpt>
      <trkpt lat="43.76571" lon="6.5439">
        <ele>922</ele>
        <time>2010-09-26T13:31:29Z</time>
      </trkpt>
      <trkpt lat="43.76569" lon="6.5439">
        <ele>923</ele>
        <time>2010-09-26T13:31:38Z</time>
      </trkpt>
      <trkpt lat="43.76567" lon="6.54395">
        <ele>922</ele>
        <time>2010-09-26T13:31:44Z</time>
      </trkpt>
      <trkpt lat="43.76566" lon="6.54402">
        <ele>913</ele>
        <time>2010-09-26T13:31:53Z</time>
      </trkpt>
      <trkpt lat="43.76566" lon="6.54402">
        <ele>923</ele>
        <time>2010-09-26T13:31:54Z</time>
      </trkpt>
      <trkpt lat="43.76566" lon="6.54402">
        <ele>917</ele>
        <time>2010-09-26T13:31:57Z</time>
      </trkpt>
      <trkpt lat="43.76566" lon="6.54402">
        <ele>923</ele>
        <time>2010-09-26T13:31:58Z</time>
      </trkpt>
    </trkseg>
  </trk>
</gpx>